[[[{"header":{"parameterUnit":"kt","parameterCategory":2,"dx":1,"dy":1,"la1":29.587661999999998,"la2":31.0,"lo1":-88.76705300000003,"lo2":-86.6583820000003,"nx":115,"ny":88,"refTime":"2022-10-12T18:00:00:Z","depth":0,"parameterNumber":1,"parameterNumberName":"U-component_of_WINDS"},"data":[3.1707,3.1926,2.984,2.9215,2.939,2.793,2.6254,2.4972,2.5403,2.4991,2.4386,2.524,2.5882,2.6093,2.5029,2.5441,2.7334,2.8952,3.1222,3.4125,3.7952,3.937,4.1344,4.5016,4.6943,4.9923,5.3079,5.6046,5.8027,5.8952,6.0219,6.2477,6.2863,6.2596,6.3031,6.2644,6.3103,6.4625,6.5258,6.4938,6.4608,6.6448,6.8575,6.9282,7.0397,7.0061,7.0524,7.27,7.27,7.2728,7.2932,7.3972,7.4233,7.3525,7.332,7.3529,7.3888,7.3817,7.4442,7.5427,7.646,7.6641,7.7336,7.9242,7.9922,8.0435,8.1272,8.1541,8.1136,8.1446,8.1916,8.1261,8.1261,8.1668,8.1698,8.1317,8.0928,8.0578,7.9743,7.9228,7.936,7.9531,7.9319,7.9096,7.8589,7.8306,7.7376,7.6146,7.3867,7.0336,6.6948,6.4085,6.129,5.8208,5.4769,5.399,5.2308,4.8893,4.4074,2.8871,1.7956,1.3273,0.9877,0.7449,-0.5772,-1.8519,-2.8001,-2.5959,-4.5707,-5.078,-6.272,-7.0338,-6.7229,-6.4274,-6.1788,3.3125,3.3138,3.1719,3.0452,2.939,2.939,2.8546,2.7271,2.77,2.7512,2.7323,2.7753,2.7543,2.7134,2.6304,2.6924,2.815,3.0187,3.2676,3.5552,3.8985,4.1724,4.4805,4.8279,5.0317,5.2711,5.4922,5.7474,6.0542,6.138,6.2767,6.5397,6.5745,6.5172,6.8773,6.8286,6.581,6.7737,6.8548,6.7864,6.9098,7.1142,7.1703,7.1386,7.1191,7.195,7.2998,7.4085,7.4113,7.4259,7.455,7.5297,7.5181,7.524,7.4951,7.5408,7.5915,7.6108,7.6398,7.7363,7.8294,7.891,7.9251,7.9986,8.1087,8.1884,8.2999,8.3058,8.2289,8.2406,8.3249,8.3454,8.369,8.3988,8.3622,8.3211,8.2817,8.2509,8.1193,7.9861,8.0309,8.0912,8.085,8.0754,8.0539,8.0532,7.9982,7.898,7.7281,7.3774,7.0396,6.7551,6.3915,5.9803,5.6048,5.4482,5.2932,4.719,3.3169,1.3066,-0.1639,-0.3078,-0.6014,-1.1326,-1.6859,-2.5913,-3.5377,-4.8293,-4.684,-4.8565,-6.0994,-7.1526,-6.8256,-6.4988,-6.2677,3.4164,3.333,3.1913,3.1086,3.1062,3.1269,3.0636,2.9565,3.0003,3.0636,3.1269,3.0855,3.0441,3.0245,2.9193,2.9598,3.1039,3.2446,3.452,3.7188,4.0582,4.3867,4.6158,4.8052,5.1417,5.456,5.6183,5.884,6.2549,6.3726,6.5297,6.8441,6.8597,6.9107,7.224,7.1887,7.0571,7.1156,7.2833,7.2967,7.3062,7.4033,7.4497,7.5157,7.4785,7.51,7.601,7.601,7.5785,7.5529,7.5955,7.6411,7.7742,7.7578,7.799,7.863,7.8799,7.9051,7.939,8.0173,8.1294,8.1495,8.1646,8.1698,8.2657,8.4265,8.5249,8.4581,8.3839,8.4157,8.4958,8.4795,8.4909,8.4974,8.4677,8.4457,8.4137,8.3868,8.2921,8.191,8.2338,8.2915,8.2788,8.27,8.2716,8.2695,8.1913,8.1011,7.9788,7.7478,7.4236,7.0825,6.6282,6.1986,5.853,5.6185,5.3769,3.9106,2.4554,0.8687,-0.4558,-1.2436,-2.4508,-3.5471,-4.2669,-4.3581,-4.9504,-6.3195,-6.4776,-5.8635,-6.5354,-7.2784,-6.9075,-6.5689,-6.3908,3.5403,3.3946,3.2108,3.1719,3.2314,3.2314,3.2096,3.1683,3.2096,3.3125,3.4164,3.3138,3.252,3.2314,3.1051,3.1246,3.2894,3.4112,3.6581,3.8613,4.0628,4.3705,4.7254,4.9321,5.2671,5.5803,5.8182,5.9954,6.3031,6.5347,6.7502,7.1962,7.1437,7.3901,7.788,7.4043,7.3845,7.4668,7.6177,7.696,7.5328,7.5556,7.6908,7.6988,7.7235,7.7126,7.6739,7.7017,7.66,7.66,7.7046,7.8755,8.1343,8.0958,8.1691,8.2754,8.2021,8.187,8.2124,8.2808,8.3412,8.354,8.3783,8.3972,8.4792,8.6472,8.7012,8.6122,8.5804,8.6275,8.6524,8.587,8.549,8.5443,8.5395,8.5363,8.5249,8.4877,8.4618,8.4666,8.5035,8.5081,8.4918,8.4858,8.4877,8.4401,8.3668,8.2769,8.16,8.0207,7.6746,7.4132,6.936,6.461,6.1539,5.868,5.4618,4.1918,1.7997,0.5271,-0.5043,-2.7017,-5.0905,-6.0925,-6.4955,-6.5877,-6.9611,-7.8645,-7.8055,-7.3729,-7.5857,-7.4369,-7.1079,-6.7846,-6.5893,3.7028,3.5403,3.3946,3.2726,3.1938,3.2326,3.2739,3.3175,3.3561,3.4586,3.4995,3.3343,3.3343,3.3959,3.2701,3.2689,3.4329,3.5552,3.7202,3.8456,4.0459,4.4628,4.8358,5.1133,5.4316,5.8777,6.1153,6.1083,6.2839,6.5735,7.0005,7.6411,7.4409,7.6582,8.0704,7.7415,7.6177,7.7279,7.8734,7.8692,7.6198,7.7225,7.9521,7.8054,7.7675,7.7431,7.6687,7.6407,7.6489,7.7038,7.777,7.9005,8.0903,8.1761,8.2132,8.2814,8.3274,8.3503,8.4312,8.4688,8.5086,8.5237,8.5566,8.5216,8.5825,8.7336,8.8467,8.8029,8.786,8.8332,8.7994,8.7374,8.6912,8.6764,8.6872,8.6946,8.721,8.7615,8.7251,8.7137,8.7379,8.7249,8.7012,8.6236,8.6166,8.6057,8.5393,8.4529,8.3304,8.191,7.9744,7.7918,7.2183,6.6723,6.3729,5.9997,5.5787,3.6495,1.1323,-0.5542,-2.4553,-4.9449,-7.5948,-7.491,-7.2911,-7.8577,-8.0667,-8.1208,-8.0879,-7.9196,-7.734,-7.5941,-7.3778,-7.0811,-6.8194,3.8858,3.7231,3.5593,3.3959,3.2932,3.252,3.252,3.2945,3.3767,3.4777,3.5606,3.479,3.4981,3.581,3.5185,3.5362,3.6595,3.7188,3.8024,3.926,4.0075,4.5176,4.8907,5.1709,5.5602,5.9302,6.1715,6.2181,6.4251,6.7073,7.0139,7.4895,7.3243,7.7163,8.0074,7.8946,7.7773,7.9017,7.9562,7.8369,7.8024,7.8623,7.9743,7.9612,7.9612,7.948,7.9113,7.9246,7.9156,7.9329,8.0013,8.1039,8.2284,8.3225,8.385,8.4957,8.5039,8.5524,8.5733,8.5928,8.6091,8.6189,8.6471,8.6656,8.7616,8.8432,8.9252,8.9951,9.0045,8.9951,8.9512,8.9096,8.8634,8.8195,8.8366,8.85,8.9308,9.0184,9.0079,8.9796,8.9354,8.9212,8.8794,8.7961,8.7479,8.7479,8.6986,8.6001,8.4696,8.3454,8.1892,7.9988,7.4454,6.8694,6.533,6.1963,4.3493,1.9925,0.0,-1.9211,-4.6721,-6.5371,-7.6072,-7.9406,-8.0159,-8.0597,-8.1076,-8.2273,-8.285,-8.0663,-7.859,-7.6908,-7.4777,-7.2351,-6.9487,3.9675,3.8254,3.7028,3.5593,3.3972,3.2913,3.2669,3.2945,3.3767,3.4586,3.5606,3.581,3.6027,3.7259,3.7475,3.7851,3.8642,3.923,3.9845,4.0842,4.2017,4.593,4.9471,5.2283,5.6161,5.9674,6.1715,6.2181,6.3942,6.5874,6.9121,7.3292,7.3444,7.647,7.8392,7.7055,7.693,7.7244,7.7557,7.7421,7.7859,7.9156,8.0035,8.0455,8.0584,8.0165,7.9935,7.9935,8.0493,8.0785,8.1574,8.299,8.4052,8.4957,8.5443,8.6929,8.7144,8.7144,8.6788,8.7218,8.7357,8.6962,8.7641,8.8634,8.9608,9.0288,9.0707,9.1009,9.122,9.0756,9.0182,9.002,8.9798,8.9608,8.9669,9.0079,9.0872,9.1731,9.2366,9.1724,9.0001,8.9966,9.0673,8.9823,8.8732,8.8865,8.84,8.7151,8.5923,8.4925,8.3456,8.1248,7.6377,7.0916,6.7278,6.3705,3.4564,0.7335,-0.4332,-2.0616,-4.68,-6.5783,-7.6182,-8.0907,-8.1042,-8.1293,-8.1704,-8.2552,-8.3578,-8.165,-7.9777,-7.7779,-7.5763,-7.3412,-7.0749,3.966,3.8441,3.8254,3.7056,3.551,3.3692,3.3002,3.3407,3.3972,3.4586,3.5021,3.562,3.6244,3.6882,3.7273,3.7865,3.8456,4.0597,4.0628,4.1438,4.3363,4.7481,5.0633,5.3221,5.6719,5.9871,6.1887,6.2376,6.2205,6.3966,6.7576,7.1591,7.2777,7.5704,7.6126,7.4813,7.3078,7.5156,7.6146,7.7117,7.777,7.9228,8.0425,8.0713,8.0841,8.0455,8.0196,8.0066,8.0846,8.1512,8.2161,8.3935,8.5475,8.6527,8.6746,8.7144,8.7569,8.7569,8.7536,8.7953,8.8057,8.8332,8.9031,9.0079,9.1044,9.1652,9.1822,9.2025,9.2025,9.1446,9.0984,9.088,9.0866,9.0831,9.0831,9.1515,9.2284,9.3083,9.3795,9.322,9.1593,9.1009,9.1717,9.1113,8.9832,8.958,8.8634,8.7469,8.6363,8.5523,8.478,8.2573,7.8599,7.3162,6.8916,6.5336,3.9578,0.5582,-0.6713,-2.3117,-4.5237,-6.6458,-7.5757,-8.1623,-8.1866,-8.2115,-8.2546,-8.3214,-8.3916,-8.2816,-8.1031,-7.8956,-7.633,-7.4121,-7.1355,4.0535,4.0308,3.8044,3.6795,3.6395,3.5531,3.4891,3.4473,3.419,3.4599,3.5021,3.562,3.6041,3.6665,3.7273,3.7865,3.8843,3.963,3.966,4.2806,4.4129,4.769,5.1397,5.4476,5.7231,5.9697,6.1692,6.3127,6.3271,6.2935,6.5208,6.8052,6.9042,7.2156,7.3695,7.3545,7.1936,7.3949,7.5666,7.695,7.7935,7.9065,8.0713,8.0841,8.0841,8.0713,8.0584,8.1066,8.1948,8.299,8.3914,8.5022,8.6099,8.6854,8.6962,8.7144,8.7536,8.785,8.8331,8.8836,8.9614,8.9986,9.0505,9.1359,9.2321,9.2473,9.2555,9.2635,9.2671,9.2179,9.1757,9.1722,9.1737,9.1737,9.1906,9.2438,9.3167,9.3969,9.4558,9.4314,9.3195,9.2734,9.2614,9.1585,9.0574,8.9676,8.8768,8.7474,8.6297,8.6548,8.6275,8.4068,8.0652,7.6348,7.2098,6.7746,4.2727,0.7471,-1.2409,-2.9087,-5.0394,-6.9399,-7.6082,-8.2185,-8.2497,-8.2844,-8.3363,-8.3719,-8.4215,-8.3559,-8.1968,-7.9677,-7.6991,-7.4181,-7.1323,4.1616,4.1812,3.9504,3.856,3.807,3.6838,3.6237,3.5739,3.5074,3.5172,3.5797,3.562,3.6041,3.6448,3.7259,3.8254,3.963,3.983,4.1026,4.4162,4.6281,4.8867,5.1642,5.4699,5.7233,5.9807,6.1083,6.2431,6.3762,6.2676,6.3713,6.516,6.656,6.7476,6.9861,7.1332,7.2318,7.4179,7.5441,7.6841,7.7859,7.8963,7.9974,8.0584,8.0841,8.0841,8.0841,8.1097,8.2196,8.3535,8.3977,8.5086,8.6385,8.6962,8.7251,8.7783,8.7641,8.8229,8.9261,9.0054,9.1024,9.1515,9.1906,9.2274,9.3033,9.2831,9.259,9.259,9.2487,9.2281,9.2284,9.2297,9.2671,9.2671,9.3076,9.3607,9.3899,9.4655,9.4979,9.4695,9.4553,9.4045,9.3295,9.2438,9.1254,9.0206,8.9771,8.8533,8.7445,8.7649,8.7541,8.5346,8.3033,7.931,7.5132,7.0293,5.0019,1.8643,-0.5424,-2.8154,-5.1532,-7.2245,-7.98,-8.3107,-8.3359,-8.3504,-8.3858,-8.4267,-8.4627,-8.4271,-8.2582,-8.0419,-7.8148,-7.5341,-7.2199,4.2651,4.2713,4.2488,4.1995,4.0424,3.6936,3.6351,3.7209,3.6423,3.6553,3.739,3.6189,3.6,3.6812,3.7635,3.923,4.1177,4.333,4.4805,4.5545,4.7942,5.1358,5.314,5.4524,5.6576,6.0336,6.0835,6.0922,6.2046,6.1362,6.248,6.3883,6.511,6.6336,6.7551,6.8834,7.0397,7.2045,7.2468,7.4468,7.6344,7.7859,7.8993,7.9844,8.0425,8.0841,8.1097,8.1477,8.2443,8.3859,8.4329,8.5508,8.6821,8.7144,8.7887,8.8667,8.8264,8.913,9.088,9.1927,9.2462,9.2786,9.2831,9.3069,9.345,9.3373,9.3104,9.2579,9.2438,9.2223,9.2247,9.272,9.3402,9.3825,9.4267,9.4656,9.4656,9.505,9.5052,9.4872,9.4903,9.4831,9.4014,9.3033,9.1772,9.1201,9.0756,8.9986,8.8926,8.8599,8.8162,8.6409,8.4598,8.0519,7.5989,7.1936,5.868,3.0747,0.3454,-2.2185,-4.6273,-7.0449,-8.0998,-8.3468,-8.414,-8.3896,-8.4235,-8.4682,-8.4889,-8.4789,-8.3092,-8.1762,-7.9459,-7.6946,-7.3943,4.2538,4.3179,4.2128,4.1373,4.0986,3.9538,3.8281,3.7693,3.7443,3.8167,3.9385,3.739,3.7592,3.9385,3.98,4.0597,4.3068,4.44,4.5301,4.6767,4.8401,5.0116,5.2093,5.3818,5.5612,5.7502,5.8292,5.9508,6.0741,6.0005,6.1266,6.3169,6.4482,6.5381,6.675,6.8314,6.9701,7.0577,7.1441,7.3182,7.4179,7.6425,7.8399,7.883,8.0265,8.0841,8.1224,8.2072,8.3053,8.4063,8.5298,8.6581,8.7364,8.8195,8.8998,8.9354,8.9642,9.054,9.1671,9.2415,9.2777,9.3408,9.3638,9.3864,9.4012,9.3938,9.3562,9.2857,9.3083,9.3165,9.2424,9.3479,9.4337,9.4266,9.4762,9.5035,9.5035,9.5035,9.5035,9.5035,9.4899,9.4831,9.4049,9.3302,9.2555,9.2509,9.1722,9.0631,8.9729,8.916,8.8768,8.7412,8.5554,8.1312,7.6479,6.9275,5.9236,3.2208,0.9293,-1.6292,-4.2524,-6.8382,-8.375,-8.3895,-8.3825,-8.4174,-8.4374,-8.4625,-8.4907,-8.5225,-8.4737,-8.3925,-8.1476,-7.8536,-7.5598,4.3667,4.4041,4.2447,4.1958,4.2107,4.0566,3.9562,3.9126,3.8892,3.9585,4.0398,3.9185,3.977,4.136,4.1375,4.2431,4.4673,4.504,4.6067,4.7139,4.8178,4.9513,5.087,5.2903,5.4429,5.6527,5.7434,5.8465,5.9551,5.9211,6.0767,6.2339,6.3995,6.502,6.7135,6.932,7.0777,7.162,7.2468,7.3449,7.4179,7.6454,7.7889,7.8429,8.0295,8.1097,8.1477,8.2932,8.3773,8.4677,8.5968,8.6689,8.7185,8.8264,8.9096,8.9703,8.9771,9.0935,9.2297,9.2972,9.3167,9.3785,9.4083,9.4194,9.3718,9.3938,9.3825,9.3633,9.3579,9.3643,9.3202,9.4188,9.4874,9.466,9.4728,9.4967,9.5035,9.5035,9.5035,9.5066,9.4967,9.4895,9.4195,9.3567,9.3678,9.3714,9.2509,9.1324,9.0426,8.9649,8.9099,8.8028,8.5706,8.1914,7.7152,6.8218,5.8833,3.7288,1.5191,-1.1109,-3.7389,-6.2758,-7.7645,-8.226,-8.2748,-8.3993,-8.4697,-8.4725,-8.5069,-8.5707,-8.572,-8.5531,-8.3147,-8.014,-7.7057,4.5466,4.4488,4.3418,4.3263,4.3302,4.0557,4.0273,4.1223,4.0319,4.0413,4.0995,4.1375,4.1969,4.2757,4.328,4.4163,4.6049,4.6539,4.7046,4.7675,4.8529,4.9473,5.0141,5.1333,5.2878,5.5705,5.5727,5.6817,5.8305,5.9123,6.0125,6.0827,6.4044,6.6113,6.7873,6.996,7.1771,7.2523,7.3358,7.4207,7.5357,7.6652,7.7812,7.9216,8.0811,8.1854,8.2135,8.3295,8.4244,8.5022,8.6111,8.6722,8.7397,8.8298,8.9227,8.9866,9.0089,9.1094,9.2332,9.3088,9.355,9.3745,9.3974,9.4085,9.3792,9.3864,9.3602,9.326,9.3896,9.3931,9.411,9.4545,9.4841,9.4697,9.4692,9.4899,9.5035,9.5035,9.5163,9.5096,9.5054,9.4967,9.4529,9.4231,9.4267,9.4158,9.3147,9.2262,9.1236,9.0123,8.9586,8.8567,8.6137,8.0961,7.6307,6.4589,5.0838,3.1762,1.2646,-1.0439,-3.1599,-4.6228,-6.3869,-7.0981,-8.3469,-8.4346,-8.5141,-8.5872,-8.64,-8.6548,-8.6746,-8.7011,-8.5404,-8.2573,-7.9284,4.3021,4.3372,4.4669,4.4396,4.2852,4.1636,4.1284,4.1601,4.1538,4.1621,4.2214,4.3379,4.4942,4.5895,4.5279,4.5913,4.8095,4.8736,4.8417,4.8074,4.8393,4.8918,4.9029,4.9161,5.0808,5.429,5.4086,5.5256,5.7869,6.0227,6.1509,6.1206,6.445,6.6585,6.7626,6.97,7.1674,7.2401,7.3294,7.4118,7.51,7.6373,7.7616,7.9096,8.0719,8.2351,8.3326,8.4244,8.4792,8.57,8.6689,8.7364,8.7712,8.8601,8.9649,8.9805,9.079,9.1446,9.1997,9.2892,9.3043,9.3202,9.3402,9.4121,9.4049,9.4231,9.4231,9.4231,9.4588,9.4374,9.423,9.4661,9.4768,9.4766,9.4863,9.4967,9.5102,9.545,9.5603,9.5666,9.5743,9.5502,9.5523,9.5096,9.4823,9.469,9.3976,9.3104,9.1927,9.0586,9.0063,8.9427,8.4267,7.5959,6.4625,4.9762,4.0719,2.5874,0.8681,-0.9699,-2.2834,-3.6908,-5.4028,-6.9067,-8.2813,-8.3047,-7.8247,-8.3351,-8.787,-8.7901,-8.8001,-8.8389,-8.7657,-8.5129,-8.1779,4.156,4.2218,4.3326,4.317,4.2141,4.1539,4.1246,4.1184,4.1428,4.2033,4.3003,4.4179,4.5736,4.6912,4.6684,4.729,4.8362,4.8851,4.8526,4.7846,4.8115,4.8415,4.8184,4.8763,5.0042,5.289,5.4041,5.5621,5.7949,6.0977,6.2139,6.1533,6.4565,6.6998,6.829,7.0189,7.1756,7.309,7.4085,7.4927,7.5756,7.6769,7.7842,7.889,8.0462,8.1792,8.3022,8.4212,8.5103,8.6066,8.7151,8.792,8.8126,8.8836,8.9717,8.9683,9.0935,9.1601,9.1807,9.2902,9.3638,9.3864,9.3938,9.4303,9.503,9.5228,9.5199,9.5102,9.5301,9.5102,9.4762,9.5102,9.4863,9.489,9.5269,9.5275,9.5348,9.5706,9.6247,9.6383,9.6502,9.6921,9.7132,9.6546,9.6008,9.5217,9.4051,9.3047,9.1976,9.0915,9.0437,8.9778,8.1873,7.2267,5.6633,4.1545,3.5354,2.4452,0.7101,-0.4707,-1.6454,-3.166,-5.0581,-6.6864,-7.5887,-7.5807,-7.1718,-7.682,-8.691,-8.8699,-8.9171,-8.8957,-8.8549,-8.6197,-8.32,4.1014,4.1524,4.0937,4.1014,4.1446,4.0952,4.0674,4.0705,4.069,4.1851,4.3199,4.3592,4.4782,4.6351,4.6912,4.73,4.7709,4.7804,4.7768,4.735,4.7742,4.8109,4.8354,4.9584,5.1487,5.3212,5.5957,5.8226,6.0409,6.2317,6.2646,6.2748,6.5669,6.7434,6.9271,7.1113,7.3873,7.5612,7.6096,7.6687,7.7302,7.7608,7.8338,7.9216,8.0333,8.1479,8.2959,8.3914,8.4843,8.5844,8.6863,8.7502,8.7745,8.8057,8.8769,8.9614,9.0527,9.1443,9.1968,9.3272,9.4374,9.4584,9.4548,9.4957,9.5286,9.5514,9.5738,9.5301,9.5623,9.5649,9.5366,9.5738,9.5701,9.5642,9.5914,9.5978,9.602,9.6906,9.7265,9.7472,9.751,9.799,9.8276,9.772,9.6958,9.5438,9.3937,9.2905,9.1941,9.1324,9.0712,8.9205,8.3146,7.2469,5.8047,4.311,3.3783,2.3438,1.0003,-0.1655,-1.4528,-2.8853,-4.7487,-5.6766,-6.4996,-6.7635,-7.1834,-7.8275,-8.5555,-8.8705,-8.8694,-8.878,-8.8893,-8.7012,-8.4603,4.0751,4.0875,4.0721,4.0751,4.0844,4.0705,4.0674,4.0674,4.0674,4.1438,4.2412,4.2609,4.3788,4.5154,4.5719,4.607,4.6524,4.6836,4.6956,4.6897,4.7323,4.7682,4.8704,5.0558,5.2693,5.4195,5.7083,5.9461,6.2661,6.5767,6.7262,6.6994,6.8297,7.0121,7.0121,7.132,7.2153,7.3617,7.4667,7.5984,7.6885,7.7853,7.9113,8.1292,8.0943,8.1792,8.3527,8.4148,8.4381,8.541,8.6623,8.789,8.84,8.8601,8.9099,9.0309,9.1687,9.2286,9.2848,9.3871,9.4854,9.5314,9.5156,9.4859,9.506,9.5788,9.6354,9.6374,9.6354,9.6041,9.5955,9.6097,9.6137,9.6189,9.6731,9.7429,9.7657,9.7919,9.8306,9.8389,9.8476,9.8566,9.86,9.811,9.7165,9.5677,9.4504,9.344,9.2473,9.1792,9.1009,8.9276,8.4747,7.3914,6.2726,4.8666,3.1178,2.014,0.8117,-0.8705,-2.0236,-2.7404,-3.2804,-4.2249,-4.9809,-5.4753,-7.3448,-8.283,-8.4925,-8.6447,-8.7677,-8.818,-8.7993,-8.6636,-8.4573,4.0674,4.0674,4.0674,4.0674,4.0674,4.0674,4.0674,4.0674,4.0659,4.1256,4.1835,4.223,4.3003,4.4179,4.457,4.4765,4.5331,4.5736,4.6297,4.6983,4.7217,4.7898,4.9357,5.1239,5.319,5.563,5.9057,6.2352,6.442,6.7063,6.7164,6.7568,6.8274,6.9325,6.9654,7.0676,7.1756,7.3146,7.4085,7.4956,7.5984,7.6885,7.8712,8.0688,8.1323,8.2441,8.3882,8.3796,8.4201,8.5681,8.6557,8.7823,8.8899,8.9552,9.0063,9.1004,9.2204,9.3053,9.362,9.4506,9.5617,9.6114,9.5872,9.5665,9.5991,9.6145,9.6614,9.6877,9.6789,9.6945,9.6761,9.7125,9.7095,9.7144,9.7658,9.8389,9.8863,9.9057,9.9166,9.9208,9.9167,9.9125,9.905,9.8176,9.7211,9.6231,9.5119,9.4117,9.3069,9.2544,9.2095,9.1029,8.9546,8.0656,7.2981,5.0508,2.825,1.6082,0.2335,-1.9765,-3.2163,-3.1064,-3.265,-3.1913,-2.7851,-2.9236,-4.7881,-7.0238,-7.7923,-8.3176,-8.5415,-8.7169,-8.7053,-8.6263,-8.4264,4.0674,4.0674,4.0674,4.0674,4.0674,4.0674,4.0674,4.0674,4.0674,4.1057,4.1851,4.1835,4.2428,4.3199,4.3412,4.3984,4.4765,4.4959,4.5701,4.6823,4.738,4.8696,5.035,5.2731,5.4604,5.7424,6.1257,6.4231,6.5165,6.5466,6.6541,6.6514,6.7245,6.8096,6.9127,7.0203,7.2156,7.3652,7.5014,7.5897,7.6629,7.749,7.892,8.0943,8.173,8.2838,8.3677,8.3527,8.4169,8.659,8.6739,8.7926,8.9552,9.0471,9.1108,9.1962,9.297,9.3801,9.4493,9.5421,9.6647,9.7276,9.6914,9.6884,9.7104,9.7178,9.6966,9.725,9.7596,9.7996,9.7767,9.7964,9.8096,9.8072,9.844,9.918,9.9621,9.9777,9.9751,9.9698,9.9721,9.9713,9.8899,9.8048,9.7206,9.627,9.5509,9.4752,9.4024,9.3567,9.3225,9.3104,9.2716,8.7343,8.0361,5.2017,2.4322,1.1724,-1.2844,-3.4806,-4.2153,-3.8367,-2.9859,-2.5034,-2.065,-2.0637,-3.1707,-4.9543,-6.4061,-8.1846,-8.4857,-8.6125,-8.6006,-8.5654,-8.3724,4.0674,4.0674,4.0674,4.0674,4.0674,4.0674,4.0674,4.0674,4.0674,4.0858,4.0858,4.0858,4.1454,4.223,4.2428,4.3592,4.457,4.5137,4.5348,4.6509,4.6912,4.8807,5.1721,5.4637,5.7146,6.0117,6.3272,6.5013,6.5936,6.6745,6.6944,6.7683,6.8052,6.8496,6.9511,7.1649,7.3573,7.4756,7.6791,7.8219,7.8787,7.9186,8.0462,8.1948,8.2594,8.3111,8.3999,8.4148,8.4433,8.5616,8.7236,8.8865,9.0216,9.1143,9.2017,9.2981,9.3835,9.4638,9.5447,9.6522,9.7339,9.752,9.7376,9.7241,9.7044,9.7228,9.7344,9.7633,9.8033,9.8607,9.8352,9.8613,9.8599,9.8636,9.9234,9.973,9.9914,9.9879,9.9806,9.9821,9.9599,9.891,9.8216,9.7705,9.7067,9.6456,9.6012,9.5535,9.5109,9.4656,9.4622,9.4481,9.3023,8.8705,7.8053,5.3815,2.2313,0.0895,-3.0311,-4.6879,-5.8122,-4.0915,-2.0012,-1.6377,-1.3068,-2.1994,-3.0029,-3.9429,-5.5104,-7.8496,-8.5602,-8.5336,-8.5031,-8.4764,-8.2964,4.0674,4.0674,4.0674,4.0674,4.0674,4.0674,4.0674,4.0674,4.0674,4.0674,4.0674,4.0674,4.0858,4.1438,4.2033,4.2609,4.3575,4.4179,4.4959,4.6123,4.672,4.896,5.2482,5.5708,5.8952,6.1793,6.3753,6.5087,6.6074,6.6701,6.7348,6.8493,6.8441,6.91,7.0758,7.1895,7.3944,7.5782,7.7616,7.889,7.9582,7.9974,8.0846,8.2226,8.3503,8.4297,8.4974,8.4548,8.512,8.6557,8.8298,8.99,9.1428,9.1827,9.2497,9.3526,9.4479,9.5341,9.6114,9.698,9.7668,9.8256,9.8015,9.7782,9.7873,9.7873,9.8033,9.8211,9.8619,9.9163,9.9209,9.9317,9.9341,9.9408,9.9694,9.9888,9.9735,9.8986,9.8634,9.9536,9.8997,9.7957,9.7271,9.6856,9.6313,9.5972,9.562,9.5323,9.4913,9.5041,9.5196,9.4827,9.326,8.5056,7.3556,5.3346,2.1663,-0.5056,-3.1738,-4.6425,-5.4245,-3.4012,-0.9649,0.575,1.8624,0.3091,-1.4743,-2.6922,-3.8622,-6.4758,-8.2034,-8.3634,-8.4058,-8.3431,-8.1935,4.0475,4.0659,4.0475,4.0475,4.0674,4.0674,4.0674,4.0674,4.0674,4.0674,4.0674,4.0674,4.0674,4.0674,4.1637,4.2428,4.2806,4.3788,4.4782,4.6334,4.6912,4.9339,5.2647,5.5549,5.8799,6.184,6.3609,6.478,6.5746,6.6074,6.6863,6.8175,6.8626,6.9857,7.1468,7.2617,7.4324,7.6652,7.813,7.9461,8.056,8.1196,8.2071,8.2959,8.4709,8.5779,8.587,8.536,8.587,8.7612,8.9164,9.0586,9.1568,9.2095,9.2875,9.3867,9.4791,9.569,9.6557,9.7093,9.769,9.8516,9.837,9.8407,9.8666,9.8462,9.8584,9.8893,9.911,9.9411,9.9686,9.9679,9.9409,9.925,9.9186,9.9014,9.8835,9.7887,9.7536,9.7996,9.7539,9.6783,9.6328,9.5841,9.5801,9.548,9.5163,9.4884,9.485,9.498,9.5107,9.5241,8.7674,7.1233,6.1901,5.0816,2.4615,0.0893,-2.0481,-3.6263,-3.6311,-2.2069,0.8309,2.8421,4.1901,3.0638,1.1356,-0.2746,-3.1827,-5.5227,-7.6724,-8.0645,-8.3327,-8.2093,-8.075,4.0275,4.0659,4.0075,4.0291,4.0674,4.0674,4.0674,4.0674,4.0674,4.0674,4.0674,4.0674,4.0674,4.0659,4.1637,4.2609,4.3575,4.457,4.5753,4.6737,4.7872,4.9736,5.2852,5.5389,5.8226,6.0911,6.2861,6.4255,6.5087,6.5557,6.6049,6.7348,6.9047,7.0114,7.1744,7.444,7.6454,7.7889,8.0241,8.1916,8.2531,8.3764,8.4381,8.4792,8.5923,8.6439,8.6821,8.7203,8.7756,8.7502,8.9805,9.07,9.0665,9.2179,9.3337,9.4374,9.4957,9.5592,9.6596,9.7186,9.7907,9.7883,9.8145,9.8586,9.8269,9.8139,9.8177,9.8461,9.9284,9.9354,9.9537,9.9053,9.8692,9.8429,9.7649,9.702,9.6624,9.6806,9.6311,9.49,9.623,9.5822,9.5181,9.4775,9.5225,9.4794,9.471,9.4561,9.4626,9.477,9.499,9.333,7.783,5.9612,5.4334,4.7099,2.4507,1.0101,-0.9288,-1.8877,-1.8855,0.8122,3.3105,4.5255,5.1436,4.6108,3.0047,0.2436,-2.7674,-5.2,-7.1242,-7.864,-8.2073,-7.8803,-7.5174,4.0475,4.0674,4.0459,4.0475,4.0674,4.0674,4.0674,4.0674,4.0674,4.0674,4.0674,4.0674,4.0674,4.0659,4.1637,4.2806,4.3771,4.4765,4.5947,4.693,4.7698,4.9717,5.2832,5.5549,5.805,6.0392,6.2861,6.4422,6.5062,6.5392,6.6676,6.8256,6.9465,7.1316,7.3414,7.5727,7.7126,7.9053,8.1005,8.2716,8.332,8.476,8.5395,8.5844,8.6232,8.7259,8.7733,8.7297,8.766,8.9058,9.0426,9.162,9.213,9.2751,9.3607,9.4895,9.5322,9.5411,9.562,9.6017,9.6065,9.5678,9.5948,9.6091,9.6142,9.6197,9.6264,9.6652,9.7644,9.8177,9.8385,9.8427,9.8137,9.7396,9.6103,9.5059,9.4843,9.4905,9.4694,9.4424,9.4584,9.4724,9.4159,9.4261,9.4325,9.4212,9.4254,9.4344,9.437,9.4567,9.3604,8.6219,7.3683,6.4869,5.9047,3.6342,1.1948,1.6119,0.4544,-0.136,1.5978,5.2836,6.5576,6.6734,6.541,5.8416,3.7078,1.2675,-1.6041,-4.0219,-6.3133,-7.4122,-7.4138,-7.2301,-6.8433,4.0306,4.0459,4.0475,4.0475,4.0475,4.0674,4.0674,4.0674,4.0674,4.0674,4.0674,4.0674,4.0674,4.0659,4.1653,4.2806,4.3788,4.4765,4.5947,4.6948,4.7507,4.915,5.1721,5.4824,5.774,6.0068,6.2546,6.428,6.5062,6.5227,6.6625,6.9465,7.0189,7.2291,7.5357,7.6378,7.7764,7.9541,8.0939,8.201,8.2838,8.4381,8.5508,8.5955,8.6739,8.7862,8.8633,8.7357,8.7794,9.0191,9.1516,9.2625,9.2946,9.2993,9.3371,9.4163,9.446,9.4352,9.4047,9.4443,9.4434,9.3693,9.4344,9.4323,9.4196,9.4439,9.442,9.452,9.5363,9.6225,9.6046,9.6254,9.6408,9.5737,9.2838,9.1121,9.141,9.2414,9.3471,9.3828,9.3902,9.4051,9.3899,9.3976,9.3943,9.3962,9.4112,9.4214,9.414,9.4282,9.4356,8.4757,7.2581,6.7471,5.6185,2.7724,1.4673,2.1415,2.1917,1.6659,4.5921,7.0732,7.4627,8.3188,7.4767,7.2405,5.0749,1.671,0.0537,-2.3078,-4.7099,-7.0531,-6.9399,-6.5948,-6.2218,3.93,3.986,3.9875,3.9875,4.0075,4.0475,4.0674,4.0674,4.0674,4.0674,4.0674,4.0674,4.0674,4.0873,4.1637,4.2609,4.3788,4.4765,4.5753,4.6737,4.7507,4.789,4.9168,5.3016,5.667,5.937,6.2058,6.3271,6.4088,6.4755,6.5974,6.8469,7.0696,7.3071,7.5271,7.746,7.8503,7.904,8.0523,8.1384,8.173,8.4285,8.5714,8.5588,8.7403,8.8668,8.893,8.8533,8.9235,9.1148,9.2673,9.2919,9.2283,9.2583,9.2694,9.2519,9.2048,9.2227,9.2451,9.3079,9.3435,9.3172,9.3419,9.416,9.3824,9.366,9.3497,9.3135,9.353,9.3478,9.2829,9.2835,9.2961,9.2613,8.9369,8.6868,8.6075,8.9489,9.2111,9.3471,9.3864,9.3792,9.3435,9.3471,9.3543,9.3549,9.3584,9.3416,9.3351,9.3151,9.3815,8.2646,6.675,6.2777,6.4073,3.7519,2.3767,3.1001,3.6522,4.313,6.5316,6.48,6.3849,7.5608,7.9434,7.9518,6.2408,1.6446,-1.3138,-2.331,-3.8421,-5.9183,-6.5458,-6.056,-5.6676,3.9599,3.9876,4.0092,4.0275,4.0275,4.0459,4.0674,4.0674,4.0674,4.0674,4.0674,4.0674,4.0674,4.0674,4.1057,4.2214,4.3575,4.4162,4.4976,4.5947,4.7105,4.7872,4.8635,5.176,5.541,5.9522,6.2205,6.3753,6.4422,6.4921,6.6162,6.8469,7.0723,7.3007,7.5271,7.7352,7.8533,7.8906,8.0105,8.1479,8.2653,8.4548,8.6078,8.6797,8.7541,8.8258,8.9069,8.9139,8.9859,9.1172,9.1934,9.2051,9.1383,9.1394,9.1442,9.142,9.159,9.1518,9.1047,9.1681,9.1753,9.0753,9.0939,9.1238,9.1111,9.1207,9.0837,9.0475,9.1114,9.1527,9.0779,9.0919,9.0511,8.9383,8.6944,8.6706,8.7538,8.8996,9.0829,9.2691,9.2189,9.1152,9.0938,9.0938,9.0973,9.0933,9.1041,9.1019,9.0728,9.0905,9.0648,8.4359,6.8611,6.3548,6.4161,5.322,3.7049,4.2936,5.1809,6.4596,7.3423,6.7521,6.5591,7.8394,7.6848,7.5505,5.2243,0.8681,-2.0035,-2.9369,-3.8737,-5.1914,-5.8933,-5.4406,-5.0628,3.9067,3.9327,4.0,4.0275,4.026,4.0475,4.0674,4.0674,4.0674,4.0674,4.0674,4.0674,4.0674,4.0674,4.0674,4.1637,4.3199,4.3592,4.4374,4.5365,4.672,4.768,4.8445,5.0658,5.4117,5.8447,6.1816,6.3753,6.4422,6.4613,6.5999,6.8337,7.0215,7.2523,7.5157,7.731,7.847,7.8832,7.9974,8.1196,8.2409,8.4317,8.6001,8.6979,8.7436,8.7916,8.8732,8.8803,8.9694,9.1333,9.1044,9.0799,9.0539,9.0269,9.011,9.0117,9.0618,9.0389,8.9729,9.0229,9.0148,8.9161,8.9254,8.9353,8.9201,8.9261,8.8827,8.8211,8.8735,8.907,8.8348,8.8554,8.8009,8.6365,8.4047,8.2835,8.4107,8.376,8.6234,9.0506,9.0546,8.9368,8.9259,8.9297,8.9511,8.9474,8.944,8.9296,8.8866,8.9152,8.8716,8.8067,7.7013,6.7487,7.1728,6.7849,5.9731,6.4255,6.9732,7.8574,8.0521,7.8683,7.968,8.1311,7.2875,5.8885,3.2087,0.4698,-1.6934,-3.1029,-3.8684,-4.4195,-4.9126,-4.8207,-4.4298,3.8049,3.826,3.9404,3.96,3.9155,4.003,4.0459,4.026,4.0459,4.0475,4.0459,4.0659,4.0674,4.0674,4.0674,4.1256,4.2428,4.3396,4.4374,4.5365,4.6544,4.7333,4.7872,5.0263,5.3016,5.575,6.0438,6.3102,6.3777,6.428,6.5532,6.7726,6.9283,7.1702,7.5157,7.7241,7.8533,7.8922,7.9874,8.0719,8.1101,8.3614,8.5298,8.5968,8.7198,8.7994,8.8063,8.7758,8.8597,9.0586,9.021,8.9787,8.9539,8.9287,8.9011,8.8555,8.8351,8.8247,8.8323,8.907,8.9557,8.9116,8.9242,8.9393,8.9215,8.884,8.8209,8.7381,8.6884,8.6037,8.5257,8.4883,8.4471,8.3858,7.9383,7.6906,7.7144,7.41,7.5433,8.5542,8.7572,8.8727,8.89,8.7943,8.7942,8.8228,8.8477,8.8262,8.7901,8.7827,8.8133,8.7099,8.1905,7.6455,8.0232,8.3859,8.2903,8.2337,8.3218,8.3753,8.3896,8.3966,8.3896,7.9725,7.1348,4.7108,2.064,-0.7819,-2.671,-3.2746,-3.7997,-4.4641,-4.545,-4.4286,-3.989,3.7294,3.7869,3.874,3.8589,3.8026,3.8651,3.8441,3.7433,3.8642,3.9059,3.9245,4.026,4.0674,4.0674,4.0674,4.1256,4.2214,4.3183,4.4358,4.5348,4.6544,4.7507,4.8463,5.0263,5.3016,5.611,5.9522,6.2205,6.3945,6.4613,6.5227,6.6463,6.8389,7.0858,7.3561,7.5644,7.7449,7.8563,7.9143,8.0364,8.1916,8.3344,8.4925,8.6557,8.6609,8.6486,8.6283,8.5776,8.6309,8.7816,8.8121,8.801,8.7923,8.7766,8.7558,8.7514,8.7975,8.8462,8.8734,8.9313,8.9563,8.9442,8.9518,8.9322,8.8945,8.8681,8.7984,8.7013,8.6274,8.5746,8.4565,8.2785,8.049,7.8089,7.7974,7.7489,7.5501,7.1157,7.2619,7.7972,7.8667,7.8977,8.0586,8.1469,8.3195,8.5455,8.5844,8.5704,8.549,8.5382,8.5274,8.4944,8.481,8.456,8.4102,8.362,8.3,8.3013,8.372,8.3747,8.3789,8.3825,8.2371,7.7473,6.1891,3.6744,0.8921,-2.1258,-3.3806,-3.7478,-4.1213,-4.3074,-4.1755,-4.0606,-3.9434,3.5893,3.6024,3.629,3.6267,3.6114,3.6892,3.7018,3.6812,3.7837,3.8657,3.926,4.026,4.0674,4.0628,4.0165,4.0504,4.1476,4.2428,4.3734,4.4952,4.612,4.7236,4.8426,4.9547,5.1926,5.5187,5.7718,6.0738,6.3921,6.4613,6.4921,6.5671,6.6982,6.9436,7.2468,7.4522,7.6436,7.8368,7.9143,8.0364,8.2226,8.3527,8.4488,8.5345,8.5075,8.4779,8.4307,8.461,8.4604,8.437,8.6181,8.6871,8.6411,8.654,8.6803,8.7308,8.8173,8.8831,8.9121,8.9504,8.9675,8.9561,8.9628,8.9394,8.8705,8.7893,8.6961,8.567,8.4817,8.3977,8.2974,8.1471,7.9195,7.7165,7.7235,7.5852,7.2574,7.0925,6.9945,7.0575,7.1471,7.2786,7.7203,7.9177,8.1133,8.3542,8.4107,8.4144,8.3895,8.3753,8.3859,8.3465,8.3538,8.3573,8.3391,8.3404,8.3437,8.3556,8.2768,8.2221,8.3337,8.3579,8.0884,7.6298,4.8176,2.3246,0.5527,-2.3298,-3.881,-4.1574,-4.0788,-4.1693,-3.9816,-4.139,-4.0309,3.361,3.286,3.2099,3.2631,3.4011,3.4632,3.5955,3.7033,3.7707,3.8725,3.9878,4.029,4.0352,4.0214,3.9254,3.9219,4.0193,4.135,4.2654,4.4159,4.5342,4.6677,4.8334,4.8353,4.9942,5.3038,5.5504,5.9137,6.3629,6.4036,6.4632,6.5333,6.5122,6.7344,7.1362,7.3302,7.5615,7.7516,7.8997,8.0569,8.1636,8.3626,8.3675,8.2482,8.2946,8.321,8.2769,8.4019,8.3691,8.077,8.4438,8.6083,8.5248,8.5859,8.6839,8.7744,8.8676,8.9212,8.9258,8.9506,8.9591,8.9475,8.9464,8.9254,8.8171,8.6413,8.4849,8.3867,8.1835,8.0571,8.0337,7.9823,7.9403,7.8619,7.5675,7.1949,6.7937,6.993,6.9896,6.5832,6.6954,7.0574,7.599,8.1032,8.3462,8.4002,8.3966,8.3766,8.3714,8.3564,8.345,8.3404,8.345,8.3423,8.3427,8.3437,8.3445,8.1713,7.9486,7.9131,8.1381,8.1643,7.9032,6.894,3.5553,1.0482,-0.4341,-2.091,-3.8235,-4.3466,-4.2599,-4.134,-4.0206,-4.1847,-4.1399,3.022,2.9815,2.9953,3.0164,3.0892,3.2112,3.2381,3.1954,3.3127,3.4504,3.5887,3.7039,3.7441,3.7575,3.7998,3.9329,4.1048,4.2148,4.3211,4.4344,4.5118,4.5778,4.6659,4.7045,4.8628,5.1432,5.2707,5.5437,5.9371,6.1404,6.2763,6.3241,6.3457,6.5047,6.792,6.9058,7.1099,7.3697,7.4765,7.6452,7.8475,8.0129,8.1466,8.2301,8.2084,8.1874,8.1893,8.1908,8.1881,8.2001,8.3822,8.514,8.5755,8.6275,8.683,8.745,8.8496,8.9204,8.9376,8.9691,8.9825,8.9482,8.85,8.7464,8.6129,8.4422,8.2928,8.1706,7.9025,7.7395,7.7287,7.7156,7.5762,7.3358,7.2125,6.9563,6.5344,6.0609,5.9127,6.0395,6.1432,6.3053,6.7733,7.5967,8.2568,8.2775,8.3372,8.3712,8.357,8.3618,8.356,8.3419,8.3285,8.3136,8.3427,8.3393,8.3442,8.0325,6.709,6.5077,7.9752,6.1893,5.2232,4.3563,1.5475,-0.8403,-2.473,-3.1909,-4.382,-4.3673,-4.2822,-4.15,-4.0497,-4.0488,-4.0358,2.7909,2.7175,2.7373,2.7863,2.8544,2.9852,3.0521,3.0521,3.15,3.2657,3.3946,3.3864,3.4035,3.4802,3.5336,3.6627,3.8678,3.9198,4.026,4.1676,4.2259,4.3346,4.4871,4.5271,4.706,4.9709,5.1243,5.3119,5.5655,5.8178,6.0165,6.1351,6.2344,6.397,6.6098,6.7099,6.9108,7.1952,7.2783,7.3814,7.5012,7.6686,7.8313,7.9612,8.0064,8.0376,8.0713,8.0865,8.1342,8.215,8.3719,8.4876,8.5599,8.6347,8.6941,8.7507,8.8402,8.9045,8.9495,8.91,8.9133,8.9635,8.8694,8.7313,8.5508,8.3703,8.1644,7.9633,7.7447,7.613,7.6202,7.6042,7.313,6.7251,6.5786,6.3631,5.8807,4.9824,4.7845,5.6103,5.6989,5.8295,6.2772,6.4651,6.7685,7.4742,8.0842,8.3272,8.3388,8.3503,8.355,8.2235,7.2908,7.1752,8.1505,8.3453,7.1049,5.7601,5.2548,5.349,6.4418,4.566,2.7183,1.3626,-0.9559,-3.0219,-4.3534,-4.3972,-4.3741,-4.3346,-4.2596,-4.1574,-4.0892,-4.13,-4.1438,2.6053,2.5136,2.4791,2.5624,2.6929,2.8137,2.9538,3.1274,3.1518,3.2294,3.3086,3.0816,3.0603,3.1865,3.2191,3.3076,3.4498,3.4425,3.5608,3.7626,3.8085,3.9914,4.2511,4.3363,4.5253,4.7687,4.9874,5.1349,5.2396,5.4465,5.6851,5.9373,6.1214,6.3129,6.5162,6.6432,6.8325,7.1068,7.2301,7.2482,7.1744,7.3824,7.5282,7.5736,7.7628,7.8853,7.9663,8.0581,8.1307,8.1785,8.379,8.4969,8.4995,8.5874,8.681,8.7356,8.7883,8.854,8.8965,8.7845,8.7578,8.8946,8.8601,8.7384,8.5263,8.3369,8.0892,7.8148,7.681,7.6389,7.6389,7.467,6.964,6.1371,5.799,5.4842,4.84,3.8413,3.6826,5.1122,5.3111,5.5603,5.5929,4.7424,4.3849,5.2999,6.9189,8.0339,7.0425,7.0276,7.4835,6.856,5.891,5.5693,7.5588,8.1789,5.7498,2.3185,4.4236,5.1283,3.8315,2.3255,0.9309,-1.0201,-2.7884,-4.0408,-4.4479,-4.4283,-4.3709,-4.3174,-4.2438,-4.1726,-4.1547,-4.284,-4.3543,2.2889,2.27,2.3278,2.4296,2.5528,2.7228,2.8228,2.8699,2.8711,2.8888,2.904,2.8635,2.9072,3.0512,3.0798,3.2033,3.3562,3.4155,3.4969,3.6094,3.7003,3.7914,3.9259,4.1474,4.3056,4.4083,4.6339,4.8373,5.0165,5.1153,5.308,5.6316,5.8672,6.0202,6.1117,6.2209,6.4128,6.6849,6.9142,7.1109,7.287,7.3407,7.4702,7.6761,7.7265,7.8244,8.0002,8.0374,8.1321,8.3145,8.379,8.4187,8.4343,8.4981,8.5116,8.4794,8.511,8.547,8.58,8.5486,8.5426,8.5521,8.4216,8.2896,8.1835,8.11,7.9892,7.7964,7.6263,7.5836,7.4942,6.8465,6.1971,5.9107,4.8994,4.1435,3.9515,3.6158,3.4517,3.5436,4.6086,4.8478,4.0091,3.3483,2.8733,2.871,5.6048,6.2204,3.055,3.8583,3.9522,2.9418,3.2882,4.9862,7.5513,5.7379,3.5458,3.5764,1.7583,0.8008,0.6105,-1.3714,-3.0048,-3.1927,-4.0499,-4.3315,-4.3607,-4.3086,-4.2725,-4.2838,-4.2443,-4.1826,-4.1994,-4.278,-4.2715,2.2139,2.2529,2.3098,2.4225,2.5566,2.6682,2.742,2.777,2.7547,2.7441,2.7465,2.7688,2.8166,2.9047,2.9498,3.0449,3.1534,3.2073,3.2811,3.3674,3.4549,3.5633,3.7041,3.952,4.1616,4.3187,4.5291,4.7161,4.8614,4.8964,5.0695,5.4036,5.5741,5.7614,5.9647,6.16,6.3602,6.5423,6.7612,6.9886,7.219,7.2587,7.3536,7.5272,7.5628,7.6479,7.7832,7.8536,7.9059,7.9509,8.0729,8.1464,8.1551,8.2498,8.3265,8.3764,8.42,8.4191,8.366,8.4279,8.4661,8.4442,8.3401,8.1155,7.7029,7.24,7.1478,7.5353,6.6713,6.3409,6.8037,5.8495,4.9535,4.4298,3.6749,3.1075,2.9611,2.5731,2.4646,2.9393,3.0663,2.7382,1.9834,2.4117,2.5259,2.9309,4.7211,5.0641,0.9343,3.206,4.4035,0.9773,1.2573,2.9167,4.0018,2.3821,0.9755,0.1093,-1.8122,-2.718,-2.5657,-3.1731,-4.2834,-4.3952,-4.4511,-4.4254,-4.2897,-4.3189,-4.3365,-4.3215,-4.2294,-4.2242,-4.2222,-4.239,-4.3318,2.2529,2.3288,2.3667,2.4571,2.6207,2.6218,2.6734,2.7547,2.7265,2.7148,2.7171,2.7594,2.7793,2.7968,2.8281,2.8825,2.938,2.9649,3.0396,3.1221,3.194,3.323,3.5278,3.7753,4.0205,4.2825,4.4932,4.6323,4.7181,4.7535,4.9293,5.23,5.3228,5.5588,5.9474,6.2399,6.4234,6.5056,6.703,6.8954,7.0828,7.1866,7.2575,7.2961,7.3847,7.4503,7.4892,7.6005,7.599,7.47,7.68,7.8043,7.8037,7.9425,8.0894,8.2337,8.2882,8.261,8.1511,8.2752,8.3533,8.3385,8.2843,7.9534,7.2281,6.2772,6.1116,6.9486,5.5225,4.7729,5.5338,4.7195,3.6724,2.7616,2.4258,2.2247,1.9879,1.3561,1.3907,2.4832,1.299,0.4874,0.6896,1.5598,2.9304,4.8455,4.7183,3.7916,2.4893,4.7646,5.0351,1.3186,-0.136,-0.2888,0.0561,-0.4109,-1.5952,-4.1339,-4.2797,-4.2385,-4.0773,-4.2791,-4.3056,-4.2189,-4.3407,-4.3741,-4.2104,-4.385,-4.3993,-4.278,-4.2302,-4.2645,-4.3192,-4.3278,-4.4593,2.3098,2.3478,2.5001,2.5702,2.5686,2.6429,2.6756,2.6585,0.0,0.0,0.0,2.7746,2.798,2.8328,2.8105,2.8445,2.9132,2.887,2.9263,3.0253,3.1139,3.1936,3.2935,3.5803,3.7769,3.9008,4.2308,4.4573,4.5441,4.6994,4.9272,5.2459,5.3228,5.5434,5.9154,6.178,6.3013,6.305,6.679,6.9644,7.117,7.2088,7.2746,7.3128,7.3933,7.423,7.3941,7.4035,7.4419,7.5098,7.5552,7.5971,7.6243,7.6771,7.6725,7.616,7.6185,7.6617,7.7362,7.7631,7.7763,7.7838,7.5789,7.3358,7.0648,6.2195,5.8021,5.9902,5.0039,4.4118,4.5865,3.547,2.7528,2.5594,1.7035,1.1288,1.0716,0.9126,0.9103,1.0045,0.7778,0.4162,0.2041,0.7177,2.2824,5.4472,3.5066,1.8191,5.2939,6.5768,5.3725,0.9987,-0.9781,-1.7046,-1.9718,-2.6989,-3.8191,-4.347,-4.4291,-4.3831,-4.306,-4.1835,-4.0615,-3.9851,-3.9669,-3.9932,-3.9285,-4.1114,-4.1955,-4.1965,-4.2114,-4.3087,-4.5172,-4.5854,-4.6204,2.4424,0.0,2.5931,2.635,0.0,2.7222,2.6679,2.5505,2.601,2.6374,2.6643,2.6913,2.7393,2.7756,2.6749,2.7334,2.8755,2.7774,2.8326,3.0195,3.0723,3.1211,3.2222,3.4799,3.6539,3.7608,4.1595,4.4043,4.4894,4.6826,4.8882,5.108,5.1528,5.347,5.697,5.765,5.9414,6.2442,6.6799,6.9925,7.1935,7.2199,7.2748,7.3645,7.3377,0.0,0.0,0.0,0.0,0.0,0.0,0.0,0.0,0.0,0.0,7.4823,7.3724,7.2775,7.2129,7.1487,7.1507,7.2233,7.0666,6.7153,6.1283,5.0743,4.5579,4.7844,3.5162,2.8976,3.3688,2.4282,1.7234,1.6456,1.1817,0.8354,0.831,0.8427,0.8021,0.7362,0.4626,0.3413,0.4328,2.3221,4.0335,3.5459,1.4749,1.8275,6.1516,5.8138,3.8786,1.3155,-1.253,-3.1521,-3.3926,-4.0326,-4.3745,-4.376,-4.3401,-4.2777,-4.2047,-4.1223,-4.0309,-3.9692,-4.0471,-4.0966,-4.0299,-4.2756,-4.5029,-4.452,-4.5599,-4.6942,-4.6522,-4.6341,-4.6305,2.5296,2.6041,2.6227,2.6715,2.7371,2.7465,2.655,2.5001,2.5001,2.5066,2.5152,2.5203,2.555,2.6092,2.5351,2.6221,2.8013,2.73,2.8175,3.029,3.0449,3.0968,3.1858,3.3877,3.5489,3.6899,4.0706,4.324,4.442,4.6332,4.8019,4.9572,5.0,5.1792,5.472,0.0,0.0,0.0,6.5825,6.9236,7.1846,7.1737,7.222,7.3456,7.272,0.0,7.2914,7.2715,7.2491,7.2477,7.3448,0.0,0.0,0.0,0.0,0.0,0.0,0.0,0.0,0.0,0.0,0.0,6.4732,6.0582,5.2702,4.1686,3.5101,3.4818,2.0128,1.3531,2.0956,1.4213,0.9098,0.8426,0.8286,0.8322,0.8354,0.835,0.8358,0.8358,0.452,0.3478,0.9047,3.8585,4.4574,-0.0,-0.0,-0.0,5.0465,2.8515,1.0742,0.6944,-2.0262,-4.1503,-4.3831,-4.3732,-4.3953,-4.2644,-4.2578,-4.2594,-4.1288,-4.0711,-4.0256,-3.9693,-4.1341,-4.2062,-4.14,-4.525,-4.773,-4.6566,-4.8677,-5.0165,-4.7661,-4.6295,-4.6268,2.4841,2.502,2.5934,2.6033,2.5846,2.628,2.6315,2.6069,2.6069,2.5203,2.3638,2.2101,2.1952,2.3033,2.4266,2.5504,2.6761,2.82,2.9261,2.9796,3.029,3.0809,3.1154,3.2073,3.363,3.5989,3.8048,4.0214,4.2512,4.4394,4.6878,4.9668,5.0473,5.1991,5.3988,5.2028,5.3537,5.8468,6.2125,6.5599,6.908,7.0128,7.0659,7.0971,7.211,7.1959,7.0226,7.0997,7.1526,7.1561,7.2284,7.3337,7.4505,7.1804,6.9574,0.0,6.5019,0.0,0.0,0.0,0.0,0.0,0.0,0.0,0.0,4.8642,3.8228,2.013,1.2945,0.8094,0.5684,0.6888,0.7952,0.838,0.8211,0.8199,0.8334,0.8354,0.8362,0.8374,0.7671,0.7504,0.7682,1.1824,1.3818,-0.0,-0.0,-0.1853,-0.5497,-1.0321,-1.5563,-2.0751,-3.3077,-4.2283,-4.3259,-4.513,-4.5235,-4.2414,-4.29,-4.3637,-4.0795,-3.9101,-3.8124,-3.8016,-3.8556,-3.9241,-4.1074,-4.3897,-4.5795,-4.5621,-4.8371,-5.0334,-4.8983,-4.7387,-4.6891,2.555,2.555,2.6092,2.5799,2.5071,2.5294,2.5388,2.54,2.5388,2.4876,2.4158,2.3312,2.3312,2.4009,2.3998,2.5024,2.6578,2.6591,2.7437,2.8785,2.9289,2.9624,3.0153,3.0992,3.2161,3.367,3.6948,3.9111,4.0596,4.3563,4.6049,4.7973,4.8783,5.0038,5.1951,5.1958,5.3408,5.6553,6.0222,6.452,6.9414,7.0695,7.1671,7.2283,7.3026,7.3016,7.2419,7.3028,7.3729,7.4469,7.526,7.5278,7.4412,7.1564,6.8691,0.0,0.0,0.0,0.0,0.0,0.0,0.0,0.0,0.0,0.0,0.0,3.2579,2.1284,1.4194,0.7458,0.092,0.3551,0.56,0.532,0.3512,0.3725,0.735,0.1162,-0.0334,0.7431,0.1671,-0.3213,-0.3898,0.2556,0.3257,-0.8258,-1.6062,-2.2666,-2.7044,-2.9094,-3.0608,-3.3127,-3.833,-4.2394,-4.378,-4.4717,-4.4193,-4.1498,-4.1615,-4.182,-4.0375,-3.9372,-3.8897,-3.9031,-4.0165,-4.1173,-4.1489,-4.4679,-4.7176,-4.678,-4.8449,-4.9273,-4.6985,-4.6539,-4.6113,2.5893,2.5881,2.6775,2.6406,2.5165,2.5165,2.5073,2.4672,2.4555,2.4179,2.3838,2.3598,2.3484,2.3635,2.3497,2.4385,2.6272,2.5785,2.6398,2.8138,2.8477,2.8979,2.9522,3.0628,3.1818,3.2966,3.7108,3.9337,4.0033,4.3503,4.5726,4.6564,4.7888,4.9337,5.0992,5.2507,5.4137,5.5536,5.902,6.3296,6.8388,7.0279,7.1814,7.3207,7.3324,7.3743,7.45,7.4956,7.5841,7.7041,7.6822,7.5885,7.4136,7.0109,0.0,0.0,0.0,0.0,0.0,0.0,0.0,0.0,0.0,4.1788,3.5268,0.0,2.6565,0.0,1.5778,0.7639,0.0455,0.2252,0.0,0.0,0.0152,-0.0461,0.2922,-0.3817,-0.5645,0.2671,-0.2904,-0.8583,-1.189,-0.4964,-0.5323,-2.0242,-3.0752,-3.6429,-3.552,-3.7145,-3.909,-3.981,-4.1881,-4.3526,-4.4067,-4.4072,-4.3198,-4.0576,-4.0754,-4.1055,-4.0992,-4.0972,-4.0875,-4.0828,-4.2325,-4.2947,-4.1646,-4.4762,-4.6999,-4.6336,-4.7363,-4.7613,-4.427,-4.475,-4.5378,2.4825,2.5099,2.8269,2.8455,2.6674,2.6661,2.5847,2.4649,2.4191,2.3023,2.1489,2.048,1.947,1.8664,2.1927,0.0,2.5505,2.7092,2.8021,2.8464,2.864,2.8979,2.998,3.1577,3.3458,3.592,3.9392,4.1459,4.2234,4.4556,4.5999,4.6318,4.9273,5.1334,5.2178,5.3869,5.4987,5.5268,5.8016,6.0712,6.3387,6.6641,6.9408,7.1523,7.2242,7.315,7.4264,7.5327,7.6409,7.7318,7.4234,7.2603,7.2751,0.0,0.0,0.0,0.0,0.0,0.0,0.0,0.0,0.0,0.0,0.0,0.0,0.0,0.0,2.2736,1.417,0.0,0.3506,0.2958,0.0,0.0,0.0,-0.2369,-0.7441,-0.1709,-0.0788,-0.9475,0.0,0.0,-0.5902,-1.4676,-2.4238,-3.5202,-3.5509,-3.5393,-3.7509,-4.0459,-4.2586,-4.2485,-4.4687,-4.56,-4.3941,-4.3683,-4.305,-4.1282,-4.2582,-4.3824,-4.3423,-4.3361,-4.3215,-4.2224,-4.2481,-4.2391,-4.1963,-4.2804,-4.3432,-4.3653,-4.4007,-4.4004,-4.2975,-4.3355,-4.4121,2.6305,2.5944,2.7321,2.7515,2.6941,2.706,2.6164,2.4611,2.4696,2.4145,2.3195,2.3213,2.3402,2.4061,2.6307,0.0,0.0,0.0,3.011,3.0427,3.0172,3.0734,3.1795,3.2483,3.3334,3.4369,3.7942,3.9972,4.0478,4.4024,4.614,4.6907,0.0,0.0,5.381,5.4364,5.5588,5.7499,5.8429,6.0199,6.2737,6.5612,6.8453,7.1239,7.2297,7.3455,7.4668,7.5981,7.5934,7.4209,7.2995,7.0722,0.0,0.0,0.0,0.0,0.0,0.0,0.0,0.0,0.0,0.0,0.0,3.4827,3.1368,0.0,0.0,0.0,0.9904,0.1541,-0.5453,-0.154,0.0,0.0,0.0,0.0,0.0,0.0,0.0,-1.0857,-0.9801,-1.151,-1.8733,-2.6832,-3.3134,-3.6068,-3.6642,-3.7192,-3.8341,0.0,-4.3732,-4.3344,-4.4132,-4.4597,-4.4071,-4.2418,-4.1784,-4.3603,-4.4528,-4.4316,-4.2923,-4.2342,-4.1422,-4.0197,-4.0753,-4.1595,-4.1029,-4.2121,-4.3168,-4.3653,-4.3354,-4.3256,-4.3812,-4.2866,-4.2698,2.8349,0.0,0.0,0.0,0.0,2.8753,2.8149,2.6544,2.6647,2.6559,2.6392,2.6435,0.0,0.0,0.0,0.0,0.0,0.0,3.1613,3.1224,3.1515,3.2134,3.3052,3.3462,3.3792,3.4193,3.7363,3.8999,3.965,4.449,4.7595,4.8578,0.0,0.0,0.0,0.0,5.6151,5.828,5.9277,6.0876,6.3192,6.5643,6.8063,7.0652,7.2554,7.4102,7.5425,7.5764,7.4673,7.2044,7.0236,0.0,0.0,0.0,0.0,0.0,0.0,0.0,0.0,0.0,0.0,0.0,0.0,0.0,0.0,0.0,0.0,0.0,0.0,0.0,-0.6536,-0.3031,-0.1376,0.0,0.0,0.0,0.0,0.0,0.0,0.0,0.0,0.0,-2.6313,-3.2783,-3.665,0.0,0.0,-3.987,-3.9592,-4.283,-4.4964,-4.3996,-4.3764,0.0,-4.341,-4.1971,-4.1767,-4.3618,-4.4187,-4.3729,-4.2086,-4.1384,-4.0412,-3.8722,-4.033,-4.1392,-3.9803,-4.0407,-4.1505,-4.2303,-4.2196,-4.2267,-4.3153,-4.2423,-4.1816,0.0,0.0,0.0,0.0,0.0,0.0,0.0,0.0,3.0829,3.0626,0.0,2.9605,0.0,0.0,0.0,0.0,0.0,3.2692,0.0,0.0,3.2084,3.297,3.3243,3.4609,3.5777,3.652,3.8399,3.9732,4.057,4.6733,0.0,0.0,0.0,0.0,0.0,0.0,5.6708,5.6789,6.03,6.2873,6.4399,6.6484,6.8128,6.9312,7.2663,7.5112,7.6322,7.4195,7.267,7.1824,6.4988,0.0,0.0,0.0,0.0,0.0,0.0,0.0,0.0,0.0,0.0,0.0,0.0,0.0,0.0,0.0,0.0,0.0,0.0,0.0,0.0,0.0525,0.0,0.0,0.0,0.0,0.0,0.0,0.0,0.0,0.0,0.0,-2.3311,-2.9627,-3.4321,-3.7537,0.0,0.0,0.0,0.0,-4.6511,-4.4791,-4.4543,-4.3653,-4.1385,-4.3564,-4.396,-3.9593,0.0,0.0,-4.2078,-4.1675,-4.1088,-4.0638,-4.1962,-4.2202,-3.7792,-3.7044,-3.7449,-3.8705,-3.9562,-4.0054,-4.0273,-4.0769,-4.1511,0.0,0.0,0.0,0.0,0.0,0.0,0.0,0.0,0.0,3.1447,0.0,3.1243,0.0,0.0,0.0,0.0,0.0,0.0,0.0,0.0,3.4808,3.5469,3.7675,3.7365,3.7991,0.0,4.1805,4.3242,0.0,0.0,0.0,0.0,0.0,0.0,0.0,0.0,5.6387,5.7484,5.8981,6.0455,6.201,6.5216,6.7332,6.8169,7.099,7.2634,7.2886,7.1357,6.9164,0.0,0.0,0.0,0.0,0.0,0.0,0.0,0.0,0.0,0.0,0.0,0.0,0.0,0.0,0.0,0.0,0.0,0.0,0.0,0.0,0.0,0.0,0.0,-0.2591,0.0,0.0,0.0,0.0,0.0,0.0,0.0,0.0,0.0,-2.0243,-2.9419,-3.6129,-3.684,-4.2901,-4.616,-4.3248,0.0,0.0,0.0,0.0,0.0,0.0,0.0,-4.0852,-4.0082,-4.0566,-4.1404,-4.2614,-4.0877,-3.8921,-3.7219,0.0,0.0,-3.4608,-3.54,-3.6409,-3.6245,-3.7116,-3.7859,-3.7255,-3.7294,-3.7793,0.0,0.0,0.0,0.0,0.0,0.0,0.0,0.0,0.0,3.4186,3.4077,0.0,0.0,0.0,0.0,0.0,0.0,0.0,0.0,0.0,0.0,0.0,4.1316,4.0355,0.0,0.0,0.0,0.0,0.0,0.0,0.0,0.0,0.0,0.0,0.0,0.0,5.5632,5.6916,5.8283,5.9542,6.1041,6.4784,6.7332,6.8577,7.073,7.2077,7.2215,0.0,0.0,0.0,0.0,0.0,0.0,0.0,0.0,0.0,0.0,0.0,0.0,0.0,0.0,0.0,0.0,0.0,0.0,0.0,0.0,0.0,0.0,0.0,0.0,0.0,-0.1336,0.0,0.0,0.0,0.0,0.0,0.0,0.0,0.0,0.0,0.0,0.0,-3.4378,-3.5737,-4.2332,-4.6084,-4.3847,-4.7033,-4.9386,0.0,0.0,0.0,0.0,0.0,0.0,0.0,0.0,0.0,0.0,0.0,0.0,0.0,0.0,-3.1407,-3.0967,-3.2146,-3.3149,-3.2897,0.0,0.0,0.0,0.0,0.0,0.0,0.0,0.0,0.0,0.0,0.0,0.0,0.0,0.0,0.0,3.9255,0.0,0.0,3.852,0.0,0.0,0.0,0.0,0.0,0.0,0.0,0.0,0.0,0.0,0.0,0.0,0.0,0.0,0.0,0.0,0.0,0.0,0.0,0.0,0.0,0.0,5.4499,5.5093,5.8426,6.0651,6.1547,6.5315,6.8218,7.0175,7.2102,7.3586,7.4634,0.0,0.0,0.0,0.0,0.0,0.0,0.0,0.0,0.0,0.0,0.0,0.0,0.0,0.0,0.0,0.0,0.0,0.0,0.0,0.0,0.0,0.0,0.0,0.0,0.0,0.0,-0.0917,-0.2886,-0.4153,0.0,0.0,0.0,0.0,0.0,0.0,0.0,0.0,0.0,0.0,-3.9433,-4.2871,-4.3543,-4.5964,-4.778,-4.788,-4.5816,-4.4636,-4.5951,-4.5755,-4.4493,0.0,0.0,0.0,0.0,0.0,0.0,0.0,0.0,0.0,0.0,0.0,0.0,0.0,0.0,0.0,0.0,0.0,0.0,0.0,0.0,0.0,0.0,0.0,0.0,0.0,0.0,0.0,0.0,0.0,0.0,0.0,0.0,0.0,0.0,0.0,0.0,0.0,0.0,0.0,0.0,0.0,0.0,0.0,0.0,0.0,0.0,0.0,0.0,0.0,0.0,0.0,0.0,0.0,0.0,5.4984,5.4171,5.8375,6.0582,6.0639,6.3745,6.6675,6.9245,6.8227,6.9566,0.0,0.0,0.0,0.0,0.0,0.0,0.0,0.0,0.0,0.0,0.0,0.0,0.0,0.0,0.0,0.0,0.0,0.0,0.0,0.0,0.0,0.0,0.0,0.0,0.0,0.0,0.0,0.0,-0.1385,-0.3144,-0.4693,0.0,0.0,0.0,0.0,0.0,0.0,0.0,0.0,0.0,0.0,-4.3453,-4.4519,-4.5435,-4.6841,-4.8729,-4.6,-4.3807,-4.4483,-4.4297,-4.2896,-3.9608,0.0,0.0,0.0,0.0,0.0,0.0,0.0,0.0,0.0,0.0,0.0,0.0,0.0,0.0,0.0,0.0,0.0,0.0,0.0,0.0,0.0,0.0,0.0,0.0,0.0,0.0,0.0,0.0,0.0,0.0,0.0,0.0,0.0,0.0,0.0,0.0,0.0,0.0,0.0,0.0,0.0,0.0,0.0,0.0,0.0,0.0,0.0,0.0,0.0,0.0,0.0,0.0,0.0,5.4892,5.409,5.814,6.0254,6.0603,6.3704,6.6675,6.9481,6.7595,6.7902,0.0,0.0,0.0,0.0,0.0,0.0,0.0,0.0,0.0,0.0,0.0,0.0,0.0,0.0,0.0,0.0,0.0,0.0,0.0,0.0,0.0,0.0,0.0,0.0,0.0,0.0,0.0,0.0,0.0411,-0.1401,-0.3279,0.0,0.0,0.0,0.0,0.0,0.0,0.0,0.0,0.0,0.0,-3.975,-4.1763,-4.3008,0.0,0.0,-4.5437,-4.3845,-4.5136,-4.4459,-4.2637,-3.9381,-3.7557,0.0,0.0,0.0,0.0,0.0,0.0,0.0,0.0,0.0,0.0,0.0,0.0,0.0,0.0,0.0,0.0,0.0,0.0,0.0,0.0,0.0,0.0,0.0,0.0,0.0,0.0,0.0,0.0,0.0,0.0,0.0,0.0,0.0,0.0,0.0,0.0,0.0,0.0,0.0,0.0,0.0,0.0,0.0,0.0,0.0,0.0,0.0,0.0,0.0,0.0,0.0,0.0,0.0,5.4668,5.7918,6.0152,6.0971,6.4489,6.7603,7.0067,6.8972,6.7473,0.0,0.0,0.0,0.0,0.0,0.0,0.0,0.0,0.0,0.0,0.0,0.0,0.0,0.0,0.0,0.0,0.0,0.0,0.0,0.0,0.0,0.0,0.0,0.0,0.0,0.0,0.0,0.0,0.0,0.0,0.0,0.0,0.0,0.0,0.0,0.0,0.0,0.0,0.0,0.0,0.0,-3.3493,-3.6576,-3.9275,-4.1845,0.0,0.0,-4.4049,-4.6191,-4.516,-4.305,-3.9233,0.0,0.0,0.0,0.0,0.0,0.0,0.0,0.0,0.0,0.0,0.0,0.0,0.0,0.0,0.0,0.0,0.0,0.0,0.0,0.0,0.0,0.0,0.0,0.0,0.0,0.0,0.0,0.0,0.0,0.0,0.0,0.0,0.0,0.0,0.0,0.0,0.0,0.0,0.0,0.0,0.0,0.0,0.0,0.0,0.0,0.0,0.0,0.0,0.0,0.0,0.0,0.0,0.0,0.0,5.6262,5.9716,6.1497,6.1569,6.2411,6.4491,6.8126,6.4014,0.0,0.0,0.0,0.0,0.0,0.0,0.0,0.0,0.0,0.0,0.0,0.0,0.0,0.0,0.0,0.0,0.0,0.0,0.0,0.0,0.0,0.0,0.0,0.0,0.0,0.0,0.0,0.8135,0.0,0.0,0.0,0.0,0.0,0.0,0.0,0.0,0.0,0.0,0.0,0.0,0.0,0.0,-3.21,-3.708,-3.699,-3.7103,0.0,0.0,-3.9429,-3.709,-3.8487,-3.8326,0.0,0.0,0.0,0.0,0.0,0.0,0.0,0.0,0.0,0.0,0.0,0.0,0.0,0.0,0.0,0.0,0.0,0.0,0.0,0.0,0.0,0.0,0.0,0.0,0.0,0.0,0.0,0.0,0.0,0.0,0.0,0.0,0.0,0.0,0.0,0.0,0.0,0.0,0.0,0.0,0.0,0.0,0.0,0.0,0.0,0.0,0.0,0.0,0.0,0.0,0.0,0.0,0.0,0.0,5.8035,5.7113,6.0483,6.1662,6.0206,6.2167,6.436,6.6342,6.2879,6.2112,0.0,0.0,0.0,0.0,0.0,0.0,0.0,0.0,0.0,0.0,0.0,0.0,0.0,0.0,0.0,0.0,0.0,0.0,0.0,0.0,0.0,0.0,0.0,0.0,0.0,0.0,0.0,0.0,0.0,0.0,0.0,0.0,0.0,0.0,0.0,0.0,0.0,0.0,0.0,0.0,0.0,0.0,-3.3633,-3.2847,0.0,0.0,0.0,-3.4006,-3.1463,0.0,0.0,0.0,0.0,0.0,0.0,0.0,0.0,0.0,0.0,0.0,0.0,0.0,0.0,0.0,0.0,0.0,0.0,0.0,0.0,0.0,0.0,0.0,0.0,0.0,0.0,0.0,0.0,0.0,0.0,0.0,0.0,0.0,0.0,0.0,0.0,0.0,0.0,0.0,0.0,0.0,0.0,0.0,0.0,0.0,0.0,0.0,0.0,0.0,0.0,0.0,0.0,0.0,0.0,0.0,0.0,0.0,5.7287,6.0204,6.0427,5.8125,6.2514,6.5002,6.4775,6.3872,6.3795,0.0,0.0,0.0,0.0,0.0,0.0,0.0,0.0,0.0,0.0,0.0,0.0,0.0,0.0,0.0,0.0,0.0,0.0,0.0,0.0,0.0,0.0,0.0,0.0,0.0,0.0,0.0,0.0,0.0,0.0,0.0,0.0,0.0,0.0,0.0,0.0,0.0,0.0,0.0,0.0,0.0,-2.7046,-2.779,-2.7792,-2.7489,0.0,0.0,-2.8466,-2.7769,-2.9749,0.0,0.0,0.0,0.0,0.0,0.0,0.0,0.0,0.0,0.0,0.0,0.0,0.0,0.0,0.0,0.0,0.0,0.0,0.0,0.0,0.0,0.0,0.0,0.0,0.0,0.0,0.0,0.0,0.0,0.0,0.0,0.0,0.0,0.0,0.0,0.0,0.0,0.0,0.0,0.0,0.0,0.0,0.0,0.0,0.0,0.0,0.0,0.0,0.0,0.0,0.0,0.0,0.0,0.0,0.0,0.0,5.7018,5.7088,5.7334,5.7727,5.9527,6.1749,6.4483,6.4687,6.4567,0.0,0.0,0.0,0.0,0.0,0.0,0.0,0.0,0.0,0.0,0.0,0.0,0.0,0.0,0.0,0.0,0.0,0.0,0.0,0.0,0.0,0.0,0.0,0.0,0.0,0.0,0.0,0.0,0.0,0.0,0.0,0.0,0.0,0.0,0.0,0.0,0.0,0.0,0.0,0.0,0.0,-2.0369,-2.1026,-2.1779,0.0,0.0,0.0,0.0,-2.3171,-2.25,0.0,0.0,0.0,0.0,0.0,0.0,0.0,0.0,0.0,0.0,0.0,0.0,0.0,0.0,0.0,0.0,0.0,0.0,0.0,0.0,0.0,0.0,0.0,0.0,0.0,0.0,0.0,0.0,0.0,0.0,0.0,0.0,0.0,0.0,0.0,0.0,0.0,0.0,0.0,0.0,0.0,0.0,0.0,0.0,0.0,0.0,0.0,0.0,0.0,0.0,0.0,0.0,0.0,0.0,0.0,0.0,5.5315,5.5566,5.6154,5.7108,5.9573,6.1986,6.4278,6.5788,6.5453,0.0,0.0,0.0,0.0,0.0,0.0,0.0,0.0,0.0,0.0,0.0,0.0,0.0,0.0,0.0,0.0,0.0,0.0,0.0,0.0,0.0,0.0,0.0,0.0,0.0,0.0,0.0,0.0,0.0,0.0,0.0,0.0,0.0,0.0,0.0,0.0,0.0,0.0,0.0,0.0,-1.4398,-1.6565,-1.6699,0.0,0.0,0.0,0.0,0.0,0.0,-1.8605,-1.7594,0.0,0.0,0.0,0.0,0.0,0.0,0.0,0.0,0.0,0.0,0.0,0.0,0.0,0.0,0.0,0.0,0.0,0.0,0.0,0.0,0.0,0.0,0.0,0.0,0.0,0.0,0.0,0.0,0.0,0.0,0.0,0.0,0.0,0.0,0.0,0.0,0.0,0.0,0.0,0.0,0.0,0.0,0.0,0.0,0.0,0.0,0.0,0.0,0.0,0.0,0.0,0.0,0.0,0.0,0.0,5.3511,5.4906,5.58,5.6124,6.0409,6.3358,6.472,6.6955,6.6083,6.1871,0.0,0.0,0.0,0.0,0.0,0.0,0.0,0.0,0.0,0.0,0.0,0.0,0.0,0.0,0.0,0.0,0.0,0.0,0.0,0.0,0.0,0.0,0.0,0.0,0.0,0.0,0.0,0.0,0.0,0.0,0.0,0.0,0.0,0.0,0.0,0.0,0.0,0.0,0.0,-1.047,-1.2084,0.0,0.0,0.0,0.0,0.0,0.0,0.0,0.0,-1.4721,0.0,0.0,0.0,0.0,0.0,0.0,0.0,0.0,0.0,0.0,0.0,0.0,0.0,0.0,0.0,0.0,0.0,0.0,0.0,0.0,0.0,0.0,0.0,0.0,0.0,0.0,0.0,0.0,0.0,0.0,0.0,0.0,0.0,0.0,0.0,0.0,0.0,0.0,0.0,0.0,0.0,0.0,0.0,0.0,0.0,0.0,0.0,0.0,0.0,0.0,0.0,0.0,0.0,0.0,0.0,0.0,5.528,5.5663,5.513,5.9814,6.3916,6.6861,6.7543,6.5554,6.0746,0.0,0.0,0.0,0.0,0.0,0.0,0.0,0.0,0.0,0.0,0.0,0.0,0.0,0.0,0.0,0.0,0.0,0.0,0.0,0.0,0.0,0.0,0.0,0.0,0.0,0.0,0.0,0.0,0.0,0.0,0.0,0.0,0.0,0.0,0.0,0.0,0.0,0.0,0.1065,-0.1062,0.0,0.0,0.0,0.0,0.0,0.0,0.0,0.0,-1.0066,0.0,0.0,0.0,0.0,0.0,0.0,0.0,0.0,0.0,0.0,0.0,0.0,0.0,0.0,0.0,0.0,0.0,0.0,0.0,0.0,0.0,0.0,0.0,0.0,0.0,0.0,0.0,0.0,0.0,0.0,0.0,0.0,0.0,0.0,0.0,0.0,0.0,0.0,0.0,0.0,0.0,0.0,0.0,0.0,0.0,0.0,0.0,0.0,0.0,0.0,0.0,0.0,0.0,0.0,0.0,0.0,0.0,0.0,5.642,5.7164,6.1137,6.4951,6.8287,6.688,6.4787,0.0,0.0,0.0,0.0,0.0,0.0,0.0,0.0,0.0,0.0,0.0,0.0,0.0,0.0,0.0,0.0,0.0,0.0,0.0,0.0,0.0,0.0,0.0,0.0,0.0,0.0,0.0,0.0,0.0,0.0,0.0,0.0,0.0,0.0,0.0,0.0,0.0,0.0,0.0,0.0,0.0,0.0,0.0,0.0,0.0,0.0,0.0,0.0,0.0,0.0,0.0,0.0,0.0,0.0,0.0,0.0,0.0,0.0,0.0,0.0,0.0,0.0,0.0,0.0,0.0,0.0,0.0,0.0,0.0,0.0,0.0,0.0,0.0,0.0,0.0,0.0,0.0,0.0,0.0,0.0,0.0,0.0,0.0,0.0,0.0,0.0,0.0,0.0,0.0,0.0,0.0,0.0,0.0,0.0,0.0,0.0,0.0,0.0,0.0,0.0,0.0,0.0,0.0,0.0,0.0,0.0,0.0,0.0,5.9183,5.975,6.3516,6.7293,7.0764,6.6705,6.3956,0.0,0.0,0.0,0.0,0.0,0.0,0.0,0.0,0.0,0.0,0.0,0.0,0.0,0.0,0.0,0.0,0.0,0.0,0.0,0.0,0.0,0.0,0.0,0.0,0.0,0.0,0.0,0.0,0.0,0.0,0.0,0.0,0.0,0.0,0.0,0.0,0.0,0.0,0.0,0.0,0.0,0.0,0.0,0.0,0.0,0.0,0.0,0.0,-0.7929,0.0,0.0,0.0,0.0,0.0,0.0,0.0,0.0,0.0,0.0,0.0,0.0,0.0,0.0,0.0,0.0,0.0,0.0,0.0,0.0,0.0,0.0,0.0,0.0,0.0,0.0,0.0,0.0,0.0,0.0,0.0,0.0,0.0,0.0,0.0,0.0,0.0,0.0,0.0,0.0,0.0,0.0,0.0,0.0,0.0,0.0,0.0,0.0,0.0,0.0,0.0,0.0,0.0,0.0,0.0,0.0,0.0,0.0,0.0,6.5824,6.1207,6.7399,7.2142,7.48,6.8453,6.3178,0.0,0.0,0.0,0.0,0.0,0.0,0.0,0.0,0.0,0.0,0.0,0.0,0.0,0.0,0.0,0.0,0.0,0.0,0.0,0.0,0.0,0.0,0.0,0.0,0.0,0.0,0.0,0.0,0.0,0.0,0.0,0.0,0.0,0.0,0.0,0.0,0.0,0.0,0.0,0.0,0.0,0.0,0.0,0.0,0.0,0.0,0.0,0.0,0.0,0.0,0.0,0.0,0.0,0.0,0.0,0.0,0.0,0.0,0.0,0.0,0.0,0.0,0.0,0.0,0.0,0.0,0.0,0.0,0.0,0.0,0.0,0.0,0.0,0.0,0.0,0.0,0.0,0.0,0.0,0.0,0.0,0.0,0.0,0.0,0.0,0.0,0.0,0.0,0.0,0.0,0.0,0.0,0.0,0.0,0.0,0.0,0.0,0.0,0.0,0.0,0.0,0.0,0.0,0.0,0.0,0.0,0.0,0.0,6.4243,6.3576,6.7548,7.051,7.2161,6.6169,6.2348,0.0,0.0,0.0,0.0,0.0,0.0,0.0,0.0,0.0,0.0,0.0,0.0,0.0,0.0,0.0,0.0,0.0,0.0,0.0,0.0,0.0,0.0,0.0,0.0,0.0,0.0,0.0,0.0,0.0,0.0,0.0,0.0,0.0,0.0,0.0,0.0,0.0,0.0,0.0,0.0,0.0,0.0,0.0,0.0,0.0,0.0,0.0,0.0,0.0,0.0,0.0,0.0,0.0,0.0,0.0,0.0,0.0,0.0,0.0,0.0,0.0,0.0,0.0,0.0,0.0,0.0,0.0,0.0,0.0,0.0,0.0,0.0,0.0,0.0,0.0,0.0,0.0,0.0,0.0,0.0,0.0,0.0,0.0,0.0,0.0,0.0,0.0,0.0,0.0,0.0,0.0,0.0,0.0,0.0,0.0,0.0,0.0,0.0,0.0,0.0,0.0,0.0,0.0,0.0,0.0,0.0,0.0,0.0,0.0,6.4796,6.6545,6.7725,6.8113,6.3796,6.1418,0.0,0.0,0.0,0.0,0.0,0.0,0.0,0.0,0.0,0.0,0.0,0.0,0.0,0.0,0.0,0.0,0.0,0.0,0.0,0.0,0.0,0.0,0.0,0.0,0.0,0.0,0.0,0.0,0.0,0.0,0.0,0.0,0.0,0.0,0.0,0.0,0.0,0.0,0.0,0.0,0.0,0.0,0.0,0.0,0.0,0.0,0.0,0.0,0.0,0.0,0.0,0.0,0.0,0.0,0.0,0.0,0.0,0.0,0.0,0.0,0.0,0.0,0.0,0.0,0.0,0.0,0.0,0.0,0.0,0.0,0.0,0.0,0.0,0.0,0.0,0.0,0.0,0.0,0.0,0.0,0.0,0.0,0.0,0.0,0.0,0.0,0.0,0.0,0.0,0.0,0.0,0.0,0.0,0.0,0.0,0.0,0.0,0.0,0.0,0.0,0.0,0.0,0.0,0.0,0.0,0.0,0.0,0.0,0.0,6.4093,6.461,6.4886,6.4784,6.2562,6.0309,0.0,0.0,0.0,0.0,0.0,0.0,0.0,0.0,0.0,0.0,0.0,0.0,0.0,0.0,0.0,0.0,0.0,0.0,0.0,0.0,0.0,0.0,0.0,0.0,0.0,0.0,0.0,0.0,0.0,0.0,0.0,0.0,0.0,0.0,0.0,0.0,0.0,0.0,0.0,0.0,0.0,0.0,0.0,0.0,0.0,0.0,0.0,0.0,0.0,0.0,0.0,0.0,0.0,0.0,0.0,0.0,0.0,0.0,0.0,0.0,0.0,0.0,0.0,0.0,0.0,0.0,0.0,0.0,0.0,0.0,0.0,0.0,0.0,0.0,0.0,0.0,0.0,0.0,0.0,0.0,0.0,0.0,0.0,0.0,0.0,0.0,0.0,0.0,0.0,0.0,0.0,0.0,0.0,0.0,0.0,0.0,0.0,0.0,0.0,0.0,0.0,0.0,0.0,0.0,0.0,0.0,0.0,0.0,0.0,6.1335,6.1471,6.1411,6.113,5.9752,5.9001,5.9032,0.0,0.0,0.0,0.0,0.0,0.0,0.0,0.0,0.0,0.0,0.0,0.0,0.0,0.0,0.0,0.0,0.0,0.0,0.0,0.0,0.0,0.0,0.0,0.0,0.0,0.0,0.0,0.0,0.0,0.0,0.0,0.0,0.0,0.0,0.0,0.0,0.0,0.0,0.0,0.0,0.0,0.0,0.0,0.0,0.0,0.0,0.0,0.0,0.0,0.0,0.0,0.0,0.0,0.0,0.0,0.0,0.0,0.0,0.0,0.0,0.0,0.0,0.0,0.0,0.0,0.0,0.0,0.0,0.0,0.0,0.0,0.0,0.0,0.0,0.0,0.0,0.0,0.0,0.0,0.0,0.0,0.0,0.0,0.0,0.0,0.0,0.0,0.0,0.0,0.0,0.0,0.0,0.0,0.0,0.0,0.0,0.0,0.0,0.0,0.0,0.0,0.0,0.0,0.0,0.0,0.0,0.0,0.0,6.0364,5.9859,5.9341,5.8889,5.807,5.8311,0.0,0.0,0.0,0.0,0.0,0.0,0.0,0.0,0.0,0.0,0.0,0.0,0.0,0.0,0.0,0.0,0.0,0.0,0.0,0.0,0.0,0.0,0.0,0.0,0.0,0.0,0.0,0.0,0.0,0.0,0.0,0.0,0.0,0.0,0.0,0.0,0.0,0.0,0.0,0.0,0.0,0.0,0.0,0.0,0.0,0.0,0.0,0.0,0.0,0.0,0.0,0.0,0.0,0.0,0.0,0.0,0.0,0.0,0.0,0.0,0.0,0.0,0.0,0.0,0.0,0.0,0.0,0.0,0.0,0.0,0.0,0.0,0.0,0.0,0.0,0.0,0.0,0.0,0.0,0.0,0.0,0.0,0.0,0.0,0.0,0.0,0.0,0.0,0.0,0.0,0.0,0.0,0.0,0.0,0.0,0.0,0.0,0.0,0.0,0.0,0.0,0.0,0.0,0.0,0.0,0.0,0.0,0.0,6.3598,6.1863,6.0237,5.9129,5.8533,5.8056,5.8223,0.0,0.0,0.0,0.0,0.0,0.0,0.0,0.0,0.0,0.0,0.0,0.0,0.0,0.0,0.0,0.0,0.0,0.0,0.0,0.0,0.0,0.0,0.0,0.0,0.0,0.0,0.0,0.0,0.0,0.0,0.0,0.0,0.0,0.0,0.0,0.0,0.0,0.0,0.0,0.0,0.0,0.0,0.0,0.0,0.0,0.0,0.0,0.0,0.0,0.0,0.0,0.0,0.0,0.0,0.0,0.0,0.0,0.0,0.0,0.0,0.0,0.0,0.0,0.0,0.0,0.0,0.0,0.0,0.0,0.0,0.0,0.0,0.0,0.0,0.0,0.0,0.0,0.0,0.0,0.0,0.0,0.0,0.0,0.0,0.0,0.0,0.0,0.0,0.0,0.0,0.0,0.0,0.0,0.0,0.0,0.0,0.0,0.0,0.0,0.0,0.0,0.0,0.0,0.0,0.0,0.0,0.0,0.0,0.0,6.5283,0.0,5.9934,0.0,5.8783,5.9372,0.0,0.0,0.0,0.0,0.0,0.0,0.0,0.0,0.0,0.0,0.0,0.0,0.0,0.0,0.0,0.0,0.0,0.0,0.0,0.0,0.0,0.0,0.0,0.0,0.0,0.0,0.0,0.0,0.0,0.0,0.0,0.0,0.0,0.0,0.0,0.0,0.0,0.0,0.0,0.0,0.0,0.0,0.0,0.0,0.0,0.0,0.0,0.0,0.0,0.0,0.0,0.0,0.0,0.0,0.0,0.0,0.0,0.0,0.0,0.0,0.0,0.0,0.0,0.0,0.0,0.0,0.0,0.0,0.0,0.0,0.0,0.0,0.0,0.0,0.0,0.0,0.0,0.0,0.0,0.0,0.0,0.0,0.0,0.0,0.0,0.0,0.0,0.0,0.0,0.0,0.0,0.0,0.0,0.0,0.0,0.0,0.0,0.0,0.0,0.0,0.0,0.0,0.0,0.0,0.0,0.0,0.0,0.0,0.0,6.6076,6.4203,6.1805,5.899,5.9451,5.9938,0.0,0.0,0.0,0.0,0.0,0.0,0.0,0.0,0.0,0.0,0.0,0.0,0.0,0.0,0.0,0.0,0.0,0.0,0.0,0.0,0.0,0.0,0.0,0.0,0.0,0.0,0.0,0.0,0.0,0.0,0.0,0.0,0.0,0.0,0.0,0.0,0.0,0.0,0.0,0.0,0.0,0.0,0.0,0.0,0.0,0.0,0.0,0.0,0.0,0.0,0.0,0.0,0.0,0.0,0.0,0.0,0.0,0.0,0.0,0.0,0.0,0.0,0.0,0.0,0.0,0.0,0.0,0.0,0.0,0.0,0.0,0.0,0.0,0.0,0.0,0.0,0.0,0.0,0.0,0.0,0.0,0.0,0.0,0.0,0.0,0.0,0.0,0.0,0.0,0.0,0.0,0.0,0.0,0.0,0.0,0.0,0.0,0.0,0.0,0.0,0.0,0.0,0.0,0.0,0.0,0.0,0.0,0.0,0.0,0.0,6.5665,6.4327,6.0395,6.0145,5.9974,0.0,0.0,0.0,0.0,0.0,0.0,0.0,0.0,0.0,0.0,0.0,0.0,0.0,0.0,0.0,0.0,0.0,0.0,0.0,0.0,0.0,0.0,0.0,0.0,0.0,0.0,0.0,0.0,0.0,0.0,0.0,0.0,0.0,0.0,0.0,0.0,0.0,0.0,0.0,0.0,0.0,0.0,0.0,0.0,0.0,0.0,0.0,0.0,0.0,0.0,0.0,0.0,0.0,0.0,0.0,0.0,0.0,0.0,0.0,0.0,0.0,0.0,0.0,0.0,0.0,0.0,0.0,0.0,0.0,0.0,0.0,0.0,0.0,0.0,0.0,0.0,0.0,0.0,0.0,0.0,0.0,0.0,0.0,0.0,0.0,0.0,0.0,0.0,0.0,0.0,0.0,0.0,0.0,0.0,0.0,0.0,0.0,0.0,0.0,0.0,0.0,0.0,0.0,0.0,0.0,0.0,0.0,0.0,0.0,0.0,6.6777,0.0,6.2842,6.1282,6.0692,6.1159,0.0,0.0,0.0,0.0,0.0,0.0,0.0,0.0,0.0,0.0,0.0,0.0,0.0,0.0,0.0,0.0,0.0,0.0,0.0,0.0,0.0,0.0,0.0,0.0,0.0,0.0,0.0,0.0,0.0,0.0,0.0,0.0,0.0,0.0,0.0,0.0,0.0,0.0,0.0,0.0,0.0,0.0,0.0,0.0,0.0,0.0,0.0,0.0,0.0,0.0,0.0,0.0,0.0,0.0,0.0,0.0,0.0,0.0,0.0,0.0,0.0,0.0,0.0,0.0,0.0,0.0,0.0,0.0,0.0,0.0,0.0,0.0,0.0,0.0,0.0,0.0,0.0,0.0,0.0,0.0,0.0,0.0,0.0,0.0,0.0,0.0,0.0,0.0,0.0,0.0,0.0,0.0,0.0,0.0,0.0,0.0,0.0,0.0,0.0,0.0,0.0,0.0,0.0,0.0,0.0,0.0,0.0,0.0,0.0,0.0,0.0,6.295,6.2189,6.1719,0.0,0.0,0.0,0.0,0.0,0.0,0.0,0.0,0.0,0.0,0.0,0.0,0.0,0.0,0.0,0.0,0.0,0.0,0.0,0.0,0.0,0.0,0.0,0.0,0.0,0.0,0.0,0.0,0.0,0.0,0.0,0.0,0.0,0.0,0.0,0.0,0.0,0.0,0.0,0.0,0.0,0.0,0.0,0.0,0.0,0.0,0.0,0.0,0.0,0.0,0.0,0.0,0.0,0.0,0.0,0.0,0.0,0.0,0.0,0.0,0.0,0.0,0.0,0.0,0.0,0.0,0.0,0.0,0.0,0.0,0.0,0.0,0.0,0.0,0.0,0.0,0.0,0.0,0.0,0.0,0.0,0.0,0.0,0.0,0.0,0.0,0.0,0.0,0.0,0.0,0.0,0.0,0.0,0.0,0.0,0.0,0.0,0.0,0.0,0.0,0.0,0.0,0.0,0.0,0.0,0.0,0.0,0.0,0.0,0.0,0.0,6.659,6.2028,6.2771,0.0,6.1495,0.0,0.0,0.0,0.0,0.0,0.0,0.0,0.0,0.0,0.0,0.0,0.0,0.0,0.0,0.0,0.0,0.0,0.0,0.0,0.0,0.0,0.0,0.0,0.0,0.0,0.0,0.0,0.0,0.0,0.0,0.0,0.0,0.0,0.0,0.0,0.0,0.0,0.0,0.0,0.0,0.0,0.0,0.0,0.0,0.0,0.0,0.0,0.0,0.0,0.0,0.0,0.0,0.0,0.0,0.0,0.0,0.0,0.0,0.0,0.0,0.0,0.0,0.0,0.0,0.0,0.0,0.0,0.0,0.0,0.0,0.0,0.0,0.0,0.0,0.0,0.0,0.0,0.0,0.0,0.0,0.0,0.0,0.0,0.0,0.0,0.0,0.0,0.0,0.0,0.0,0.0,0.0,0.0,0.0,0.0,0.0,0.0,0.0,0.0,0.0,0.0,0.0,0.0,0.0,0.0,0.0,0.0,0.0,0.0,0.0,0.0,0.0,6.2515,6.1237,5.9651,0.0,0.0,0.0,0.0,0.0,0.0,0.0,0.0,0.0,0.0,0.0,0.0,0.0,0.0,0.0,0.0,0.0,0.0,0.0,0.0,0.0,0.0,0.0,0.0,0.0,0.0,0.0,0.0,0.0,0.0,0.0,0.0,0.0,0.0,0.0,0.0,0.0,0.0,0.0,0.0,0.0,0.0,0.0,0.0,0.0,0.0,0.0,0.0,0.0,0.0,0.0,0.0,0.0,0.0,0.0,0.0,0.0,0.0,0.0,0.0,0.0,0.0,0.0,0.0,0.0,0.0,0.0,0.0,0.0,0.0,0.0,0.0,0.0,0.0,0.0,0.0,0.0,0.0,0.0,0.0,0.0,0.0,0.0,0.0,0.0,0.0,0.0,0.0,0.0,0.0,0.0,0.0,0.0,0.0,0.0,0.0,0.0,0.0,0.0,0.0,0.0,0.0,0.0,0.0,0.0,0.0,0.0,0.0,0.0,0.0,6.5692,6.3972,6.2463,6.0773,5.9111,0.0,0.0,0.0,0.0,0.0,0.0,0.0,0.0,0.0,0.0,0.0,0.0,0.0,0.0,0.0,0.0,0.0,0.0,0.0,0.0,0.0,0.0,0.0,0.0,0.0,0.0,0.0,0.0,0.0,0.0,0.0,0.0,0.0,0.0,0.0,0.0,0.0,0.0,0.0,0.0,0.0,0.0,0.0,0.0,0.0,0.0,0.0,0.0,0.0,0.0,0.0,0.0,0.0,0.0,0.0,0.0,0.0,0.0,0.0,0.0,0.0,0.0,0.0,0.0,0.0,0.0,0.0,0.0,0.0,0.0,0.0,0.0,0.0,0.0,0.0,0.0,0.0,0.0,0.0,0.0,0.0,0.0,0.0,0.0,0.0,0.0,0.0,0.0,0.0,0.0,0.0,0.0,0.0,0.0,0.0,0.0,0.0,0.0,0.0,0.0,0.0,0.0,0.0,0.0,0.0,0.0,0.0,0.0,0.0,0.0,0.0,0.0,0.0,0.0,5.9181,0.0,0.0,0.0,0.0,0.0,0.0,0.0,0.0,0.0,0.0,0.0,0.0,0.0,0.0,0.0,0.0,0.0,0.0,0.0,0.0,0.0,0.0,0.0,0.0,0.0,0.0,0.0,0.0,0.0,0.0,0.0,0.0,0.0,0.0,0.0,0.0,0.0,0.0,0.0,0.0,0.0,0.0,0.0,0.0,0.0,0.0,0.0,0.0,0.0,0.0,0.0,0.0,0.0,0.0,0.0,0.0,0.0,0.0,0.0,0.0,0.0,0.0,0.0,0.0,0.0,0.0,0.0,0.0,0.0,0.0,0.0,0.0,0.0,0.0,0.0,0.0,0.0,0.0,0.0,0.0,0.0,0.0,0.0,0.0,0.0,0.0,0.0,0.0,0.0,0.0,0.0,0.0,0.0,0.0,0.0,0.0,0.0,0.0,0.0,0.0,0.0,0.0,0.0,0.0,0.0,0.0,0.0,0.0,0.0,0.0,0.0,0.0,0.0,0.0,0.0,0.0,0.0,0.0,0.0,0.0,0.0,0.0,0.0,0.0,0.0,0.0,0.0,0.0,0.0,0.0,0.0,0.0,0.0,0.0,0.0,0.0,0.0,0.0,0.0,0.0,0.0,0.0,0.0,0.0,0.0,0.0,0.0,0.0,0.0,0.0,0.0,0.0,0.0,0.0,0.0,0.0,0.0,0.0,0.0,0.0,0.0,0.0,0.0,0.0,0.0,0.0,0.0,0.0,0.0,0.0,0.0,0.0,0.0,0.0,0.0,0.0,0.0,0.0,0.0,0.0,0.0,0.0,0.0,0.0,0.0,0.0,0.0,0.0,0.0,0.0,0.0,0.0,0.0,0.0,0.0,0.0,0.0,0.0,0.0,0.0,0.0,0.0,0.0,0.0,0.0,0.0,0.0,0.0,0.0,0.0,0.0,0.0,0.0,0.0,0.0,0.0,0.0,0.0,0.0,0.0,0.0,0.0,0.0,0.0,0.0,0.0,0.0,0.0,0.0,0.0,0.0,0.0,0.0,0.0,0.0,0.0,0.0,0.0,0.0,0.0,0.0,0.0,0.0,0.0,0.0,0.0,0.0,0.0,0.0,0.0,0.0,0.0,0.0,0.0,0.0,0.0,0.0,0.0,0.0,0.0,0.0,0.0,0.0,0.0,0.0,0.0,0.0,0.0,0.0,0.0,0.0,0.0,0.0,0.0,0.0,0.0,0.0,0.0,0.0,0.0,0.0,0.0,0.0,0.0,0.0,0.0,0.0,0.0,0.0,0.0,0.0,0.0,0.0,0.0,0.0,0.0,0.0,0.0,0.0,0.0,0.0,0.0,0.0,0.0,0.0,0.0,0.0,0.0,0.0,0.0,0.0,0.0,0.0,0.0,0.0,0.0,0.0,0.0,0.0,0.0,0.0,0.0,0.0,0.0,0.0,0.0,0.0,0.0,0.0,0.0,0.0,0.0,0.0,0.0,0.0,0.0,0.0,0.0,0.0,0.0,0.0,0.0,0.0,0.0,0.0,0.0,0.0,0.0,0.0,0.0,0.0,0.0,0.0,0.0,0.0,0.0,0.0,0.0,0.0,0.0,0.0,0.0,0.0,0.0,0.0,0.0,0.0,0.0,0.0,0.0,0.0,0.0,0.0,0.0,0.0,0.0,0.0,0.0,0.0,0.0,0.0,0.0,0.0,0.0,0.0,0.0,0.0,0.0,0.0,0.0,0.0,0.0,0.0,0.0,0.0,0.0,0.0,0.0,0.0,0.0,0.0,0.0,0.0,0.0,0.0,0.0,0.0,0.0,0.0,0.0,0.0,0.0,0.0,0.0,0.0,0.0,0.0,0.0,0.0,0.0,0.0,0.0,0.0,0.0,0.0,0.0,0.0,0.0,0.0,0.0,0.0,0.0,0.0,0.0,0.0,0.0,0.0,0.0,0.0,0.0,0.0,0.0,0.0,0.0,0.0,0.0,0.0,0.0,0.0,0.0,0.0,0.0,0.0,0.0,0.0,0.0,0.0,0.0,0.0,0.0,0.0,0.0,0.0,0.0,0.0,0.0,0.0,0.0,0.0,0.0,0.0,0.0,0.0,0.0,0.0,0.0,0.0,0.0,0.0,0.0,0.0,0.0,0.0,0.0,0.0,0.0,0.0,0.0,0.0,0.0,0.0,0.0,0.0,0.0,0.0,0.0,0.0,0.0,0.0,0.0,0.0,0.0,0.0,0.0,0.0,0.0,0.0,0.0,0.0,0.0,0.0,0.0,0.0,0.0,0.0,0.0,0.0,0.0,0.0,0.0,0.0,0.0,0.0,0.0,0.0,0.0,0.0,0.0,0.0,0.0,0.0,0.0,0.0,0.0,0.0,0.0,0.0,0.0,0.0,0.0,0.0,0.0,0.0,0.0,0.0,0.0,0.0,0.0,0.0,0.0,0.0,0.0,0.0,0.0,0.0,0.0,0.0,0.0,0.0,0.0,0.0,0.0,0.0,0.0,0.0,0.0,0.0,0.0,0.0,0.0,0.0,0.0,0.0,0.0,0.0,0.0,0.0,0.0,0.0,0.0,0.0,0.0,0.0,0.0,0.0,0.0,0.0,0.0,0.0,0.0,0.0,0.0,0.0,0.0,0.0,0.0,0.0,0.0,0.0,0.0,0.0,0.0,0.0,0.0,0.0,0.0,0.0,0.0,0.0,0.0,0.0,0.0,0.0,0.0,0.0,0.0,0.0,0.0,0.0,0.0,0.0,0.0,0.0,0.0,0.0,0.0,0.0,0.0,0.0,0.0,0.0,0.0,0.0,0.0,0.0,0.0,0.0,0.0,0.0,0.0,0.0,0.0,0.0,0.0,0.0,0.0,0.0,0.0,0.0,0.0,0.0,0.0,0.0,0.0,0.0,0.0,0.0,0.0,0.0,0.0,0.0,0.0,0.0,0.0,0.0,0.0,0.0,0.0,0.0,0.0,0.0,0.0,0.0,0.0,0.0,0.0,0.0,0.0,0.0,0.0,0.0,0.0,0.0,0.0,0.0,0.0,0.0,0.0,0.0,0.0,0.0,0.0,0.0,0.0,0.0,0.0,0.0,0.0,0.0,0.0,0.0,0.0,0.0,0.0,0.0,0.0,0.0,0.0,0.0,0.0,0.0,0.0,0.0,0.0,0.0,0.0,0.0,0.0,0.0,0.0,0.0,0.0,0.0,0.0,0.0,0.0,0.0,0.0,0.0,0.0,0.0,0.0,0.0,0.0,0.0,0.0,0.0,0.0,0.0,0.0,0.0,0.0,0.0,0.0,0.0,0.0,0.0,0.0,0.0,0.0,0.0,0.0,0.0,0.0,0.0,0.0,0.0,0.0,0.0,0.0,0.0,0.0,0.0,0.0,0.0,0.0,0.0,0.0,0.0,0.0,0.0,0.0,0.0,0.0,0.0,0.0,0.0,0.0,0.0,0.0,0.0,0.0,0.0,0.0,0.0,0.0,0.0,0.0,0.0,0.0,0.0,0.0,0.0,0.0,0.0,0.0,0.0,0.0,0.0,0.0,0.0,0.0,0.0,0.0,0.0,0.0,0.0,0.0,0.0,0.0,0.0,0.0,0.0,0.0,0.0,0.0,0.0,0.0,0.0,0.0,0.0,0.0,0.0,0.0,0.0,0.0,0.0,0.0,0.0,0.0,0.0,0.0,0.0,0.0,0.0,0.0,0.0,0.0,0.0,0.0,0.0,0.0,0.0,0.0,0.0,0.0,0.0,0.0,0.0,0.0,0.0,0.0,0.0,0.0,0.0,0.0,0.0,0.0,0.0,0.0,0.0,0.0,0.0,0.0,0.0,0.0,0.0,0.0,0.0,0.0,0.0,0.0,0.0,0.0,0.0,0.0,0.0,0.0,0.0,0.0,0.0,0.0,0.0,0.0,0.0,0.0,0.0,0.0,0.0,0.0,0.0,0.0,0.0,0.0,0.0,0.0,0.0,0.0,0.0,0.0,0.0,0.0,0.0,0.0,0.0,0.0,0.0,0.0,0.0,0.0,0.0,0.0,0.0,0.0,0.0,0.0,0.0,0.0,0.0,0.0,0.0,0.0,0.0,0.0,0.0,0.0,0.0,0.0,0.0,0.0,0.0,0.0,0.0,0.0,0.0,0.0,0.0,0.0,0.0,0.0,0.0,0.0,0.0,0.0,0.0,0.0,0.0,0.0,0.0,0.0,0.0,0.0,0.0,0.0,0.0,0.0,0.0,0.0,0.0,0.0,0.0,0.0,0.0,0.0,0.0,0.0,0.0,0.0,0.0,0.0,0.0,0.0,0.0,0.0,0.0,0.0,0.0,0.0,0.0,0.0,0.0,0.0,0.0,0.0,0.0,0.0,0.0,0.0]}],[{"header":{"parameterUnit":"kt","parameterCategory":2,"dx":1,"dy":1,"la1":29.587661999999998,"la2":31.0,"lo1":-88.76705300000003,"lo2":-86.6583820000003,"nx":115,"ny":88,"refTime":"2022-10-12T18:00:00:Z","depth":0,"parameterNumber":2,"parameterNumberName":"V-component_of_WINDS"},"data":[9.4762,9.4728,9.5366,9.5559,9.5386,9.5824,9.6297,9.6559,9.6486,9.6632,9.6904,9.6725,9.6594,9.6537,9.6779,9.6633,9.6114,9.5441,9.4683,9.3757,9.2192,9.1636,9.0721,8.8828,8.7825,8.6035,8.4124,8.2315,8.0977,8.0401,7.9552,7.7498,7.7284,7.7646,7.7146,7.7705,7.7235,7.5666,7.5071,7.5698,7.5981,7.4122,7.2263,7.1744,7.0704,7.0984,7.0524,6.8389,6.8389,6.8415,6.8308,6.8081,6.8022,6.8563,6.8672,6.917,7.0117,7.0357,7.0028,7.003,6.8845,6.7212,6.5181,6.3883,6.2723,6.1441,6.0138,5.9515,5.9491,5.7827,5.6827,5.7696,5.7696,5.7184,5.7472,5.8271,5.9068,5.9353,6.0091,6.0519,6.0346,5.9931,5.9771,6.0692,6.2512,6.3411,6.4067,6.4178,6.4212,6.5303,6.6367,6.6944,6.7475,6.9062,7.1055,7.1648,7.1667,7.2487,7.3352,7.1458,7.006,6.9087,6.8119,6.667,6.1347,5.6576,5.3221,5.412,4.7538,4.4533,3.6394,3.2055,3.3886,3.5811,3.6034,9.4195,9.4231,9.4798,9.5132,9.5386,9.5386,9.5603,9.5895,9.5812,9.5945,9.6078,9.5994,9.6055,9.621,9.648,9.6269,9.5799,9.5018,9.4231,9.3225,9.1842,9.0505,8.8892,8.7098,8.5849,8.4355,8.2978,8.1324,7.9258,7.8563,7.7166,7.4243,7.3986,7.4642,7.0598,7.1332,7.4385,7.2322,7.1607,7.2775,7.1553,6.9303,6.8941,6.9542,6.9959,6.9178,6.8071,6.7,6.7025,6.6863,6.6539,6.6325,6.6515,6.6275,6.6603,6.6716,6.746,6.7929,6.7889,6.7251,6.5988,6.4473,6.1918,6.0274,5.8913,5.7603,5.5984,5.576,5.6555,5.5845,5.458,5.4196,5.3831,5.3506,5.4565,5.56,5.6388,5.6972,5.8182,5.9364,5.8885,5.8248,5.8204,5.8403,5.9596,6.0685,6.1096,6.1153,6.1472,6.2455,6.3664,6.4384,6.6476,6.8494,7.0147,7.0365,6.9925,7.0292,6.8767,6.4949,6.2584,6.4088,6.3918,6.1109,5.8793,5.557,5.2203,4.8083,4.6636,4.4893,3.8298,3.3734,3.4966,3.4011,3.4386,9.3864,9.4122,9.4692,9.4967,9.4895,9.4827,9.4994,9.5213,9.5156,9.4994,9.4827,9.4963,9.5096,9.5199,9.5487,9.5322,9.4823,9.423,9.3571,9.2625,9.1148,8.9444,8.8198,8.7137,8.515,8.3217,8.213,8.0248,7.7587,7.6623,7.4785,7.1183,7.1034,7.0324,6.6487,6.7036,6.8747,6.8415,6.6739,6.7155,6.7834,6.666,6.6199,6.5333,6.5874,6.5572,6.4632,6.4632,6.5013,6.5368,6.4872,6.4687,6.3802,6.3102,6.2593,6.2826,6.3526,6.43,6.4002,6.3203,6.1817,6.0856,5.9048,5.7472,5.6016,5.3425,5.1985,5.2852,5.3669,5.3099,5.1808,5.2218,5.2032,5.2072,5.2912,5.3547,5.4119,5.4465,5.5145,5.6033,5.5538,5.488,5.4796,5.4998,5.5793,5.6835,5.7891,5.7785,5.8503,5.9183,6.0653,6.2385,6.6282,6.8842,6.9138,6.8767,6.8513,6.672,6.5237,6.2805,6.1335,6.1125,5.8804,5.4102,5.1076,5.0802,4.9504,4.5494,4.3487,4.2601,3.8881,3.4716,3.3318,3.1861,3.2038,9.3444,9.3902,9.4587,9.4798,9.4516,9.4516,9.4551,9.469,9.4551,9.4195,9.3864,9.4231,9.4446,9.4516,9.4859,9.4755,9.4195,9.3721,9.2866,9.2081,9.1252,8.9608,8.7486,8.6294,8.4291,8.2343,8.082,7.9562,7.7146,7.4843,7.2387,6.74,6.7791,6.4809,6.003,6.4934,6.5332,6.4622,6.3075,6.2599,6.5194,6.5103,6.368,6.3464,6.3103,6.3296,6.3823,6.3488,6.3991,6.3991,6.3512,6.2364,6.0742,5.909,5.827,5.8214,5.9047,6.003,5.9941,5.8795,5.8135,5.7416,5.6247,5.4793,5.2727,4.9925,4.8979,5.0225,5.0543,4.9811,4.9453,5.0581,5.1368,5.1593,5.1819,5.1799,5.1985,5.2013,5.1854,5.163,5.1094,5.0869,5.0772,5.124,5.2013,5.2996,5.4076,5.5305,5.6082,5.7211,5.8889,6.0299,6.4679,6.7493,6.7453,6.7207,6.7448,6.6117,6.0755,6.0249,6.0688,5.6012,5.0463,4.6328,4.4642,4.4435,4.3709,4.1158,3.9986,3.9409,3.6385,3.1952,2.9988,2.9149,2.9165,9.2812,9.3444,9.3902,9.4374,9.4764,9.4552,9.441,9.4338,9.4121,9.3749,9.3597,9.4158,9.4158,9.3938,9.4303,9.4267,9.3682,9.3225,9.266,9.2271,9.141,8.9024,8.6793,8.51,8.3241,8.0529,7.898,7.889,7.7254,7.43,6.97,6.2431,6.4399,6.1739,5.7036,6.1304,6.3075,6.2023,6.0415,6.0656,6.3938,6.2815,6.0196,6.2087,6.262,6.2983,6.4064,6.4398,6.4182,6.3223,6.2139,6.0623,5.8779,5.6984,5.6448,5.6122,5.5642,5.6323,5.607,5.4735,5.4467,5.4302,5.3209,5.2476,5.0807,4.8162,4.6053,4.656,4.6716,4.5983,4.6787,4.7935,4.8923,4.9339,4.915,4.8941,4.909,4.9067,4.8863,4.8052,4.769,4.7372,4.749,4.9039,4.9999,5.0187,5.1309,5.3077,5.4357,5.6033,5.6881,5.7394,6.1923,6.5568,6.5706,6.6341,6.6485,6.2266,5.5656,5.3855,5.4189,4.902,4.2316,4.2382,4.2734,4.1123,3.9344,3.6582,3.5167,3.4847,3.263,2.8771,2.6853,2.6123,2.6177,9.2102,9.2731,9.3331,9.3938,9.4303,9.4446,9.4446,9.4339,9.4048,9.3638,9.3366,9.3674,9.3562,9.3289,9.3485,9.3337,9.2902,9.2625,9.2367,9.1931,9.162,8.8662,8.6442,8.4796,8.2433,8.0143,7.8638,7.8173,7.6233,7.3197,6.9834,6.4533,6.5949,6.1378,5.8177,5.9761,6.1587,6.0358,5.9954,6.1504,6.2063,6.1427,6.0091,6.0265,6.0265,6.0438,6.098,6.0808,6.0738,6.0323,5.9477,5.8072,5.6025,5.4824,5.3934,5.2317,5.2112,5.2409,5.2795,5.1376,5.1473,5.1532,5.0682,4.9528,4.7572,4.579,4.4256,4.2905,4.2708,4.2905,4.39,4.4908,4.5895,4.6894,4.6491,4.607,4.5997,4.5951,4.5404,4.4526,4.4307,4.3994,4.4999,4.677,4.7744,4.7744,4.8714,5.0658,5.2667,5.4196,5.4977,5.6008,6.0023,6.4058,6.4763,6.5296,6.3579,5.955,5.3266,4.9722,4.7131,4.4301,4.1304,4.0678,4.0623,3.9746,3.8671,3.4711,3.0565,2.9359,2.783,2.7235,2.7217,2.4736,2.325,9.1794,9.2354,9.2812,9.3331,9.3974,9.4912,9.4876,9.4339,9.4048,9.3749,9.3366,9.3289,9.3246,9.2801,9.2755,9.252,9.2151,9.1862,9.1638,9.1198,9.0621,8.8231,8.612,8.4488,8.2099,7.9914,7.8638,7.8173,7.6542,7.4785,7.1266,6.6574,6.5839,6.2479,6.0424,6.212,6.2575,6.2551,6.2525,6.2694,6.221,6.0738,5.9765,5.9263,5.9087,5.959,5.9962,5.9962,5.902,5.8425,5.7384,5.5452,5.3547,5.2317,5.1593,4.9433,4.9053,4.9053,4.9604,4.8844,4.8672,4.9452,4.8081,4.5895,4.3705,4.2102,4.1099,4.052,4.0138,4.136,4.2773,4.2937,4.3313,4.3705,4.3492,4.2725,4.1653,4.1322,4.0642,4.0121,4.0542,4.0527,4.1083,4.3084,4.5456,4.5279,4.6263,4.8807,5.0865,5.2297,5.3423,5.532,5.8871,6.2741,6.3845,6.4827,6.1404,5.7661,5.3546,4.9772,4.6192,4.272,4.0294,3.9025,3.8655,3.8124,3.7235,3.2518,2.756,2.5744,2.6114,2.7162,2.6829,2.2444,1.9787,9.1759,9.2236,9.2354,9.2882,9.3728,9.5807,9.5846,9.4337,9.3974,9.3749,9.3669,9.3402,9.3202,9.3034,9.2836,9.2555,9.2271,9.1182,9.1252,9.0928,8.99,8.7449,8.5531,8.3944,8.176,7.9814,7.8503,7.8067,7.8203,7.6571,7.2784,6.8235,6.6688,6.3523,6.3314,6.5034,6.7258,6.5045,6.4178,6.3007,6.2139,6.0519,5.924,5.8911,5.8735,5.9263,5.9613,5.9788,5.8469,5.734,5.6204,5.373,5.1613,5.0209,4.9831,4.9053,4.8291,4.8291,4.8272,4.7507,4.7315,4.6474,4.5119,4.2725,4.0535,3.914,3.874,3.8354,3.8354,3.9999,4.1224,4.1177,4.0932,4.0917,4.0917,3.9555,3.8225,3.7372,3.671,3.672,3.7006,3.793,3.8696,4.0566,4.333,4.3933,4.5895,4.8236,5.0113,5.1387,5.1953,5.388,5.7106,6.1119,6.3427,6.4487,6.153,5.6674,5.2765,4.7397,4.4261,4.0725,3.8809,3.7413,3.6878,3.6132,3.5039,3.1112,2.6258,2.5319,2.5938,2.6418,2.517,2.0556,1.7791,9.2123,9.3258,9.4163,9.4618,9.4813,9.5667,9.5215,9.4074,9.3935,9.3785,9.3669,9.3402,9.3281,9.3078,9.2836,9.2555,9.2067,9.169,9.1759,9.0251,8.9484,8.7379,8.5118,8.309,8.1356,7.9944,7.8608,7.7264,7.6753,7.7372,7.5014,7.2026,7.1184,6.7582,6.6355,6.6804,6.8864,6.6584,6.4625,6.3151,6.1992,6.0669,5.8911,5.8735,5.8735,5.8911,5.9087,5.8359,5.7115,5.5452,5.3975,5.2357,5.0716,4.9641,4.9452,4.9053,4.8272,4.7698,4.672,4.5753,4.395,4.2921,4.1724,3.9724,3.7535,3.7362,3.716,3.6958,3.6972,3.8182,3.9185,3.917,3.894,3.894,3.854,3.7347,3.6231,3.5836,3.5354,3.5028,3.5309,3.6295,3.7419,3.9585,4.1755,4.3738,4.5719,4.799,5.0075,4.9717,4.9811,5.2023,5.4914,5.7532,5.9963,6.2624,6.0738,5.5805,4.9768,4.3531,4.0446,3.8469,3.7313,3.6162,3.5444,3.4527,3.3048,3.2347,3.0029,2.8568,2.7227,2.4931,2.2806,2.005,1.6959,9.3472,9.4465,9.5371,9.6043,9.6646,9.6595,9.5645,9.4331,9.3811,9.345,9.3253,9.3402,9.3281,9.3123,9.2801,9.2354,9.169,9.1603,9.1074,8.9552,8.8433,8.6813,8.5103,8.3034,8.0983,7.9007,7.7831,7.6411,7.4656,7.5027,7.4598,7.43,7.2637,7.2359,7.0166,6.9489,6.8627,6.6498,6.5004,6.3343,6.221,6.0865,5.972,5.9087,5.8735,5.8735,5.8735,5.8381,5.6756,5.4768,5.4016,5.2397,5.0378,4.9452,4.8863,4.7662,4.8081,4.6912,4.4748,4.2954,4.0765,3.9555,3.854,3.775,3.5945,3.6567,3.7174,3.7174,3.902,3.9409,3.8225,3.7995,3.6972,3.6972,3.5728,3.4533,3.4177,3.3985,3.3867,3.3533,3.3251,3.3997,3.5579,3.7347,4.0153,4.2544,4.3542,4.5842,4.7726,4.759,4.8027,5.0273,5.239,5.4254,5.6873,6.0568,5.9876,5.6536,5.0546,4.3146,3.8481,3.5823,3.4698,3.3788,3.3468,3.3104,3.1771,3.0671,3.1011,3.088,2.8839,2.6713,2.2224,1.8436,1.5676,9.5795,9.5934,9.5992,9.7161,9.881,9.8789,9.7225,9.5067,9.3662,9.2796,9.2544,9.3061,9.3175,9.2857,9.2567,9.1862,9.088,8.9832,8.8892,8.843,8.6937,8.5053,8.3816,8.2377,8.0053,7.6535,7.5799,7.4898,7.2327,7.3453,7.3155,7.2844,7.2312,7.1449,7.0565,7.128,7.0704,6.8969,6.8469,6.6174,6.406,6.221,6.0888,5.9894,5.924,5.8735,5.8381,5.7849,5.6397,5.4199,5.3465,5.1633,4.9622,4.9053,4.7471,4.5666,4.6684,4.4925,4.1177,3.8784,3.7592,3.6784,3.6567,3.5959,3.5172,3.5376,3.5972,3.7404,4.0193,4.106,3.9871,3.7461,3.562,3.4381,3.2919,3.1901,3.1901,3.1803,3.2035,3.1974,3.1524,3.15,3.3523,3.5945,3.8955,4.0367,4.136,4.2921,4.4823,4.5632,4.6877,4.8888,5.1083,5.3547,5.6744,5.9564,6.0765,5.7523,5.2697,4.574,4.0402,3.5509,3.2725,3.1623,3.1668,3.2205,3.0867,2.9158,2.9022,2.9195,2.8408,2.5388,2.0735,1.6355,1.3538,9.6676,9.7555,9.8055,9.8664,9.8948,9.7859,9.6563,9.5081,9.3259,9.2144,9.1671,9.2544,9.2462,9.1671,9.1533,9.1182,8.9789,8.9053,8.7958,8.6584,8.5114,8.3407,8.1377,7.9789,7.8689,7.6655,7.5625,7.4478,7.2388,7.3442,7.2691,7.1399,7.0679,7.1039,7.0958,7.1674,7.155,7.0577,6.9595,6.7649,6.6498,6.3845,6.1528,6.1037,5.9393,5.8735,5.8204,5.6936,5.5495,5.3812,5.176,4.9736,4.8426,4.6894,4.5102,4.4307,4.3721,4.1739,3.9385,3.7808,3.7014,3.5389,3.4777,3.4164,3.3754,3.3959,3.4981,3.6812,3.7372,3.7878,3.8283,3.5416,3.3407,3.3381,3.1707,3.0879,3.0879,3.0879,3.0879,3.0879,3.1293,3.15,3.3536,3.5349,3.716,3.7376,3.917,4.1542,4.328,4.4696,4.5719,4.7708,5.0144,5.3311,5.685,6.1559,6.4929,6.1218,5.4799,4.7994,4.2524,3.5219,3.1521,3.1994,3.2177,3.1471,3.071,2.9552,2.8615,2.7281,2.3898,2.0731,1.6576,1.4379,1.1467,9.7504,9.8917,9.8206,9.8251,9.86,9.6738,9.5511,9.4459,9.2747,9.1585,9.1271,9.1757,9.1464,9.0756,9.079,8.9966,8.8151,8.7921,8.6184,8.4605,8.3447,8.1998,8.0625,7.8803,7.7015,7.5013,7.4177,7.3173,7.1602,7.1193,7.0523,7.0461,6.9838,7.0339,7.0437,7.0541,7.0162,6.9465,6.8469,6.7304,6.6498,6.3869,6.2233,6.1551,5.9415,5.8381,5.7849,5.5676,5.4403,5.2912,5.0639,4.9547,4.8826,4.6684,4.4908,4.3509,4.3542,4.0963,3.7995,3.6623,3.6231,3.4599,3.3779,3.3356,3.4342,3.3959,3.4381,3.5008,3.5688,3.5946,3.6244,3.4049,3.2205,3.2363,3.1926,3.1086,3.0879,3.0879,3.0879,3.066,3.1086,3.1062,3.2894,3.4751,3.456,3.4573,3.7376,4.0184,4.2166,4.3967,4.5154,4.6805,4.9732,5.2942,5.7089,6.2784,6.8581,6.2988,5.6695,5.2832,4.9169,4.0755,3.356,3.3653,3.4064,3.1195,2.9577,2.938,2.7641,2.4374,2.058,1.6819,1.4474,1.2156,0.9803,9.8061,9.9923,9.6949,9.6603,9.7832,9.5547,9.4306,9.3687,9.2177,9.1306,9.1004,9.079,9.0517,9.0148,8.9729,8.8577,8.6151,8.5714,8.4439,8.2993,8.157,8.0733,7.9469,7.8296,7.6938,7.3588,7.3285,7.1428,6.9179,6.9531,6.9472,6.9666,6.9587,6.9365,6.9673,6.996,6.9309,6.8522,6.7515,6.6524,6.5218,6.3751,6.2451,6.0785,5.8712,5.7315,5.6979,5.5132,5.367,5.2357,5.047,4.9566,4.8445,4.6702,4.4731,4.3346,4.297,4.0796,3.8009,3.6434,3.5443,3.4817,3.3972,3.3548,3.4138,3.4164,3.4764,3.5566,3.4407,3.4421,3.4486,3.4178,3.2888,3.2607,3.1913,3.1293,3.0879,3.0879,3.0233,3.0441,3.0199,2.9715,3.0714,3.2676,3.2919,3.3343,3.5756,3.7981,4.0383,4.2986,4.4179,4.586,4.8982,5.3842,5.8025,6.2372,6.808,6.5484,5.6461,5.3084,5.2589,4.6228,3.7061,3.5972,3.1832,2.9661,2.7664,2.4624,2.1943,2.0379,1.8636,1.5734,1.3145,1.1789,0.9735,9.6628,9.6846,9.5249,9.5208,9.6246,9.4625,9.3826,9.3437,9.1676,9.0803,9.0529,8.9934,8.9164,8.8634,8.8865,8.8197,8.6766,8.6582,8.4712,8.285,8.1341,7.9827,7.8463,7.7168,7.5682,7.2373,7.3093,7.1686,6.9889,6.9283,6.9218,6.9181,6.9418,6.986,7.0335,7.0005,6.9518,6.8706,6.7752,6.6736,6.5572,6.4084,6.2573,6.0692,5.8645,5.6598,5.5153,5.367,5.2727,5.1239,4.9547,4.8426,4.7872,4.6123,4.3967,4.3559,4.1375,3.9999,3.8814,3.6826,3.6651,3.6244,3.562,3.3561,3.3536,3.3138,3.3138,3.2907,3.2339,3.2957,3.3369,3.2594,3.24,3.2169,3.1281,3.1086,3.0671,2.9182,2.8546,2.7658,2.6552,2.6709,2.6491,2.9301,3.1039,3.1683,3.3741,3.5972,3.8784,4.2001,4.3199,4.4587,4.9637,5.6721,6.0793,6.456,6.8104,6.6968,5.5591,5.0482,5.1589,4.7239,4.2401,3.5381,2.9326,2.6984,2.5047,2.0203,1.5889,1.5499,1.4924,1.321,1.271,1.2154,1.0585,9.4452,9.4824,9.3445,9.3643,9.4651,9.3298,9.2639,9.25,9.1434,9.0655,9.0157,8.9586,8.8802,8.8229,8.8264,8.7553,8.6356,8.5906,8.4474,8.2455,8.1683,8.0576,7.8629,7.7285,7.5964,7.4149,7.3032,7.1836,7.0611,6.9838,6.9927,6.9551,6.8635,6.8776,6.9796,6.8974,6.8392,6.786,6.7,6.5999,6.4988,6.3848,6.2474,6.1083,5.8997,5.7271,5.5473,5.3649,5.2151,5.0697,4.8807,4.7489,4.7105,4.5753,4.4,4.3984,4.0963,3.9355,3.897,3.6595,3.4777,3.4164,3.3959,3.2932,3.0648,3.0025,3.0245,3.0671,3.0048,3.0671,3.1707,3.0671,3.1281,3.0832,2.9127,2.8448,2.7115,2.6542,2.5115,2.3808,2.2501,1.9499,1.8002,2.1625,2.4829,2.7979,3.2384,3.5485,3.8569,4.1193,4.2412,4.3788,5.0664,5.826,6.1805,6.6486,6.9762,6.8106,5.681,5.5191,5.4242,5.1664,4.9059,4.3215,3.4984,2.8155,2.2269,1.862,1.4544,1.2663,1.1146,1.1909,1.2642,1.1922,1.1138,9.2119,9.3263,9.1945,9.2119,9.309,9.198,9.1356,9.1425,9.1391,9.0781,9.0063,8.9874,8.9329,8.8568,8.8229,8.7116,8.6069,8.5798,8.4861,8.3266,8.2691,8.2082,8.1276,7.8967,7.7056,7.5643,7.3587,7.1903,7.073,6.982,6.9882,6.9995,6.8002,6.6848,6.9574,6.8076,6.5071,6.4864,6.4706,6.4064,6.344,6.3126,6.2034,6.0785,5.9173,5.7584,5.5431,5.3975,5.2502,5.1072,4.9395,4.8254,4.789,4.7315,4.5964,4.395,4.1494,3.9051,3.8095,3.5105,3.2495,3.1877,3.1865,3.0625,2.9587,2.8974,2.8359,3.0048,2.9007,2.8787,2.984,2.8359,2.8348,2.7877,2.5925,2.3708,2.3052,2.1928,1.9127,1.7626,1.7413,1.4208,1.2067,1.5477,1.9506,2.5796,3.1659,3.5431,3.8554,4.0184,4.1819,4.375,4.9221,5.5607,6.011,6.7022,6.9651,6.9544,6.4991,6.3191,5.9373,5.5132,5.3439,4.8698,4.302,3.5584,2.6858,1.9698,1.4125,1.2072,1.1874,1.2082,1.2098,1.1842,1.095,9.1529,9.1807,9.146,9.1529,9.1737,9.1425,9.1356,9.1356,9.1356,9.0928,9.0437,9.0344,8.9778,8.9099,8.8768,8.85,8.7962,8.7624,8.6482,8.5042,8.4502,8.3426,8.1863,7.9744,7.8121,7.704,7.5068,7.3101,7.1138,7.0526,7.0263,6.9678,7.0108,7.0121,7.0121,6.8573,6.8471,6.7457,6.6351,6.4896,6.3945,6.2763,6.098,5.7718,5.8271,5.7006,5.4502,5.3608,5.3241,5.1574,4.9509,4.7225,4.6263,4.6123,4.5154,4.2593,3.9155,3.752,3.6107,3.3472,3.082,2.9368,3.0003,3.1051,3.0429,2.792,2.6043,2.5823,2.6043,2.7313,2.7062,2.5974,2.5087,2.4429,2.1666,1.8277,1.7879,1.6386,1.3597,1.2081,1.2309,1.123,1.0581,1.3352,1.8447,2.4744,2.9797,3.3548,3.7362,3.92,4.052,4.2822,4.6014,5.2237,5.9265,6.5768,7.0441,6.9661,6.7319,6.5025,6.1367,5.8435,5.3011,4.8389,4.3682,3.9416,3.0423,2.2388,1.3261,0.8514,1.1154,1.1413,0.9443,0.8533,0.7771,9.1356,9.1356,9.1356,9.1356,9.1356,9.1356,9.1356,9.1356,9.1321,9.1053,9.0747,9.0563,9.0157,8.9586,8.9393,8.9295,8.8967,8.8802,8.7996,8.6985,8.6512,8.5528,8.4211,8.1604,7.9981,7.8351,7.6617,7.4308,7.1861,7.1602,7.0776,6.9969,6.9173,6.9628,7.0265,6.9453,6.8392,6.7912,6.7,6.6024,6.4896,6.3945,6.1497,5.8623,5.774,5.6132,5.3954,5.4158,5.3384,5.0975,4.9472,4.7189,4.5296,4.4162,4.3199,4.0995,3.7722,3.5255,3.3383,3.1392,2.8096,2.6204,2.7491,2.8337,2.7072,2.6663,2.5211,2.3706,2.3908,2.2605,2.2561,2.0202,1.9975,1.9544,1.6561,1.3828,1.2577,1.1286,0.824,0.5416,0.6717,0.7801,0.7795,1.0969,1.736,2.2659,2.75,3.1719,3.5959,3.739,3.8383,3.9817,4.0809,4.7985,5.6,6.5231,7.2644,6.9657,6.6855,6.4147,6.1456,6.1296,5.6552,4.8445,4.5226,4.2144,3.2144,1.8328,0.9913,0.2723,0.1118,0.019,0.266,0.4332,0.3127,9.1356,9.1356,9.1356,9.1356,9.1356,9.1356,9.1356,9.1356,9.1356,9.1143,9.0781,9.0747,9.0471,9.0063,9.0003,8.9683,8.9295,8.9197,8.8734,8.8061,8.772,8.6953,8.5477,8.2771,8.0954,7.94,7.7356,7.5204,7.3333,7.2707,7.1984,7.0398,6.9331,6.9295,7.0038,6.8688,6.7582,6.7194,6.5785,6.4822,6.4015,6.303,6.1106,5.8271,5.7228,5.5612,5.4341,5.4502,5.3364,4.949,4.9075,4.6997,4.4162,4.2428,4.1041,3.8799,3.5688,3.2987,3.0703,2.8492,2.4321,2.2011,2.3715,2.4156,2.3089,2.3106,2.3503,2.1783,1.9413,1.6839,1.6141,1.4641,1.4005,1.3347,1.0998,0.7588,0.6748,0.5447,0.3483,0.0,0.1741,0.3482,0.2806,0.4281,1.2366,2.0024,2.1393,2.2967,3.055,3.4751,3.5552,3.5972,3.6756,4.4503,5.3442,6.4523,7.2691,6.9135,6.6076,6.3442,6.279,6.3227,5.8288,4.8089,4.2813,3.5211,2.5334,1.4675,0.4761,-0.4468,-0.9481,-1.3448,-1.0751,-0.8436,-0.7877,9.1356,9.1356,9.1356,9.1356,9.1356,9.1356,9.1356,9.1356,9.1356,9.1232,9.1232,9.1232,9.0963,9.0563,9.0471,8.9874,8.9393,8.9065,8.9,8.8399,8.8229,8.7151,8.5233,8.2939,8.0859,7.9057,7.7097,7.5785,7.4527,7.3803,7.3057,7.2581,7.2026,7.1552,7.1045,6.8889,6.6829,6.5848,6.3583,6.194,6.1278,6.0761,5.8997,5.6849,5.5973,5.5271,5.3771,5.3608,5.3016,5.0936,4.8107,4.5279,4.279,4.1057,3.9059,3.6392,3.3459,3.075,2.8273,2.4962,2.2249,2.162,2.2257,2.2673,2.2851,2.2224,2.1358,1.942,1.6845,1.3639,1.2076,0.9713,0.8193,0.6681,0.3032,0.1088,0.1526,0.3052,-0.1089,-0.4576,-0.3478,-0.2374,-0.2786,-0.1919,0.8279,1.5925,1.328,1.4704,2.5262,3.1901,3.212,3.2533,3.5012,4.1364,5.1907,6.2731,7.0232,6.8332,6.5374,6.3643,6.2601,5.6574,4.7433,4.1576,3.2964,1.9716,0.9038,0.4405,-0.1563,-1.0508,-1.6252,-1.9897,-2.1004,-2.1134,-1.9535,9.1356,9.1356,9.1356,9.1356,9.1356,9.1356,9.1356,9.1356,9.1356,9.1356,9.1356,9.1356,9.1232,9.0928,9.0655,9.0344,8.9839,8.9586,8.9197,8.8601,8.8331,8.6979,8.481,8.259,8.0401,7.8384,7.6995,7.5871,7.5013,7.4405,7.382,7.2811,7.2755,7.2183,7.045,6.9126,6.6872,6.4724,6.2573,6.1083,6.0242,5.972,5.8469,5.6512,5.4747,5.3445,5.2072,5.2832,5.1906,4.9472,4.6456,4.3363,4.0229,3.9215,3.7606,3.4968,3.2071,2.9149,2.6204,2.3283,2.076,1.7768,1.9052,1.945,1.8582,1.8582,1.7506,1.5775,1.2983,0.9548,0.6068,0.3902,0.3252,0.2169,0.087,0.0,-0.0435,-0.4538,-0.9497,-1.0023,-0.8443,-0.857,-0.7655,-0.6561,0.1051,0.8607,0.6267,1.2127,2.2787,2.8831,2.9104,3.1269,3.3713,4.0115,5.1028,5.9507,6.7171,6.8037,6.5073,6.3316,5.817,4.7463,3.6326,3.0287,2.3945,0.9375,-0.3134,-0.4024,-0.8386,-1.7807,-2.4494,-2.6772,-2.7922,-2.6907,-2.6228,9.1444,9.1321,9.1444,9.1444,9.1356,9.1356,9.1356,9.1356,9.1356,9.1356,9.1356,9.1356,9.1356,9.1356,9.0838,9.0471,9.0251,8.9778,8.9329,8.8534,8.8229,8.6764,8.4664,8.2743,8.056,7.8443,7.7164,7.6183,7.53,7.5013,7.4259,7.3109,7.2633,7.1397,6.9621,6.8311,6.6336,6.3751,6.1869,6.015,5.8799,5.7917,5.667,5.5431,5.2932,5.1033,5.0581,5.1289,5.0581,4.7817,4.4942,4.2001,3.9815,3.8383,3.6351,3.3933,3.1257,2.8118,2.4522,2.2639,2.0097,1.6265,1.7124,1.6688,1.4306,1.5155,1.4075,1.1049,0.8889,0.5863,0.1522,-0.1957,-0.3471,-0.3683,-0.4331,-0.4756,-0.4531,-1.1153,-1.5666,-1.6839,-1.5885,-1.5329,-1.5042,-1.4965,-0.8382,-0.0833,0.4987,1.102,1.8222,2.545,2.7947,3.0487,3.4536,4.1542,5.1027,5.7944,6.497,6.818,6.4958,6.2181,5.0906,3.9813,2.3961,1.5917,1.1719,-0.0134,-1.5069,-1.7093,-1.7915,-2.6194,-3.396,-3.2787,-3.1778,-3.2337,-3.1808,9.1532,9.1321,9.162,9.1567,9.1356,9.1356,9.1356,9.1356,9.1356,9.1356,9.1356,9.1356,9.1356,9.1321,9.0838,9.0344,8.9839,8.9393,8.8836,8.8365,8.7712,8.6581,8.4581,8.2896,8.0881,7.9023,7.7627,7.6576,7.5871,7.5415,7.4984,7.382,7.2128,7.1038,6.9282,6.6149,6.3869,6.2233,5.9105,5.6827,5.593,5.4137,5.3241,5.2727,5.0865,4.9906,4.9622,4.8089,4.7153,4.8254,4.3559,4.1573,4.1558,3.8182,3.5362,3.2495,3.0625,2.8316,2.4981,2.1546,1.881,1.748,1.6644,1.5835,1.3592,1.3138,1.162,0.6454,0.542,0.2819,-0.1303,-0.6709,-0.9286,-1.1432,-1.5685,-1.6236,-1.4872,-1.4684,-1.785,-2.2346,-1.8487,-2.1902,-2.5726,-2.6061,-1.8079,-1.08,-0.4135,0.1444,0.7863,1.5647,2.1276,2.5445,3.2837,4.1355,4.8708,5.6131,6.3019,6.7587,6.4062,5.6418,4.5242,2.3423,0.9337,0.0197,-0.4048,-1.3439,-2.455,-2.856,-3.087,-3.5406,-3.4939,-3.4602,-3.4206,-3.3653,-3.6665,9.1444,9.1356,9.141,9.1444,9.1356,9.1356,9.1356,9.1356,9.1356,9.1356,9.1356,9.1356,9.1356,9.1321,9.0838,9.0251,8.9744,8.9295,8.8735,8.8263,8.785,8.6548,8.4548,8.2743,8.1008,7.942,7.7627,7.6436,7.5842,7.5558,7.4377,7.2877,7.162,6.9777,6.7566,6.4963,6.3296,6.0934,5.8315,5.5793,5.4887,5.2707,5.1819,5.1072,5.0037,4.9621,5.0398,4.839,4.6365,4.4645,4.2166,3.96,3.8397,3.677,3.4533,3.1062,2.9598,2.7584,2.4507,2.1727,1.9326,1.7301,1.4768,1.1798,0.8834,0.8205,0.6309,0.1265,0.0852,-0.0643,-0.3436,-0.7962,-1.2267,-1.6517,-2.3516,-2.7707,-2.6525,-2.5874,-2.7601,-2.8643,-2.8242,-2.896,-3.2652,-3.1768,-2.6825,-2.1102,-1.4297,-0.8047,-0.3089,0.4749,1.1493,1.5203,2.1128,3.1464,3.9828,5.2878,6.2189,6.465,6.1146,5.1919,3.1699,0.2307,-0.9947,-1.835,-2.0938,-2.4646,-2.8451,-3.2384,-3.4996,-3.5271,-3.4816,-3.4367,-3.3787,-3.3331,-3.8718,9.1063,9.141,9.1444,9.1444,9.1444,9.1356,9.1356,9.1356,9.1356,9.1356,9.1356,9.1356,9.1356,9.1321,9.0872,9.0251,8.9778,8.9295,8.8735,8.8296,8.7953,8.6872,8.5233,8.3225,8.1323,7.9713,7.793,7.6606,7.5842,7.57,7.432,7.162,7.0804,6.8601,6.5507,6.4373,6.2692,6.0484,5.8536,5.6892,5.5612,5.3241,5.1633,5.0884,4.9075,4.8703,4.9891,4.8672,4.6191,4.3019,4.003,3.7188,3.6378,3.4769,3.2835,3.0368,2.8654,2.6166,2.3449,2.0938,1.857,1.6099,1.2002,0.7838,0.3701,0.3298,-0.0206,-0.4127,-0.4789,-0.5043,-0.8192,-1.1392,-1.527,-2.0349,-2.9272,-3.5206,-3.5089,-3.5013,-3.4021,-3.4151,-3.3946,-3.3305,-3.4177,-3.3741,-3.3267,-3.0984,-2.412,-1.5977,-1.2394,-0.5767,0.3501,0.6485,1.0847,2.1598,3.2602,4.7779,5.5733,5.5789,4.7002,3.4538,0.9656,-1.0887,-1.9996,-3.2769,-3.0208,-3.0362,-3.359,-3.8894,-3.5152,-3.5034,-3.8482,-4.5585,-4.232,-4.0611,-4.6885,9.0384,9.1673,9.1707,9.1707,9.162,9.1444,9.1356,9.1356,9.1356,9.1356,9.1356,9.1356,9.1356,9.1267,9.0838,9.0344,8.9778,8.9295,8.8836,8.8365,8.7953,8.7745,8.6905,8.4433,8.2071,8.0234,7.8368,7.744,7.6716,7.6154,7.4899,7.2468,7.0082,6.7546,6.5433,6.3007,6.1887,6.1199,5.9042,5.7783,5.7228,5.318,5.0994,5.1426,4.8199,4.6651,4.7534,4.6826,4.5222,4.2503,3.7678,3.6134,3.6817,3.2786,3.0342,3.0508,2.7047,2.4281,2.1982,1.9149,1.6475,1.434,0.8995,0.4523,0.3481,0.0409,-0.3061,-0.9173,-0.9418,-1.1271,-1.5743,-1.8045,-2.0609,-2.5902,-3.2748,-3.7771,-3.9454,-3.5929,-3.3981,-3.4021,-3.4164,-3.4138,-3.4008,-3.4021,-3.4047,-3.244,-2.5953,-2.1352,-1.8569,-1.4962,-0.5943,-0.0902,0.2039,0.9662,1.3181,2.6639,3.0284,2.7068,1.626,0.2544,-1.7044,-1.6457,-1.8913,-3.0356,-3.5991,-3.708,-4.0528,-4.8102,-4.9463,-4.6497,-4.9621,-5.6656,-5.8424,-5.6969,-5.869,8.9466,9.009,9.1115,9.1532,9.1532,9.141,9.1356,9.1356,9.1356,9.1356,9.1356,9.1356,9.1356,9.1356,9.1143,9.0529,8.9839,8.9552,8.9231,8.8735,8.8126,8.7712,8.7291,8.5298,8.2927,8.0074,7.8203,7.6995,7.6436,7.6013,7.4783,7.2468,7.0108,6.7783,6.5433,6.3199,6.191,6.1372,5.9545,5.7584,5.575,5.2832,5.0451,4.9358,4.8027,4.7423,4.711,4.591,4.4313,4.2272,3.9736,3.7191,3.5997,3.147,2.8394,2.795,2.5185,2.2606,2.0811,1.6579,1.3303,1.1344,0.7756,0.2389,-0.5373,-0.3384,-0.7149,-1.3118,-1.3211,-1.3271,-1.8263,-2.1199,-2.5101,-2.9474,-3.3375,-3.4812,-3.559,-3.4385,-3.3508,-3.3051,-3.3099,-3.3177,-3.3099,-3.3099,-3.3336,-3.3773,-3.0021,-2.7177,-2.709,-2.3933,-2.3866,-2.1033,-1.1636,-0.5001,-0.2241,0.0929,0.4795,-0.1875,-0.9836,-2.0367,-2.7269,-2.1939,-2.0366,-3.2072,-4.0005,-4.0996,-4.7454,-5.5591,-6.259,-6.3342,-6.2599,-6.6446,-6.8094,-6.8398,-6.4222,8.8787,8.9378,9.0907,9.1532,9.1498,9.1444,9.1356,9.1356,9.1356,9.1356,9.1356,9.1356,9.1356,9.1356,9.1356,9.0838,9.0063,8.9874,8.949,8.9034,8.8331,8.7816,8.7397,8.6001,8.3732,8.0816,7.8414,7.6995,7.6436,7.6324,7.4927,7.2645,7.0831,6.8522,6.5622,6.3729,6.2418,6.159,5.972,5.7917,5.611,5.32,5.0658,4.896,4.8217,4.7735,4.718,4.6228,4.4476,4.2105,4.0535,3.7842,3.3851,2.933,2.6906,2.648,2.3225,2.0453,1.8664,1.3485,0.9276,0.7605,0.2727,-0.4097,-0.9572,-0.8202,-1.0513,-1.6349,-1.7048,-1.7515,-2.1823,-2.5602,-2.8172,-3.1008,-3.4599,-3.7315,-3.6789,-3.7292,-3.6161,-3.3614,-3.2509,-3.2307,-3.2047,-3.2501,-3.2801,-3.3231,-3.2775,-3.2281,-3.3447,-3.2009,-3.4055,-3.4469,-2.6706,-1.7139,-1.7386,-1.5976,-1.434,-1.8881,-2.2994,-2.9965,-3.0507,-2.825,-2.9395,-3.4934,-4.0812,-4.6421,-5.3934,-6.1401,-6.8556,-7.179,-7.0148,-7.1767,-7.493,-7.2489,-6.7246,8.803,8.9592,9.1167,9.162,9.1687,9.1516,9.141,9.1498,9.141,9.1444,9.141,9.1321,9.1356,9.1356,9.1356,9.1053,9.0471,8.9969,8.949,8.9034,8.8466,8.809,8.7712,8.6188,8.4433,8.2653,7.948,7.7578,7.7025,7.6606,7.5386,7.3266,7.2059,6.9544,6.5622,6.4526,6.3311,6.1661,5.9917,5.8645,5.8116,5.4299,5.176,5.0639,4.8334,4.6787,4.6332,4.6908,4.5386,4.2001,3.9225,3.5594,3.1488,2.6872,2.4685,2.5184,2.1007,1.7954,1.637,0.9362,0.5281,0.4281,-0.5458,-0.9198,-0.7413,-0.973,-1.4366,-1.8573,-2.126,-2.4874,-2.8527,-2.985,-3.0328,-3.1771,-3.8076,-4.1757,-4.1234,-4.4524,-4.4212,-3.5652,-3.4275,-3.2513,-3.17,-3.2881,-3.3099,-3.2987,-3.2861,-3.322,-3.3742,-3.3934,-3.4717,-3.4749,-3.1031,-2.7262,-3.0197,-3.3033,-3.3075,-3.3058,-3.3411,-3.2991,-3.2205,-3.2021,-3.2625,-3.8241,-4.4367,-5.1635,-5.9105,-6.7316,-7.4395,-7.5763,-7.4977,-7.4295,-7.3089,-7.0189,-6.6388,8.4756,8.6576,8.9096,9.036,9.0681,9.1612,9.2236,9.2649,9.2151,9.2017,9.1897,9.1498,9.1356,9.1356,9.1356,9.1053,9.0529,9.0029,8.9456,8.9,8.8466,8.7953,8.743,8.6188,8.4433,8.2409,8.0074,7.8203,7.6885,7.6324,7.57,7.4465,7.27,7.0242,6.7406,6.5467,6.3561,6.1934,6.1004,5.9195,5.6827,5.4643,5.2297,4.9472,4.7515,4.6228,4.5395,4.489,4.3267,4.0484,3.8316,3.5335,3.0704,2.5997,2.3666,2.3245,1.87,1.5598,1.4451,0.7618,0.2541,0.0976,-0.6456,-1.1759,-1.1118,-1.3056,-1.8101,-2.2909,-2.4739,-2.5196,-2.8912,-2.9519,-3.0696,-3.4157,-3.4513,-3.5314,-3.8056,-3.7042,-3.6603,-3.8029,-4.0951,-4.1993,-4.0619,-3.8641,-3.5743,-3.2163,-3.1882,-3.247,-3.3031,-3.3203,-3.3376,-3.4104,-3.3622,-3.3736,-3.3553,-3.4637,-3.5232,-3.481,-3.4892,-3.3623,-3.2795,-3.2808,-3.4965,-4.2064,-4.923,-5.6581,-6.4497,-7.2934,-7.6377,-7.7269,-7.5905,-7.2401,-6.8809,-6.6263,-6.4666,8.3544,8.5386,8.8154,8.9763,9.052,9.1312,9.2202,9.2857,9.2485,9.2186,9.1931,9.1498,9.1356,9.1252,9.0211,8.9393,8.8946,8.8454,8.8197,8.8222,8.766,8.7452,8.7364,8.6689,8.5152,8.2985,8.1292,7.9156,7.6856,7.6324,7.6013,7.5214,7.3742,7.1278,6.8469,6.6513,6.4422,6.2058,6.1004,5.9195,5.6512,5.4502,5.1775,4.8532,4.6916,4.5554,4.4827,4.3344,4.1493,3.9342,3.6582,3.3564,2.9965,2.6252,2.3259,2.0961,1.6342,1.3078,1.1535,0.4887,0.0196,-0.0,-0.4697,-0.8805,-1.2072,-1.5103,-1.908,-2.4363,-2.4722,-2.5674,-2.8166,-2.8451,-2.961,-3.2556,-3.2586,-3.4968,-3.8183,-3.6333,-3.6411,-4.41,-4.5313,-4.6147,-4.2794,-4.0125,-3.5911,-3.2278,-3.1865,-3.23,-3.2836,-3.2991,-3.3033,-3.351,-3.3328,-3.3342,-3.3692,-3.5833,-3.8465,-3.8299,-3.8376,-3.8559,-3.8861,-3.9419,-4.0107,-4.6756,-5.716,-6.4303,-6.6514,-7.4459,-7.7841,-7.778,-7.3583,-6.9733,-6.4342,-6.3432,-6.2368,8.4243,8.6165,8.8191,8.9654,9.0966,9.0812,9.1277,9.2238,9.2169,9.1787,9.1168,9.1028,9.1167,9.0854,8.8165,8.6558,8.6193,8.5728,8.602,8.6666,8.6182,8.6417,8.7198,8.7231,8.6068,8.3656,8.1903,7.9556,7.6506,7.6315,7.601,7.5157,7.4585,7.2534,6.8913,6.7464,6.5442,6.2213,6.0071,5.8269,5.6897,5.379,5.0775,4.8102,4.6215,4.4945,4.4241,4.2579,4.0593,3.8959,3.4545,3.1119,2.9145,2.666,2.3269,1.9051,1.3847,1.0164,0.7809,0.1758,-0.1173,0.1367,-0.1952,-0.5264,-1.0241,-1.5626,-1.9979,-2.1885,-2.502,-2.6373,-2.7076,-2.7291,-2.7923,-2.9199,-3.3891,-3.9269,-4.518,-4.0987,-4.4959,-5.1897,-4.82,-4.4744,-4.4538,-3.7786,-3.5213,-3.2245,-3.2864,-3.4483,-3.5104,-3.3974,-3.4353,-3.4761,-3.4353,-3.3917,-3.5198,-4.0245,-4.5307,-4.4598,-4.3607,-4.8018,-4.8177,-4.8331,-4.8906,-5.2661,-6.1891,-6.8106,-7.0977,-7.414,-7.7533,-7.6826,-7.2682,-6.7461,-6.2209,-6.0887,-6.1376,8.4752,8.5378,8.5772,8.6985,8.846,8.9438,9.0188,9.0864,9.0402,8.9886,8.9384,8.8871,8.8744,8.8522,8.739,8.6299,8.5579,8.5,8.4806,8.4733,8.441,8.4313,8.4176,8.4005,8.2967,8.1123,8.0391,7.8441,7.5651,7.4159,7.3162,7.275,7.2359,7.0676,6.792,6.698,6.4866,6.1839,6.0544,5.8399,5.5717,5.3036,5.0167,4.7278,4.55,4.4223,4.3544,4.1285,3.8836,3.6295,3.323,3.015,2.7244,2.5147,2.286,2.019,1.4016,0.9179,0.6838,0.1957,-0.0588,-0.0781,-0.4445,-0.9386,-1.4606,-1.9297,-2.2609,-2.4397,-2.5106,-2.5334,-2.5299,-2.5816,-2.795,-3.1517,-3.3441,-3.7377,-4.325,-4.3432,-4.5988,-5.3433,-5.3402,-5.2908,-5.2919,-5.052,-4.4134,-3.6422,-3.8877,-4.3346,-4.3041,-3.7887,-3.6333,-4.2504,-3.7517,-3.7014,-4.2738,-4.7663,-4.3206,-4.2935,-5.1016,-5.5336,-4.9112,-5.3566,-5.6258,-6.0235,-6.4456,-6.9694,-7.4996,-7.5172,-7.6669,-7.5264,-7.1977,-6.6738,-6.1475,-6.1754,-6.2744,8.5261,8.5538,8.5514,8.6394,8.7849,8.8576,8.9271,8.9913,8.9575,8.9119,8.8433,8.7081,8.6402,8.6137,8.5837,8.5253,8.4384,8.406,8.3936,8.4048,8.3841,8.3712,8.3509,8.3379,8.2338,8.0722,7.9667,7.8383,7.6603,7.4801,7.3311,7.247,7.1719,7.0118,6.7851,6.6807,6.4727,6.1725,6.0802,5.8452,5.5001,5.1969,4.9412,4.7364,4.5068,4.3641,4.269,4.0318,3.793,3.6147,3.2557,2.964,2.7606,2.476,2.2282,1.96,1.4595,0.9949,0.567,0.0972,-0.1361,-0.0587,-0.6786,-1.1883,-1.5077,-1.9709,-2.2834,-2.3777,-2.4048,-2.4186,-2.4209,-2.4708,-2.8255,-3.5009,-3.6842,-4.0733,-4.8692,-4.8748,-5.0639,-5.734,-5.8757,-5.8805,-5.905,-5.9763,-5.4081,-4.3588,-4.7146,-5.078,-4.7902,-4.3007,-4.3493,-5.0147,-4.8946,-4.7943,-5.2175,-5.5236,-5.6011,-5.4186,-5.9657,-6.4889,-6.0071,-6.2559,-6.5627,-7.0101,-7.2609,-7.5745,-7.9353,-7.7325,-7.5005,-7.2858,-6.9853,-6.7183,-6.3574,-6.2992,-6.3809,8.5886,8.6238,8.6456,8.7203,8.808,8.7901,8.8281,8.893,8.9005,8.8726,8.7907,8.5829,8.4655,8.4107,8.386,8.3434,8.2774,8.2598,8.2881,8.3527,8.357,8.3681,8.3884,8.3746,8.2913,8.1362,7.9816,7.8694,7.8046,7.671,7.5102,7.332,7.1989,7.0112,6.8069,6.6723,6.4838,6.2051,6.0668,5.8173,5.4555,5.0975,4.8656,4.8017,4.5271,4.326,4.1913,3.952,3.7914,3.7056,3.2374,2.9257,2.8233,2.503,2.1242,1.7376,1.4707,1.0675,0.4273,-0.115,-0.2867,-0.1164,-0.8726,-1.3255,-1.2553,-1.7911,-2.1108,-2.094,-2.2206,-2.3355,-2.3355,-2.5347,-3.0642,-3.891,-4.2325,-4.7673,-5.692,-5.6153,-5.6437,-6.4557,-6.2184,-6.0946,-6.1573,-6.409,-6.1758,-5.1855,-5.8057,-6.0815,-5.4775,-5.1058,-5.2644,-6.1732,-6.1807,-6.1583,-6.3426,-6.8023,-6.8221,-7.0829,-7.2187,-7.1565,-7.0567,-7.1045,-7.3177,-7.3748,-7.5584,-7.7623,-7.7823,-7.6315,-7.3835,-7.15,-6.9593,-6.7759,-6.7468,-6.5342,-6.4555,8.694,8.699,8.6876,8.6873,8.6875,8.6357,8.6235,8.64,8.6436,8.6337,8.6166,8.5581,8.5032,8.4405,8.2925,8.1845,8.1025,7.9497,7.9474,8.0595,8.0265,8.0846,8.1847,8.0961,8.0131,7.9527,7.8278,7.7038,7.5792,7.5128,7.3733,7.1437,6.9614,6.8346,6.758,6.642,6.4409,6.1525,5.9053,5.6058,5.2459,5.1639,4.9679,4.658,4.574,4.4043,4.0763,3.9854,3.7705,3.3593,3.2164,2.9194,2.4584,2.1977,1.8092,1.2862,1.0262,0.7102,0.2621,-0.1492,-0.5038,-0.8235,-1.1274,-1.3686,-1.5537,-1.7979,-1.8996,-1.8897,-2.2048,-2.3729,-2.4531,-3.0483,-3.6322,-3.9122,-4.9208,-5.7557,-5.9985,-5.7585,-5.8892,-6.6296,-6.3141,-6.0402,-6.2328,-6.4664,-6.6082,-6.6424,-7.0147,-7.2191,-6.9431,-6.2962,-6.643,-7.5163,-7.0919,-6.5869,-7.1659,-7.3113,-7.0348,-6.3212,-7.254,-7.6195,-7.3476,-7.584,-7.777,-7.6606,-7.6976,-7.617,-7.4775,-7.3145,-7.1814,-7.0595,-6.8923,-6.792,-6.7861,-6.6828,-6.705,8.7173,8.7113,8.6963,8.6617,8.631,8.5931,8.5659,8.5466,8.478,8.4455,8.4528,8.5214,8.5416,8.496,8.388,8.3095,8.2689,8.1422,8.1209,8.18,8.1393,8.1463,8.1751,8.0581,7.9519,7.872,7.7661,7.6584,7.558,7.5399,7.4108,7.1708,7.0391,6.8966,6.7418,6.5482,6.3325,6.1275,5.7746,5.4356,5.1256,4.9422,4.73,4.456,4.4105,4.2611,4.0086,3.8517,3.6446,3.3545,3.0384,2.706,2.3577,1.8857,1.4682,1.1214,0.8478,0.5334,0.1643,-0.0919,-0.4437,-0.9434,-1.135,-1.5041,-2.227,-2.6531,-2.6725,-2.232,-3.0579,-3.4071,-2.976,-3.8534,-4.6802,-5.1637,-5.9097,-6.5518,-6.8102,-6.7471,-6.7713,-7.0094,-6.8468,-6.7351,-6.8604,-6.8105,-6.9873,-7.5368,-7.1328,-7.0997,-7.4742,-7.117,-7.3287,-8.5779,-8.1689,-7.7496,-7.9826,-7.9778,-7.668,-7.1557,-7.7719,-7.95,-7.6128,-7.6605,-7.8481,-7.69,-7.4816,-7.3288,-7.2462,-7.0825,-6.9736,-6.9158,-6.8346,-6.7931,-6.7898,-6.7838,-6.7024,8.7113,8.6913,8.681,8.6401,8.572,8.5756,8.5438,8.478,8.3914,8.3553,8.3625,8.4925,8.5539,8.5442,8.5139,8.4916,8.4725,8.431,8.4084,8.4064,8.3753,8.3291,8.2609,8.1424,8.02,7.8874,7.7825,7.7094,7.6617,7.6442,7.5184,7.2984,7.2263,7.0513,6.752,6.4616,6.2302,6.0666,5.6495,5.339,5.146,4.7567,4.4911,4.3839,4.2635,4.1086,3.9403,3.6865,3.5032,3.365,2.7763,2.4047,2.2746,1.5799,1.1189,1.011,0.7069,0.3607,-0.0356,-0.1444,-0.4195,-0.9316,-1.2566,-1.8362,-2.8655,-3.6607,-3.7452,-2.9854,-4.0124,-4.5891,-3.9838,-4.7195,-5.682,-6.5857,-6.8981,-7.2202,-7.7563,-7.6909,-7.5033,-7.3682,-7.4619,-7.4367,-7.5046,-7.3381,-7.4392,-7.8686,-7.4062,-6.736,-7.3861,-7.588,-8.0189,-8.6934,-8.9057,-8.8223,-8.5725,-8.5552,-8.3031,-8.3367,-8.1343,-7.9714,-7.7088,-7.7595,-7.6883,-7.419,-7.26,-7.1378,-7.077,-6.9163,-6.8395,-6.8132,-6.8027,-6.7589,-6.715,-6.6642,-6.5494,8.6963,8.6862,8.6475,8.5397,8.4014,8.3823,8.2961,8.1819,0.0,0.0,0.0,8.5394,8.5478,8.5283,8.3997,8.32,8.2841,8.1525,8.1505,8.256,8.2189,8.2657,8.3612,8.2342,8.1459,8.0873,7.9153,7.7987,7.7529,7.6687,7.5153,7.287,7.2263,7.0634,6.775,6.5103,6.1923,5.8028,5.5302,5.3924,5.4119,5.2375,4.9997,4.6812,4.5529,4.2426,3.727,3.6913,3.3719,2.7333,2.5463,2.1964,1.6554,1.3019,0.9081,0.4158,0.133,-0.2341,-0.779,-0.8845,-1.1622,-1.6723,-2.245,-2.6338,-2.7829,-3.6089,-4.0251,-3.853,-4.0884,-4.4311,-4.7911,-5.5144,-6.1468,-6.5815,-7.306,-7.7851,-7.8736,-7.3009,-7.1558,-7.6298,-7.2478,-7.0569,-7.7955,-7.8108,-7.9595,-8.191,-7.9224,-7.8015,-7.4906,-7.8727,-8.3126,-8.4378,-8.4211,-8.3782,-8.374,-8.1847,-7.9622,-7.9647,-7.7886,-7.5918,-7.496,-7.5086,-7.4804,-7.3016,-7.2682,-7.167,-7.0509,-6.9106,-6.8465,-6.8147,-6.8055,-6.7308,-6.542,-6.3403,-6.2442,8.66,0.0,8.6161,8.5518,0.0,8.4407,8.2108,7.8498,8.005,8.117,8.2,8.2831,8.3073,8.2953,8.2325,8.1692,8.1203,8.0661,8.0549,8.076,8.056,8.078,8.1281,8.0997,8.0644,8.0193,7.9059,7.8244,7.7759,7.6789,7.5271,7.3289,7.1248,6.8747,6.5826,6.319,5.9674,5.5244,5.4093,5.2932,5.1548,4.9853,4.7469,4.447,4.3438,0.0,0.0,0.0,0.0,0.0,0.0,0.0,0.0,0.0,0.0,-0.2613,-0.4186,-0.7489,-1.3531,-1.5195,-1.6673,-1.8345,-2.2451,-2.816,-3.5919,-4.5091,-4.974,-4.8263,-5.4665,-5.8435,-5.8057,-6.5379,-7.1101,-7.2726,-7.6774,-7.948,-7.9065,-7.5424,-7.4743,-7.8243,-7.5638,-7.4448,-7.9268,-7.6549,-7.586,-8.0586,-7.8622,-7.6122,-7.7683,-8.1132,-8.1316,-7.6556,-7.8007,-8.0537,-7.9925,-7.788,-7.6537,-7.6178,-7.5553,-7.4466,-7.2827,-7.2861,-7.272,-7.1239,-7.0098,-6.9546,-6.9101,-6.7114,-6.5518,-6.6003,-6.5123,-6.4021,-6.4326,-6.2341,-6.0895,8.54,8.5176,8.5119,8.4728,8.4239,8.4528,8.1711,7.6945,7.6945,7.7722,7.9169,8.0547,8.1035,8.0902,8.1018,8.07,8.0216,8.0422,8.0119,7.9425,7.9324,7.9123,7.885,7.9327,7.9244,7.8681,7.8195,7.7607,7.6937,7.5979,7.4654,7.2806,6.9775,6.6589,6.3505,0.0,0.0,0.0,5.3304,5.1701,4.8689,4.6587,4.4256,4.1559,4.0309,0.0,3.6354,3.3522,2.9657,2.4603,2.1931,0.0,0.0,0.0,0.0,0.0,0.0,0.0,0.0,0.0,0.0,0.0,-2.3401,-3.037,-4.3444,-5.2173,-5.6723,-5.6541,-6.741,-7.2129,-6.5962,-7.312,-7.8328,-7.8518,-7.8838,-7.9178,-7.948,-7.9442,-7.9518,-7.9518,-7.96,-7.9652,-7.9404,-7.4121,-7.2738,-7.8817,-7.54,-7.4678,-7.9982,-8.0523,-7.766,-7.0503,-7.432,-7.7646,-7.5918,-7.4614,-7.3513,-7.3491,-7.3748,-7.3037,-7.1512,-7.123,-7.0791,-6.9801,-6.8128,-6.7641,-6.8225,-6.5227,-6.334,-6.4388,-6.1747,-6.005,-6.2678,-6.2564,-6.1399,8.189,8.1835,8.163,8.0721,7.9545,8.0881,8.0989,8.0231,8.0231,8.0547,8.1099,8.1767,8.1925,8.1667,8.127,8.089,8.0563,8.0191,7.9851,7.9693,7.9425,7.9225,7.909,7.8886,7.8276,7.7178,7.6312,7.5236,7.4005,7.3159,7.1501,6.9312,6.821,6.5951,6.2381,5.8037,5.544,5.4761,5.353,5.1947,4.9731,4.7973,4.5667,4.2433,3.9766,3.7062,3.4251,3.161,2.7456,2.1878,2.1583,1.8625,1.2301,0.8658,0.1518,0.0,-1.4563,0.0,0.0,0.0,0.0,0.0,0.0,0.0,0.0,-4.5758,-5.0962,-6.0162,-6.6598,-6.9692,-6.8406,-7.1538,-7.4101,-7.5009,-7.6517,-7.8007,-7.9291,-7.948,-7.9555,-7.9669,-7.9663,-7.9755,-7.9776,-7.9115,-7.8367,-7.95,-7.8513,-7.72,-7.6227,-7.584,-7.4823,-7.1777,-7.3002,-7.4355,-7.3439,-7.1183,-6.9989,-7.1292,-7.1045,-6.9835,-6.9603,-7.0178,-7.0583,-7.0383,-6.9915,-6.9359,-6.8023,-6.6008,-6.4799,-6.5154,-6.0,-5.6394,-5.9157,-6.2885,-6.5136,8.1035,8.1035,8.0902,7.94,7.7162,7.7848,7.8137,7.8173,7.8137,7.8301,7.8406,7.8702,7.8702,7.8531,7.8495,7.8174,7.774,7.7776,7.7481,7.699,7.68,7.6672,7.6547,7.7193,7.7167,7.652,7.5754,7.5131,7.4382,7.2861,7.0909,6.8512,6.6531,6.3188,5.8462,5.5475,5.4825,5.6307,5.3514,5.0863,4.8604,4.6792,4.4568,4.2154,3.9033,3.6404,3.4155,3.0249,2.5747,2.1002,1.8764,1.6345,1.3288,0.4691,-0.4954,0.0,0.0,0.0,0.0,0.0,0.0,0.0,0.0,0.0,0.0,0.0,-5.2391,-5.8876,-6.5372,-6.9496,-7.0268,-7.0717,-7.1155,-7.1596,-7.3113,-7.4167,-7.4621,-7.6112,-7.6652,-7.5452,-7.6558,-7.7459,-7.7618,-7.8091,-7.8521,-7.8574,-7.6387,-7.4138,-7.2818,-7.2924,-7.2548,-7.0637,-7.1335,-7.1613,-6.9387,-6.7241,-6.6769,-6.9407,-6.9603,-6.9258,-6.9232,-6.959,-6.9813,-6.9695,-6.8872,-6.8185,-6.8037,-6.562,-6.3754,-6.4092,-6.1734,-5.9508,-5.96,-6.148,-6.2604,7.9689,7.9653,7.8876,7.7237,7.5212,7.5212,7.5483,7.5934,7.5573,7.5535,7.5603,7.4843,7.4481,7.4393,7.3959,7.3951,7.4188,7.4359,7.4546,7.476,7.4672,7.4519,7.4469,7.5334,7.5416,7.4922,7.4022,7.3595,7.3349,7.099,6.8759,6.681,6.3839,5.985,5.4922,5.39,5.4374,5.6514,5.3376,5.0574,4.7886,4.5205,4.2725,4.0371,3.7562,3.5174,3.3169,2.8585,2.4094,1.9924,1.5455,1.1849,0.9596,-0.1377,0.0,0.0,0.0,0.0,0.0,0.0,0.0,0.0,0.0,-4.1971,-4.81,0.0,-5.3868,0.0,-6.3875,-6.8368,-6.9514,-6.8795,0.0,0.0,-6.9781,-7.0425,-7.0442,-7.2832,-7.3779,-7.1971,-7.39,-7.533,-7.5071,-7.5731,-7.6125,-7.5544,-7.2446,-6.9979,-6.9337,-6.9859,-6.9444,-6.7584,-6.735,-6.7025,-6.5026,-6.3826,-6.465,-6.8542,-6.9186,-6.9008,-6.856,-6.8527,-6.8364,-6.795,-6.6758,-6.6133,-6.6647,-6.4225,-6.237,-6.3194,-6.2285,-6.0942,-6.0377,-5.9928,-5.9406,7.6403,7.6114,7.3166,7.2237,7.2792,7.2757,7.4016,7.5862,7.4454,7.4147,7.433,7.1421,7.0206,7.0268,6.7485,0.0,7.0552,7.012,7.1592,7.4636,7.461,7.4519,7.4204,7.3497,7.2577,7.1263,6.9273,6.8323,6.8249,6.483,6.2735,6.231,5.9508,5.6515,5.3797,5.4104,5.4272,5.4312,5.363,5.1853,4.8859,4.4318,4.0073,3.6247,3.4264,3.2187,2.9628,2.6121,2.209,1.7495,1.1592,0.5077,-0.2064,0.0,0.0,0.0,0.0,0.0,0.0,0.0,0.0,0.0,0.0,0.0,0.0,0.0,0.0,-5.7352,-6.1994,0.0,-6.4218,-6.4512,0.0,0.0,0.0,-6.7841,-6.9345,-7.1203,-7.2244,-7.1969,0.0,0.0,-7.2959,-7.2951,-7.2439,-7.0604,-7.0067,-6.8719,-6.5627,-6.4748,-6.3734,-6.2107,-6.0116,-5.9427,-6.1319,-6.2386,-6.4429,-6.803,-6.9149,-6.8459,-6.6865,-6.6453,-6.5913,-6.5019,-6.4487,-6.4046,-6.2506,-6.1702,-6.089,-6.1199,-5.7873,-5.5569,-5.8078,-5.94,-5.9355,7.2765,6.8933,6.7621,6.7256,6.7528,6.7399,6.8159,6.95,6.8785,6.8658,6.8825,6.7415,6.6545,6.6108,6.4304,0.0,0.0,0.0,6.6843,7.0396,6.939,6.9848,7.1413,7.0058,6.9109,6.8558,6.6385,6.5228,6.5094,6.3166,5.9057,5.2786,0.0,0.0,4.6777,5.0254,5.1837,5.132,5.2841,5.21,4.9015,4.5094,4.0725,3.5713,3.3521,3.0802,2.7732,2.3775,1.8406,1.1754,0.6386,-0.108,0.0,0.0,0.0,0.0,0.0,0.0,0.0,0.0,0.0,0.0,0.0,-4.7716,-4.9475,0.0,0.0,0.0,-6.1663,-6.4219,-6.393,-6.4143,0.0,0.0,0.0,0.0,0.0,0.0,0.0,-6.8547,-6.9741,-7.0672,-7.1153,-6.9447,-6.756,-6.6084,-6.4111,-6.2206,-6.0473,0.0,-5.9642,-6.0486,-5.9914,-5.9995,-6.1786,-6.2887,-6.4036,-6.5566,-6.7594,-6.7915,-6.4239,-6.3669,-6.409,-6.4329,-6.3663,-6.2843,-6.2579,-6.1574,-6.0519,-5.8993,-5.7272,-5.5865,-5.5575,-5.6117,-5.615,6.802,0.0,0.0,0.0,0.0,6.2371,6.2854,6.4083,6.3547,6.3337,6.3324,6.2277,0.0,0.0,0.0,0.0,0.0,0.0,6.272,6.6204,6.6445,6.7369,6.8908,6.7483,6.668,6.639,6.3429,6.1809,6.1348,5.8507,5.2628,4.4319,0.0,0.0,0.0,0.0,4.8597,4.8256,5.1077,5.1308,4.8489,4.5115,4.1302,3.6779,3.2683,2.9003,2.5603,2.0301,1.4177,0.6778,0.0153,0.0,0.0,0.0,0.0,0.0,0.0,0.0,0.0,0.0,0.0,0.0,0.0,0.0,0.0,0.0,0.0,0.0,0.0,0.0,-6.2187,-6.3102,-6.3084,0.0,0.0,0.0,0.0,0.0,0.0,0.0,0.0,0.0,-6.8549,-6.6844,-6.511,0.0,0.0,-5.911,-5.7876,-5.7096,-5.7036,-5.812,-5.8342,0.0,-6.0859,-6.1355,-6.1631,-6.2293,-6.4898,-6.5755,-6.2103,-6.1935,-6.2528,-6.3188,-6.24,-6.1655,-6.1881,-6.0761,-5.9276,-5.7959,-5.6765,-5.5333,-5.3528,-5.3333,-5.3522,0.0,0.0,0.0,0.0,0.0,0.0,0.0,0.0,5.9539,5.8832,0.0,5.5679,0.0,0.0,0.0,0.0,0.0,5.7491,0.0,0.0,6.7267,6.8737,6.7041,6.6132,6.5551,6.4878,5.9986,5.7273,5.6355,4.8605,0.0,0.0,0.0,0.0,0.0,0.0,4.4705,4.497,4.818,4.8902,4.7003,4.4005,4.1341,3.9015,3.1595,2.6047,2.2789,1.5601,0.9084,0.345,-0.7117,0.0,0.0,0.0,0.0,0.0,0.0,0.0,0.0,0.0,0.0,0.0,0.0,0.0,0.0,0.0,0.0,0.0,0.0,0.0,0.0,-6.0211,0.0,0.0,0.0,0.0,0.0,0.0,0.0,0.0,0.0,0.0,-6.4926,-6.577,-6.6282,-6.469,0.0,0.0,0.0,0.0,-5.6423,-5.3855,-5.332,-5.4148,-5.6184,-5.6011,-5.652,-5.8976,0.0,0.0,-6.1511,-6.1785,-6.1493,-5.9966,-6.0207,-6.0271,-5.9608,-5.8148,-5.7118,-5.7926,-5.5209,-5.2436,-5.1548,-5.2653,-5.2893,0.0,0.0,0.0,0.0,0.0,0.0,0.0,0.0,0.0,5.3122,0.0,5.174,0.0,0.0,0.0,0.0,0.0,0.0,0.0,0.0,5.7081,5.7879,5.8014,5.6991,5.5797,0.0,5.1395,4.7606,0.0,0.0,0.0,0.0,0.0,0.0,0.0,0.0,4.4253,4.3514,4.9491,5.1862,4.9991,4.5665,4.2483,4.0758,3.4242,2.5543,1.4995,1.0029,0.2566,0.0,0.0,0.0,0.0,0.0,0.0,0.0,0.0,0.0,0.0,0.0,0.0,0.0,0.0,0.0,0.0,0.0,0.0,0.0,0.0,0.0,0.0,0.0,-6.2476,0.0,0.0,0.0,0.0,0.0,0.0,0.0,0.0,0.0,-6.5192,-6.2732,-6.1952,-6.4784,-5.9869,-5.7003,-5.9525,0.0,0.0,0.0,0.0,0.0,0.0,0.0,-5.8343,-5.5677,-5.6871,-5.8046,-5.7589,-5.865,-5.9648,-6.0145,0.0,0.0,-6.0551,-5.9208,-5.7427,-5.5547,-5.4004,-5.2833,-5.2471,-5.2769,-5.274,0.0,0.0,0.0,0.0,0.0,0.0,0.0,0.0,0.0,4.8596,4.8441,0.0,0.0,0.0,0.0,0.0,0.0,0.0,0.0,0.0,0.0,0.0,5.0569,4.9834,0.0,0.0,0.0,0.0,0.0,0.0,0.0,0.0,0.0,0.0,0.0,0.0,4.2688,4.2501,4.8905,5.1988,5.0993,4.621,4.2483,3.9993,3.4689,2.5524,1.2409,0.0,0.0,0.0,0.0,0.0,0.0,0.0,0.0,0.0,0.0,0.0,0.0,0.0,0.0,0.0,0.0,0.0,0.0,0.0,0.0,0.0,0.0,0.0,0.0,0.0,-6.1224,0.0,0.0,0.0,0.0,0.0,0.0,0.0,0.0,0.0,0.0,0.0,-6.1074,-6.4142,-5.9622,-5.7163,-6.0075,-5.7566,-5.6067,0.0,0.0,0.0,0.0,0.0,0.0,0.0,0.0,0.0,0.0,0.0,0.0,0.0,0.0,-6.1973,-6.2109,-6.0778,-5.889,-5.6409,0.0,0.0,0.0,0.0,0.0,0.0,0.0,0.0,0.0,0.0,0.0,0.0,0.0,0.0,0.0,4.5157,0.0,0.0,4.2407,0.0,0.0,0.0,0.0,0.0,0.0,0.0,0.0,0.0,0.0,0.0,0.0,0.0,0.0,0.0,0.0,0.0,0.0,0.0,0.0,0.0,0.0,3.996,4.1704,4.6266,4.8895,4.984,4.5522,4.1192,3.7117,3.2669,2.5697,1.5354,0.0,0.0,0.0,0.0,0.0,0.0,0.0,0.0,0.0,0.0,0.0,0.0,0.0,0.0,0.0,0.0,0.0,0.0,0.0,0.0,0.0,0.0,0.0,0.0,0.0,0.0,-6.0017,-6.2957,-6.5549,0.0,0.0,0.0,0.0,0.0,0.0,0.0,0.0,0.0,0.0,-6.3105,-6.2671,-6.0764,-5.8568,-5.7195,-5.7062,-5.7086,-5.7389,-5.8288,-5.8828,-5.9314,0.0,0.0,0.0,0.0,0.0,0.0,0.0,0.0,0.0,0.0,0.0,0.0,0.0,0.0,0.0,0.0,0.0,0.0,0.0,0.0,0.0,0.0,0.0,0.0,0.0,0.0,0.0,0.0,0.0,0.0,0.0,0.0,0.0,0.0,0.0,0.0,0.0,0.0,0.0,0.0,0.0,0.0,0.0,0.0,0.0,0.0,0.0,0.0,0.0,0.0,0.0,0.0,0.0,0.0,4.0132,4.0085,4.7061,4.994,4.8668,4.674,4.3506,3.8978,3.5517,2.8283,0.0,0.0,0.0,0.0,0.0,0.0,0.0,0.0,0.0,0.0,0.0,0.0,0.0,0.0,0.0,0.0,0.0,0.0,0.0,0.0,0.0,0.0,0.0,0.0,0.0,0.0,0.0,0.0,-6.3463,-6.5453,-6.7111,0.0,0.0,0.0,0.0,0.0,0.0,0.0,0.0,0.0,0.0,-6.0361,-6.1558,-6.1122,-5.9954,-5.8331,-6.022,-6.1415,-5.9842,-6.125,-6.3297,-6.5272,0.0,0.0,0.0,0.0,0.0,0.0,0.0,0.0,0.0,0.0,0.0,0.0,0.0,0.0,0.0,0.0,0.0,0.0,0.0,0.0,0.0,0.0,0.0,0.0,0.0,0.0,0.0,0.0,0.0,0.0,0.0,0.0,0.0,0.0,0.0,0.0,0.0,0.0,0.0,0.0,0.0,0.0,0.0,0.0,0.0,0.0,0.0,0.0,0.0,0.0,0.0,0.0,0.0,4.0065,4.0575,4.7291,5.0336,4.9075,4.6924,4.3506,3.8712,3.4256,2.5557,0.0,0.0,0.0,0.0,0.0,0.0,0.0,0.0,0.0,0.0,0.0,0.0,0.0,0.0,0.0,0.0,0.0,0.0,0.0,0.0,0.0,0.0,0.0,0.0,0.0,0.0,0.0,0.0,-6.2756,-6.4185,-6.5295,0.0,0.0,0.0,0.0,0.0,0.0,0.0,0.0,0.0,0.0,-6.2096,-6.3096,-6.2577,0.0,0.0,-6.1404,-6.204,-6.0445,-6.2908,-6.5655,-6.7527,-6.538,0.0,0.0,0.0,0.0,0.0,0.0,0.0,0.0,0.0,0.0,0.0,0.0,0.0,0.0,0.0,0.0,0.0,0.0,0.0,0.0,0.0,0.0,0.0,0.0,0.0,0.0,0.0,0.0,0.0,0.0,0.0,0.0,0.0,0.0,0.0,0.0,0.0,0.0,0.0,0.0,0.0,0.0,0.0,0.0,0.0,0.0,0.0,0.0,0.0,0.0,0.0,0.0,0.0,4.1948,4.6901,4.9806,5.0484,4.6426,4.1834,3.6669,2.999,1.9507,0.0,0.0,0.0,0.0,0.0,0.0,0.0,0.0,0.0,0.0,0.0,0.0,0.0,0.0,0.0,0.0,0.0,0.0,0.0,0.0,0.0,0.0,0.0,0.0,0.0,0.0,0.0,0.0,0.0,0.0,0.0,0.0,0.0,0.0,0.0,0.0,0.0,0.0,0.0,0.0,0.0,-6.6449,-6.4978,-6.3159,-6.2037,0.0,0.0,-6.0351,-6.0744,-6.39,-6.6609,-6.7613,0.0,0.0,0.0,0.0,0.0,0.0,0.0,0.0,0.0,0.0,0.0,0.0,0.0,0.0,0.0,0.0,0.0,0.0,0.0,0.0,0.0,0.0,0.0,0.0,0.0,0.0,0.0,0.0,0.0,0.0,0.0,0.0,0.0,0.0,0.0,0.0,0.0,0.0,0.0,0.0,0.0,0.0,0.0,0.0,0.0,0.0,0.0,0.0,0.0,0.0,0.0,0.0,0.0,0.0,3.6537,4.5409,4.9357,4.7672,4.6817,4.2888,3.5464,3.0877,0.0,0.0,0.0,0.0,0.0,0.0,0.0,0.0,0.0,0.0,0.0,0.0,0.0,0.0,0.0,0.0,0.0,0.0,0.0,0.0,0.0,0.0,0.0,0.0,0.0,0.0,0.0,-5.9776,0.0,0.0,0.0,0.0,0.0,0.0,0.0,0.0,0.0,0.0,0.0,0.0,0.0,0.0,-6.6923,-6.3902,-6.4393,-6.459,0.0,0.0,-6.2794,-6.3281,-6.5014,-6.6383,0.0,0.0,0.0,0.0,0.0,0.0,0.0,0.0,0.0,0.0,0.0,0.0,0.0,0.0,0.0,0.0,0.0,0.0,0.0,0.0,0.0,0.0,0.0,0.0,0.0,0.0,0.0,0.0,0.0,0.0,0.0,0.0,0.0,0.0,0.0,0.0,0.0,0.0,0.0,0.0,0.0,0.0,0.0,0.0,0.0,0.0,0.0,0.0,0.0,0.0,0.0,0.0,0.0,0.0,3.2501,3.4317,4.1764,4.6045,4.6827,4.5167,4.1002,3.4535,2.7341,1.563,0.0,0.0,0.0,0.0,0.0,0.0,0.0,0.0,0.0,0.0,0.0,0.0,0.0,0.0,0.0,0.0,0.0,0.0,0.0,0.0,0.0,0.0,0.0,0.0,0.0,0.0,0.0,0.0,0.0,0.0,0.0,0.0,0.0,0.0,0.0,0.0,0.0,0.0,0.0,0.0,0.0,0.0,-6.5654,-6.5881,0.0,0.0,0.0,-6.5675,-6.5964,0.0,0.0,0.0,0.0,0.0,0.0,0.0,0.0,0.0,0.0,0.0,0.0,0.0,0.0,0.0,0.0,0.0,0.0,0.0,0.0,0.0,0.0,0.0,0.0,0.0,0.0,0.0,0.0,0.0,0.0,0.0,0.0,0.0,0.0,0.0,0.0,0.0,0.0,0.0,0.0,0.0,0.0,0.0,0.0,0.0,0.0,0.0,0.0,0.0,0.0,0.0,0.0,0.0,0.0,0.0,0.0,0.0,3.3577,3.7986,4.2706,4.7068,4.2764,3.7908,3.3183,2.2305,0.9534,0.0,0.0,0.0,0.0,0.0,0.0,0.0,0.0,0.0,0.0,0.0,0.0,0.0,0.0,0.0,0.0,0.0,0.0,0.0,0.0,0.0,0.0,0.0,0.0,0.0,0.0,0.0,0.0,0.0,0.0,0.0,0.0,0.0,0.0,0.0,0.0,0.0,0.0,0.0,0.0,0.0,-6.7364,-6.8783,-6.7511,-6.6363,0.0,0.0,-6.8301,-6.83,-6.8828,0.0,0.0,0.0,0.0,0.0,0.0,0.0,0.0,0.0,0.0,0.0,0.0,0.0,0.0,0.0,0.0,0.0,0.0,0.0,0.0,0.0,0.0,0.0,0.0,0.0,0.0,0.0,0.0,0.0,0.0,0.0,0.0,0.0,0.0,0.0,0.0,0.0,0.0,0.0,0.0,0.0,0.0,0.0,0.0,0.0,0.0,0.0,0.0,0.0,0.0,0.0,0.0,0.0,0.0,0.0,0.0,3.2754,4.072,4.581,4.7375,4.3051,3.692,2.8878,2.1801,0.9506,0.0,0.0,0.0,0.0,0.0,0.0,0.0,0.0,0.0,0.0,0.0,0.0,0.0,0.0,0.0,0.0,0.0,0.0,0.0,0.0,0.0,0.0,0.0,0.0,0.0,0.0,0.0,0.0,0.0,0.0,0.0,0.0,0.0,0.0,0.0,0.0,0.0,0.0,0.0,0.0,0.0,-6.9318,-7.0984,-6.9604,0.0,0.0,0.0,0.0,-6.8753,-6.8736,0.0,0.0,0.0,0.0,0.0,0.0,0.0,0.0,0.0,0.0,0.0,0.0,0.0,0.0,0.0,0.0,0.0,0.0,0.0,0.0,0.0,0.0,0.0,0.0,0.0,0.0,0.0,0.0,0.0,0.0,0.0,0.0,0.0,0.0,0.0,0.0,0.0,0.0,0.0,0.0,0.0,0.0,0.0,0.0,0.0,0.0,0.0,0.0,0.0,0.0,0.0,0.0,0.0,0.0,0.0,0.0,3.3401,3.8728,4.2315,4.382,3.9244,3.2785,2.4513,1.5946,0.3144,0.0,0.0,0.0,0.0,0.0,0.0,0.0,0.0,0.0,0.0,0.0,0.0,0.0,0.0,0.0,0.0,0.0,0.0,0.0,0.0,0.0,0.0,0.0,0.0,0.0,0.0,0.0,0.0,0.0,0.0,0.0,0.0,0.0,0.0,0.0,0.0,0.0,0.0,0.0,0.0,-6.8473,-6.8997,-7.0917,0.0,0.0,0.0,0.0,0.0,0.0,-7.0048,-6.9917,0.0,0.0,0.0,0.0,0.0,0.0,0.0,0.0,0.0,0.0,0.0,0.0,0.0,0.0,0.0,0.0,0.0,0.0,0.0,0.0,0.0,0.0,0.0,0.0,0.0,0.0,0.0,0.0,0.0,0.0,0.0,0.0,0.0,0.0,0.0,0.0,0.0,0.0,0.0,0.0,0.0,0.0,0.0,0.0,0.0,0.0,0.0,0.0,0.0,0.0,0.0,0.0,0.0,0.0,0.0,3.3437,3.4643,3.6759,3.9848,3.4702,2.8044,2.0096,0.9708,-0.3463,-1.8768,0.0,0.0,0.0,0.0,0.0,0.0,0.0,0.0,0.0,0.0,0.0,0.0,0.0,0.0,0.0,0.0,0.0,0.0,0.0,0.0,0.0,0.0,0.0,0.0,0.0,0.0,0.0,0.0,0.0,0.0,0.0,0.0,0.0,0.0,0.0,0.0,0.0,0.0,0.0,-6.9029,-6.8534,0.0,0.0,0.0,0.0,0.0,0.0,0.0,0.0,-7.0772,0.0,0.0,0.0,0.0,0.0,0.0,0.0,0.0,0.0,0.0,0.0,0.0,0.0,0.0,0.0,0.0,0.0,0.0,0.0,0.0,0.0,0.0,0.0,0.0,0.0,0.0,0.0,0.0,0.0,0.0,0.0,0.0,0.0,0.0,0.0,0.0,0.0,0.0,0.0,0.0,0.0,0.0,0.0,0.0,0.0,0.0,0.0,0.0,0.0,0.0,0.0,0.0,0.0,0.0,0.0,0.0,2.9548,3.3116,3.8424,3.2815,2.5339,1.667,0.9342,-0.2576,-1.9445,0.0,0.0,0.0,0.0,0.0,0.0,0.0,0.0,0.0,0.0,0.0,0.0,0.0,0.0,0.0,0.0,0.0,0.0,0.0,0.0,0.0,0.0,0.0,0.0,0.0,0.0,0.0,0.0,0.0,0.0,0.0,0.0,0.0,0.0,0.0,0.0,0.0,0.0,-6.9735,-6.9507,0.0,0.0,0.0,0.0,0.0,0.0,0.0,0.0,-7.0509,0.0,0.0,0.0,0.0,0.0,0.0,0.0,0.0,0.0,0.0,0.0,0.0,0.0,0.0,0.0,0.0,0.0,0.0,0.0,0.0,0.0,0.0,0.0,0.0,0.0,0.0,0.0,0.0,0.0,0.0,0.0,0.0,0.0,0.0,0.0,0.0,0.0,0.0,0.0,0.0,0.0,0.0,0.0,0.0,0.0,0.0,0.0,0.0,0.0,0.0,0.0,0.0,0.0,0.0,0.0,0.0,0.0,0.0,3.0793,3.4009,2.8347,2.1732,1.4359,0.5704,-0.6096,0.0,0.0,0.0,0.0,0.0,0.0,0.0,0.0,0.0,0.0,0.0,0.0,0.0,0.0,0.0,0.0,0.0,0.0,0.0,0.0,0.0,0.0,0.0,0.0,0.0,0.0,0.0,0.0,0.0,0.0,0.0,0.0,0.0,0.0,0.0,0.0,0.0,0.0,0.0,0.0,0.0,0.0,0.0,0.0,0.0,0.0,0.0,0.0,0.0,0.0,0.0,0.0,0.0,0.0,0.0,0.0,0.0,0.0,0.0,0.0,0.0,0.0,0.0,0.0,0.0,0.0,0.0,0.0,0.0,0.0,0.0,0.0,0.0,0.0,0.0,0.0,0.0,0.0,0.0,0.0,0.0,0.0,0.0,0.0,0.0,0.0,0.0,0.0,0.0,0.0,0.0,0.0,0.0,0.0,0.0,0.0,0.0,0.0,0.0,0.0,0.0,0.0,0.0,0.0,0.0,0.0,0.0,0.0,2.7597,2.9142,2.4381,1.8031,1.0418,0.0291,-1.0703,0.0,0.0,0.0,0.0,0.0,0.0,0.0,0.0,0.0,0.0,0.0,0.0,0.0,0.0,0.0,0.0,0.0,0.0,0.0,0.0,0.0,0.0,0.0,0.0,0.0,0.0,0.0,0.0,0.0,0.0,0.0,0.0,0.0,0.0,0.0,0.0,0.0,0.0,0.0,0.0,0.0,0.0,0.0,0.0,0.0,0.0,0.0,0.0,-7.0972,0.0,0.0,0.0,0.0,0.0,0.0,0.0,0.0,0.0,0.0,0.0,0.0,0.0,0.0,0.0,0.0,0.0,0.0,0.0,0.0,0.0,0.0,0.0,0.0,0.0,0.0,0.0,0.0,0.0,0.0,0.0,0.0,0.0,0.0,0.0,0.0,0.0,0.0,0.0,0.0,0.0,0.0,0.0,0.0,0.0,0.0,0.0,0.0,0.0,0.0,0.0,0.0,0.0,0.0,0.0,0.0,0.0,0.0,0.0,2.1387,2.5353,2.2551,1.4842,0.2122,-0.6441,-1.4441,0.0,0.0,0.0,0.0,0.0,0.0,0.0,0.0,0.0,0.0,0.0,0.0,0.0,0.0,0.0,0.0,0.0,0.0,0.0,0.0,0.0,0.0,0.0,0.0,0.0,0.0,0.0,0.0,0.0,0.0,0.0,0.0,0.0,0.0,0.0,0.0,0.0,0.0,0.0,0.0,0.0,0.0,0.0,0.0,0.0,0.0,0.0,0.0,0.0,0.0,0.0,0.0,0.0,0.0,0.0,0.0,0.0,0.0,0.0,0.0,0.0,0.0,0.0,0.0,0.0,0.0,0.0,0.0,0.0,0.0,0.0,0.0,0.0,0.0,0.0,0.0,0.0,0.0,0.0,0.0,0.0,0.0,0.0,0.0,0.0,0.0,0.0,0.0,0.0,0.0,0.0,0.0,0.0,0.0,0.0,0.0,0.0,0.0,0.0,0.0,0.0,0.0,0.0,0.0,0.0,0.0,0.0,0.0,1.7816,2.0811,1.5595,0.7255,-0.4256,-0.9299,-1.4825,0.0,0.0,0.0,0.0,0.0,0.0,0.0,0.0,0.0,0.0,0.0,0.0,0.0,0.0,0.0,0.0,0.0,0.0,0.0,0.0,0.0,0.0,0.0,0.0,0.0,0.0,0.0,0.0,0.0,0.0,0.0,0.0,0.0,0.0,0.0,0.0,0.0,0.0,0.0,0.0,0.0,0.0,0.0,0.0,0.0,0.0,0.0,0.0,0.0,0.0,0.0,0.0,0.0,0.0,0.0,0.0,0.0,0.0,0.0,0.0,0.0,0.0,0.0,0.0,0.0,0.0,0.0,0.0,0.0,0.0,0.0,0.0,0.0,0.0,0.0,0.0,0.0,0.0,0.0,0.0,0.0,0.0,0.0,0.0,0.0,0.0,0.0,0.0,0.0,0.0,0.0,0.0,0.0,0.0,0.0,0.0,0.0,0.0,0.0,0.0,0.0,0.0,0.0,0.0,0.0,0.0,0.0,0.0,0.0,1.4513,0.7876,0.0887,-0.6409,-1.0962,-1.5741,0.0,0.0,0.0,0.0,0.0,0.0,0.0,0.0,0.0,0.0,0.0,0.0,0.0,0.0,0.0,0.0,0.0,0.0,0.0,0.0,0.0,0.0,0.0,0.0,0.0,0.0,0.0,0.0,0.0,0.0,0.0,0.0,0.0,0.0,0.0,0.0,0.0,0.0,0.0,0.0,0.0,0.0,0.0,0.0,0.0,0.0,0.0,0.0,0.0,0.0,0.0,0.0,0.0,0.0,0.0,0.0,0.0,0.0,0.0,0.0,0.0,0.0,0.0,0.0,0.0,0.0,0.0,0.0,0.0,0.0,0.0,0.0,0.0,0.0,0.0,0.0,0.0,0.0,0.0,0.0,0.0,0.0,0.0,0.0,0.0,0.0,0.0,0.0,0.0,0.0,0.0,0.0,0.0,0.0,0.0,0.0,0.0,0.0,0.0,0.0,0.0,0.0,0.0,0.0,0.0,0.0,0.0,0.0,0.0,0.6171,0.0987,-0.2124,-0.2829,-1.2019,-1.8295,0.0,0.0,0.0,0.0,0.0,0.0,0.0,0.0,0.0,0.0,0.0,0.0,0.0,0.0,0.0,0.0,0.0,0.0,0.0,0.0,0.0,0.0,0.0,0.0,0.0,0.0,0.0,0.0,0.0,0.0,0.0,0.0,0.0,0.0,0.0,0.0,0.0,0.0,0.0,0.0,0.0,0.0,0.0,0.0,0.0,0.0,0.0,0.0,0.0,0.0,0.0,0.0,0.0,0.0,0.0,0.0,0.0,0.0,0.0,0.0,0.0,0.0,0.0,0.0,0.0,0.0,0.0,0.0,0.0,0.0,0.0,0.0,0.0,0.0,0.0,0.0,0.0,0.0,0.0,0.0,0.0,0.0,0.0,0.0,0.0,0.0,0.0,0.0,0.0,0.0,0.0,0.0,0.0,0.0,0.0,0.0,0.0,0.0,0.0,0.0,0.0,0.0,0.0,0.0,0.0,0.0,0.0,0.0,0.0,-0.1472,-0.2953,-0.4564,-0.6425,-1.2701,-1.7898,-2.1632,0.0,0.0,0.0,0.0,0.0,0.0,0.0,0.0,0.0,0.0,0.0,0.0,0.0,0.0,0.0,0.0,0.0,0.0,0.0,0.0,0.0,0.0,0.0,0.0,0.0,0.0,0.0,0.0,0.0,0.0,0.0,0.0,0.0,0.0,0.0,0.0,0.0,0.0,0.0,0.0,0.0,0.0,0.0,0.0,0.0,0.0,0.0,0.0,0.0,0.0,0.0,0.0,0.0,0.0,0.0,0.0,0.0,0.0,0.0,0.0,0.0,0.0,0.0,0.0,0.0,0.0,0.0,0.0,0.0,0.0,0.0,0.0,0.0,0.0,0.0,0.0,0.0,0.0,0.0,0.0,0.0,0.0,0.0,0.0,0.0,0.0,0.0,0.0,0.0,0.0,0.0,0.0,0.0,0.0,0.0,0.0,0.0,0.0,0.0,0.0,0.0,0.0,0.0,0.0,0.0,0.0,0.0,0.0,-0.6078,-0.5369,-0.6368,-0.9459,-1.3273,-1.7688,0.0,0.0,0.0,0.0,0.0,0.0,0.0,0.0,0.0,0.0,0.0,0.0,0.0,0.0,0.0,0.0,0.0,0.0,0.0,0.0,0.0,0.0,0.0,0.0,0.0,0.0,0.0,0.0,0.0,0.0,0.0,0.0,0.0,0.0,0.0,0.0,0.0,0.0,0.0,0.0,0.0,0.0,0.0,0.0,0.0,0.0,0.0,0.0,0.0,0.0,0.0,0.0,0.0,0.0,0.0,0.0,0.0,0.0,0.0,0.0,0.0,0.0,0.0,0.0,0.0,0.0,0.0,0.0,0.0,0.0,0.0,0.0,0.0,0.0,0.0,0.0,0.0,0.0,0.0,0.0,0.0,0.0,0.0,0.0,0.0,0.0,0.0,0.0,0.0,0.0,0.0,0.0,0.0,0.0,0.0,0.0,0.0,0.0,0.0,0.0,0.0,0.0,0.0,0.0,0.0,0.0,0.0,0.0,-0.6544,-0.7048,-0.6198,-0.7522,-1.0848,-1.367,-1.8358,0.0,0.0,0.0,0.0,0.0,0.0,0.0,0.0,0.0,0.0,0.0,0.0,0.0,0.0,0.0,0.0,0.0,0.0,0.0,0.0,0.0,0.0,0.0,0.0,0.0,0.0,0.0,0.0,0.0,0.0,0.0,0.0,0.0,0.0,0.0,0.0,0.0,0.0,0.0,0.0,0.0,0.0,0.0,0.0,0.0,0.0,0.0,0.0,0.0,0.0,0.0,0.0,0.0,0.0,0.0,0.0,0.0,0.0,0.0,0.0,0.0,0.0,0.0,0.0,0.0,0.0,0.0,0.0,0.0,0.0,0.0,0.0,0.0,0.0,0.0,0.0,0.0,0.0,0.0,0.0,0.0,0.0,0.0,0.0,0.0,0.0,0.0,0.0,0.0,0.0,0.0,0.0,0.0,0.0,0.0,0.0,0.0,0.0,0.0,0.0,0.0,0.0,0.0,0.0,0.0,0.0,0.0,0.0,0.0,-0.6862,0.0,-1.0568,0.0,-1.5613,-1.9005,0.0,0.0,0.0,0.0,0.0,0.0,0.0,0.0,0.0,0.0,0.0,0.0,0.0,0.0,0.0,0.0,0.0,0.0,0.0,0.0,0.0,0.0,0.0,0.0,0.0,0.0,0.0,0.0,0.0,0.0,0.0,0.0,0.0,0.0,0.0,0.0,0.0,0.0,0.0,0.0,0.0,0.0,0.0,0.0,0.0,0.0,0.0,0.0,0.0,0.0,0.0,0.0,0.0,0.0,0.0,0.0,0.0,0.0,0.0,0.0,0.0,0.0,0.0,0.0,0.0,0.0,0.0,0.0,0.0,0.0,0.0,0.0,0.0,0.0,0.0,0.0,0.0,0.0,0.0,0.0,0.0,0.0,0.0,0.0,0.0,0.0,0.0,0.0,0.0,0.0,0.0,0.0,0.0,0.0,0.0,0.0,0.0,0.0,0.0,0.0,0.0,0.0,0.0,0.0,0.0,0.0,0.0,0.0,0.0,-0.6945,-0.9882,-1.2715,-1.5119,-1.6767,-1.9475,0.0,0.0,0.0,0.0,0.0,0.0,0.0,0.0,0.0,0.0,0.0,0.0,0.0,0.0,0.0,0.0,0.0,0.0,0.0,0.0,0.0,0.0,0.0,0.0,0.0,0.0,0.0,0.0,0.0,0.0,0.0,0.0,0.0,0.0,0.0,0.0,0.0,0.0,0.0,0.0,0.0,0.0,0.0,0.0,0.0,0.0,0.0,0.0,0.0,0.0,0.0,0.0,0.0,0.0,0.0,0.0,0.0,0.0,0.0,0.0,0.0,0.0,0.0,0.0,0.0,0.0,0.0,0.0,0.0,0.0,0.0,0.0,0.0,0.0,0.0,0.0,0.0,0.0,0.0,0.0,0.0,0.0,0.0,0.0,0.0,0.0,0.0,0.0,0.0,0.0,0.0,0.0,0.0,0.0,0.0,0.0,0.0,0.0,0.0,0.0,0.0,0.0,0.0,0.0,0.0,0.0,0.0,0.0,0.0,0.0,-1.0841,-1.382,-1.5901,-1.6538,-1.9487,0.0,0.0,0.0,0.0,0.0,0.0,0.0,0.0,0.0,0.0,0.0,0.0,0.0,0.0,0.0,0.0,0.0,0.0,0.0,0.0,0.0,0.0,0.0,0.0,0.0,0.0,0.0,0.0,0.0,0.0,0.0,0.0,0.0,0.0,0.0,0.0,0.0,0.0,0.0,0.0,0.0,0.0,0.0,0.0,0.0,0.0,0.0,0.0,0.0,0.0,0.0,0.0,0.0,0.0,0.0,0.0,0.0,0.0,0.0,0.0,0.0,0.0,0.0,0.0,0.0,0.0,0.0,0.0,0.0,0.0,0.0,0.0,0.0,0.0,0.0,0.0,0.0,0.0,0.0,0.0,0.0,0.0,0.0,0.0,0.0,0.0,0.0,0.0,0.0,0.0,0.0,0.0,0.0,0.0,0.0,0.0,0.0,0.0,0.0,0.0,0.0,0.0,0.0,0.0,0.0,0.0,0.0,0.0,0.0,0.0,-1.1324,0.0,-1.3501,-1.4712,-1.726,-2.1208,0.0,0.0,0.0,0.0,0.0,0.0,0.0,0.0,0.0,0.0,0.0,0.0,0.0,0.0,0.0,0.0,0.0,0.0,0.0,0.0,0.0,0.0,0.0,0.0,0.0,0.0,0.0,0.0,0.0,0.0,0.0,0.0,0.0,0.0,0.0,0.0,0.0,0.0,0.0,0.0,0.0,0.0,0.0,0.0,0.0,0.0,0.0,0.0,0.0,0.0,0.0,0.0,0.0,0.0,0.0,0.0,0.0,0.0,0.0,0.0,0.0,0.0,0.0,0.0,0.0,0.0,0.0,0.0,0.0,0.0,0.0,0.0,0.0,0.0,0.0,0.0,0.0,0.0,0.0,0.0,0.0,0.0,0.0,0.0,0.0,0.0,0.0,0.0,0.0,0.0,0.0,0.0,0.0,0.0,0.0,0.0,0.0,0.0,0.0,0.0,0.0,0.0,0.0,0.0,0.0,0.0,0.0,0.0,0.0,0.0,0.0,-1.1809,-1.3645,-1.6682,0.0,0.0,0.0,0.0,0.0,0.0,0.0,0.0,0.0,0.0,0.0,0.0,0.0,0.0,0.0,0.0,0.0,0.0,0.0,0.0,0.0,0.0,0.0,0.0,0.0,0.0,0.0,0.0,0.0,0.0,0.0,0.0,0.0,0.0,0.0,0.0,0.0,0.0,0.0,0.0,0.0,0.0,0.0,0.0,0.0,0.0,0.0,0.0,0.0,0.0,0.0,0.0,0.0,0.0,0.0,0.0,0.0,0.0,0.0,0.0,0.0,0.0,0.0,0.0,0.0,0.0,0.0,0.0,0.0,0.0,0.0,0.0,0.0,0.0,0.0,0.0,0.0,0.0,0.0,0.0,0.0,0.0,0.0,0.0,0.0,0.0,0.0,0.0,0.0,0.0,0.0,0.0,0.0,0.0,0.0,0.0,0.0,0.0,0.0,0.0,0.0,0.0,0.0,0.0,0.0,0.0,0.0,0.0,0.0,0.0,0.0,-1.1742,-1.0937,-1.2914,0.0,-2.2079,0.0,0.0,0.0,0.0,0.0,0.0,0.0,0.0,0.0,0.0,0.0,0.0,0.0,0.0,0.0,0.0,0.0,0.0,0.0,0.0,0.0,0.0,0.0,0.0,0.0,0.0,0.0,0.0,0.0,0.0,0.0,0.0,0.0,0.0,0.0,0.0,0.0,0.0,0.0,0.0,0.0,0.0,0.0,0.0,0.0,0.0,0.0,0.0,0.0,0.0,0.0,0.0,0.0,0.0,0.0,0.0,0.0,0.0,0.0,0.0,0.0,0.0,0.0,0.0,0.0,0.0,0.0,0.0,0.0,0.0,0.0,0.0,0.0,0.0,0.0,0.0,0.0,0.0,0.0,0.0,0.0,0.0,0.0,0.0,0.0,0.0,0.0,0.0,0.0,0.0,0.0,0.0,0.0,0.0,0.0,0.0,0.0,0.0,0.0,0.0,0.0,0.0,0.0,0.0,0.0,0.0,0.0,0.0,0.0,0.0,0.0,0.0,-1.1446,-1.2459,-1.4183,0.0,0.0,0.0,0.0,0.0,0.0,0.0,0.0,0.0,0.0,0.0,0.0,0.0,0.0,0.0,0.0,0.0,0.0,0.0,0.0,0.0,0.0,0.0,0.0,0.0,0.0,0.0,0.0,0.0,0.0,0.0,0.0,0.0,0.0,0.0,0.0,0.0,0.0,0.0,0.0,0.0,0.0,0.0,0.0,0.0,0.0,0.0,0.0,0.0,0.0,0.0,0.0,0.0,0.0,0.0,0.0,0.0,0.0,0.0,0.0,0.0,0.0,0.0,0.0,0.0,0.0,0.0,0.0,0.0,0.0,0.0,0.0,0.0,0.0,0.0,0.0,0.0,0.0,0.0,0.0,0.0,0.0,0.0,0.0,0.0,0.0,0.0,0.0,0.0,0.0,0.0,0.0,0.0,0.0,0.0,0.0,0.0,0.0,0.0,0.0,0.0,0.0,0.0,0.0,0.0,0.0,0.0,0.0,0.0,0.0,-1.1583,-1.128,-1.0873,-1.1264,-1.243,0.0,0.0,0.0,0.0,0.0,0.0,0.0,0.0,0.0,0.0,0.0,0.0,0.0,0.0,0.0,0.0,0.0,0.0,0.0,0.0,0.0,0.0,0.0,0.0,0.0,0.0,0.0,0.0,0.0,0.0,0.0,0.0,0.0,0.0,0.0,0.0,0.0,0.0,0.0,0.0,0.0,0.0,0.0,0.0,0.0,0.0,0.0,0.0,0.0,0.0,0.0,0.0,0.0,0.0,0.0,0.0,0.0,0.0,0.0,0.0,0.0,0.0,0.0,0.0,0.0,0.0,0.0,0.0,0.0,0.0,0.0,0.0,0.0,0.0,0.0,0.0,0.0,0.0,0.0,0.0,0.0,0.0,0.0,0.0,0.0,0.0,0.0,0.0,0.0,0.0,0.0,0.0,0.0,0.0,0.0,0.0,0.0,0.0,0.0,0.0,0.0,0.0,0.0,0.0,0.0,0.0,0.0,0.0,0.0,0.0,0.0,0.0,0.0,0.0,-1.3527,0.0,0.0,0.0,0.0,0.0,0.0,0.0,0.0,0.0,0.0,0.0,0.0,0.0,0.0,0.0,0.0,0.0,0.0,0.0,0.0,0.0,0.0,0.0,0.0,0.0,0.0,0.0,0.0,0.0,0.0,0.0,0.0,0.0,0.0,0.0,0.0,0.0,0.0,0.0,0.0,0.0,0.0,0.0,0.0,0.0,0.0,0.0,0.0,0.0,0.0,0.0,0.0,0.0,0.0,0.0,0.0,0.0,0.0,0.0,0.0,0.0,0.0,0.0,0.0,0.0,0.0,0.0,0.0,0.0,0.0,0.0,0.0,0.0,0.0,0.0,0.0,0.0,0.0,0.0,0.0,0.0,0.0,0.0,0.0,0.0,0.0,0.0,0.0,0.0,0.0,0.0,0.0,0.0,0.0,0.0,0.0,0.0,0.0,0.0,0.0,0.0,0.0,0.0,0.0,0.0,0.0,0.0,0.0,0.0,0.0,0.0,0.0,0.0,0.0,0.0,0.0,0.0,0.0,0.0,0.0,0.0,0.0,0.0,0.0,0.0,0.0,0.0,0.0,0.0,0.0,0.0,0.0,0.0,0.0,0.0,0.0,0.0,0.0,0.0,0.0,0.0,0.0,0.0,0.0,0.0,0.0,0.0,0.0,0.0,0.0,0.0,0.0,0.0,0.0,0.0,0.0,0.0,0.0,0.0,0.0,0.0,0.0,0.0,0.0,0.0,0.0,0.0,0.0,0.0,0.0,0.0,0.0,0.0,0.0,0.0,0.0,0.0,0.0,0.0,0.0,0.0,0.0,0.0,0.0,0.0,0.0,0.0,0.0,0.0,0.0,0.0,0.0,0.0,0.0,0.0,0.0,0.0,0.0,0.0,0.0,0.0,0.0,0.0,0.0,0.0,0.0,0.0,0.0,0.0,0.0,0.0,0.0,0.0,0.0,0.0,0.0,0.0,0.0,0.0,0.0,0.0,0.0,0.0,0.0,0.0,0.0,0.0,0.0,0.0,0.0,0.0,0.0,0.0,0.0,0.0,0.0,0.0,0.0,0.0,0.0,0.0,0.0,0.0,0.0,0.0,0.0,0.0,0.0,0.0,0.0,0.0,0.0,0.0,0.0,0.0,0.0,0.0,0.0,0.0,0.0,0.0,0.0,0.0,0.0,0.0,0.0,0.0,0.0,0.0,0.0,0.0,0.0,0.0,0.0,0.0,0.0,0.0,0.0,0.0,0.0,0.0,0.0,0.0,0.0,0.0,0.0,0.0,0.0,0.0,0.0,0.0,0.0,0.0,0.0,0.0,0.0,0.0,0.0,0.0,0.0,0.0,0.0,0.0,0.0,0.0,0.0,0.0,0.0,0.0,0.0,0.0,0.0,0.0,0.0,0.0,0.0,0.0,0.0,0.0,0.0,0.0,0.0,0.0,0.0,0.0,0.0,0.0,0.0,0.0,0.0,0.0,0.0,0.0,0.0,0.0,0.0,0.0,0.0,0.0,0.0,0.0,0.0,0.0,0.0,0.0,0.0,0.0,0.0,0.0,0.0,0.0,0.0,0.0,0.0,0.0,0.0,0.0,0.0,0.0,0.0,0.0,0.0,0.0,0.0,0.0,0.0,0.0,0.0,0.0,0.0,0.0,0.0,0.0,0.0,0.0,0.0,0.0,0.0,0.0,0.0,0.0,0.0,0.0,0.0,0.0,0.0,0.0,0.0,0.0,0.0,0.0,0.0,0.0,0.0,0.0,0.0,0.0,0.0,0.0,0.0,0.0,0.0,0.0,0.0,0.0,0.0,0.0,0.0,0.0,0.0,0.0,0.0,0.0,0.0,0.0,0.0,0.0,0.0,0.0,0.0,0.0,0.0,0.0,0.0,0.0,0.0,0.0,0.0,0.0,0.0,0.0,0.0,0.0,0.0,0.0,0.0,0.0,0.0,0.0,0.0,0.0,0.0,0.0,0.0,0.0,0.0,0.0,0.0,0.0,0.0,0.0,0.0,0.0,0.0,0.0,0.0,0.0,0.0,0.0,0.0,0.0,0.0,0.0,0.0,0.0,0.0,0.0,0.0,0.0,0.0,0.0,0.0,0.0,0.0,0.0,0.0,0.0,0.0,0.0,0.0,0.0,0.0,0.0,0.0,0.0,0.0,0.0,0.0,0.0,0.0,0.0,0.0,0.0,0.0,0.0,0.0,0.0,0.0,0.0,0.0,0.0,0.0,0.0,0.0,0.0,0.0,0.0,0.0,0.0,0.0,0.0,0.0,0.0,0.0,0.0,0.0,0.0,0.0,0.0,0.0,0.0,0.0,0.0,0.0,0.0,0.0,0.0,0.0,0.0,0.0,0.0,0.0,0.0,0.0,0.0,0.0,0.0,0.0,0.0,0.0,0.0,0.0,0.0,0.0,0.0,0.0,0.0,0.0,0.0,0.0,0.0,0.0,0.0,0.0,0.0,0.0,0.0,0.0,0.0,0.0,0.0,0.0,0.0,0.0,0.0,0.0,0.0,0.0,0.0,0.0,0.0,0.0,0.0,0.0,0.0,0.0,0.0,0.0,0.0,0.0,0.0,0.0,0.0,0.0,0.0,0.0,0.0,0.0,0.0,0.0,0.0,0.0,0.0,0.0,0.0,0.0,0.0,0.0,0.0,0.0,0.0,0.0,0.0,0.0,0.0,0.0,0.0,0.0,0.0,0.0,0.0,0.0,0.0,0.0,0.0,0.0,0.0,0.0,0.0,0.0,0.0,0.0,0.0,0.0,0.0,0.0,0.0,0.0,0.0,0.0,0.0,0.0,0.0,0.0,0.0,0.0,0.0,0.0,0.0,0.0,0.0,0.0,0.0,0.0,0.0,0.0,0.0,0.0,0.0,0.0,0.0,0.0,0.0,0.0,0.0,0.0,0.0,0.0,0.0,0.0,0.0,0.0,0.0,0.0,0.0,0.0,0.0,0.0,0.0,0.0,0.0,0.0,0.0,0.0,0.0,0.0,0.0,0.0,0.0,0.0,0.0,0.0,0.0,0.0,0.0,0.0,0.0,0.0,0.0,0.0,0.0,0.0,0.0,0.0,0.0,0.0,0.0,0.0,0.0,0.0,0.0,0.0,0.0,0.0,0.0,0.0,0.0,0.0,0.0,0.0,0.0,0.0,0.0,0.0,0.0,0.0,0.0,0.0,0.0,0.0,0.0,0.0,0.0,0.0,0.0,0.0,0.0,0.0,0.0,0.0,0.0,0.0,0.0,0.0,0.0,0.0,0.0,0.0,0.0,0.0,0.0,0.0,0.0,0.0,0.0,0.0,0.0,0.0,0.0,0.0,0.0,0.0,0.0,0.0,0.0,0.0,0.0,0.0,0.0,0.0,0.0,0.0,0.0,0.0,0.0,0.0,0.0,0.0,0.0,0.0,0.0,0.0,0.0,0.0,0.0,0.0,0.0,0.0,0.0,0.0,0.0,0.0,0.0,0.0,0.0,0.0,0.0,0.0,0.0,0.0,0.0,0.0,0.0,0.0,0.0,0.0,0.0,0.0,0.0,0.0,0.0,0.0,0.0,0.0,0.0,0.0,0.0,0.0,0.0,0.0,0.0,0.0,0.0,0.0,0.0,0.0,0.0,0.0,0.0,0.0,0.0,0.0,0.0,0.0,0.0,0.0,0.0,0.0,0.0,0.0,0.0,0.0,0.0,0.0,0.0,0.0,0.0,0.0,0.0,0.0,0.0,0.0,0.0,0.0,0.0,0.0,0.0,0.0,0.0,0.0,0.0,0.0,0.0,0.0,0.0,0.0,0.0,0.0,0.0,0.0,0.0,0.0,0.0,0.0,0.0,0.0,0.0,0.0,0.0,0.0,0.0,0.0,0.0,0.0,0.0,0.0,0.0,0.0,0.0,0.0,0.0,0.0,0.0,0.0,0.0,0.0,0.0,0.0,0.0,0.0,0.0,0.0,0.0,0.0,0.0,0.0,0.0,0.0,0.0,0.0,0.0,0.0,0.0,0.0,0.0,0.0,0.0,0.0,0.0,0.0,0.0,0.0,0.0,0.0,0.0,0.0,0.0,0.0,0.0,0.0,0.0,0.0,0.0,0.0,0.0,0.0,0.0,0.0,0.0,0.0,0.0,0.0,0.0,0.0,0.0,0.0,0.0,0.0,0.0,0.0,0.0,0.0,0.0,0.0,0.0,0.0,0.0,0.0,0.0,0.0,0.0,0.0,0.0,0.0,0.0,0.0,0.0,0.0,0.0,0.0,0.0,0.0,0.0,0.0,0.0,0.0,0.0,0.0,0.0,0.0,0.0,0.0,0.0,0.0,0.0,0.0,0.0,0.0,0.0,0.0,0.0,0.0,0.0,0.0,0.0,0.0,0.0,0.0]}]]]